<?xml version="1.0"?>
<gpx xmlns="http://www.topografix.com/GPX/1/1" xmlns:xsi="http://www.w3.org/2001/XMLSchema-instance" xmlns:wptx1="http://www.garmin.com/xmlschemas/WaypointExtension/v1" xmlns:gpxtrx="http://www.garmin.com/xmlschemas/GpxExtensions/v3" xmlns:gpxtpx="http://www.garmin.com/xmlschemas/TrackPointExtension/v1" xmlns:gpxx="http://www.garmin.com/xmlschemas/GpxExtensions/v3" xmlns:trp="http://www.garmin.com/xmlschemas/TripExtensions/v1" xmlns:adv="http://www.garmin.com/xmlschemas/AdventuresExtensions/v1" xmlns:prs="http://www.garmin.com/xmlschemas/PressureExtension/v1" creator="Garmin Desktop App" version="1.1" xsi:schemaLocation="http://www.topografix.com/GPX/1/1 http://www.topografix.com/GPX/1/1/gpx.xsd http://www.garmin.com/xmlschemas/WaypointExtension/v1 http://www8.garmin.com/xmlschemas/WaypointExtensionv1.xsd http://www.garmin.com/xmlschemas/TrackPointExtension/v1 http://www.garmin.com/xmlschemas/TrackPointExtensionv1.xsd http://www.garmin.com/xmlschemas/GpxExtensions/v3 http://www8.garmin.com/xmlschemas/GpxExtensionsv3.xsd http://www.garmin.com/xmlschemas/ActivityExtension/v1 http://www8.garmin.com/xmlschemas/ActivityExtensionv1.xsd http://www.garmin.com/xmlschemas/AdventuresExtensions/v1 http://www8.garmin.com/xmlschemas/AdventuresExtensionv1.xsd http://www.garmin.com/xmlschemas/PressureExtension/v1 http://www.garmin.com/xmlschemas/PressureExtensionv1.xsd http://www.garmin.com/xmlschemas/TripExtensions/v1 http://www.garmin.com/xmlschemas/TripExtensionsv1.xsd">

  <metadata>
    <link href="http://www.garmin.com">
      <text>Garmin International</text>
    </link>
    <time>2013-02-16T17:33:27Z</time>
    <bounds maxlat="47.671470539644361" maxlon="11.653254954144359" minlat="47.652173722162843" minlon="11.591921551153064"/>
  </metadata>

  <trk>
    <name>Seekarkreuz 2013.02.16</name>
    <extensions>
      <gpxx:TrackExtension>
        <gpxx:DisplayColor>Green</gpxx:DisplayColor>
      </gpxx:TrackExtension>
    </extensions>
    <trkseg>
      <trkpt lat="47.670631846413016" lon="11.592140905559063">
        <ele>641.336669921875</ele>
        <time>2013-02-16T09:19:23Z</time>
      </trkpt>
      <trkpt lat="47.67056412063539" lon="11.592069324105978">
        <ele>640.85595703125</ele>
        <time>2013-02-16T09:19:39Z</time>
      </trkpt>
      <trkpt lat="47.670555990189314" lon="11.592064965516329">
        <ele>641.8173828125</ele>
        <time>2013-02-16T09:20:03Z</time>
      </trkpt>
      <trkpt lat="47.670560600236058" lon="11.592063792049885">
        <ele>642.77880859375</ele>
        <time>2013-02-16T09:20:10Z</time>
      </trkpt>
      <trkpt lat="47.670565797016025" lon="11.592075610533357">
        <ele>641.336669921875</ele>
        <time>2013-02-16T09:20:18Z</time>
      </trkpt>
      <trkpt lat="47.670578872784972" lon="11.592103689908981">
        <ele>642.298095703125</ele>
        <time>2013-02-16T09:20:25Z</time>
      </trkpt>
      <trkpt lat="47.670592367649078" lon="11.592127159237862">
        <ele>642.298095703125</ele>
        <time>2013-02-16T09:20:33Z</time>
      </trkpt>
      <trkpt lat="47.670592200011015" lon="11.592119699344039">
        <ele>643.25927734375</ele>
        <time>2013-02-16T09:21:49Z</time>
      </trkpt>
      <trkpt lat="47.670589601621032" lon="11.592119866982102">
        <ele>644.220703125</ele>
        <time>2013-02-16T09:22:05Z</time>
      </trkpt>
      <trkpt lat="47.6705860812217" lon="11.592120537534356">
        <ele>644.220703125</ele>
        <time>2013-02-16T09:22:26Z</time>
      </trkpt>
      <trkpt lat="47.670596977695823" lon="11.59211877733469">
        <ele>645.181884765625</ele>
        <time>2013-02-16T09:22:37Z</time>
      </trkpt>
      <trkpt lat="47.670574178919196" lon="11.592115927487612">
        <ele>645.181884765625</ele>
        <time>2013-02-16T09:22:45Z</time>
      </trkpt>
      <trkpt lat="47.67056412063539" lon="11.592101929709315">
        <ele>646.143310546875</ele>
        <time>2013-02-16T09:22:51Z</time>
      </trkpt>
      <trkpt lat="47.670606449246407" lon="11.591946193948388">
        <ele>645.66259765625</ele>
        <time>2013-02-16T09:23:02Z</time>
      </trkpt>
      <trkpt lat="47.670614160597324" lon="11.591921551153064">
        <ele>645.66259765625</ele>
        <time>2013-02-16T09:23:07Z</time>
      </trkpt>
      <trkpt lat="47.670544758439064" lon="11.592065887525678">
        <ele>645.66259765625</ele>
        <time>2013-02-16T09:23:20Z</time>
      </trkpt>
      <trkpt lat="47.670546183362603" lon="11.592071671038866">
        <ele>647.585205078125</ele>
        <time>2013-02-16T09:23:37Z</time>
      </trkpt>
      <trkpt lat="47.670550961047411" lon="11.592077035456896">
        <ele>647.1044921875</ele>
        <time>2013-02-16T09:23:45Z</time>
      </trkpt>
      <trkpt lat="47.67054065130651" lon="11.592077622190118">
        <ele>647.585205078125</ele>
        <time>2013-02-16T09:24:00Z</time>
      </trkpt>
      <trkpt lat="47.670540818944573" lon="11.59207820892334">
        <ele>650.46923828125</ele>
        <time>2013-02-16T09:25:24Z</time>
      </trkpt>
      <trkpt lat="47.670543333515525" lon="11.592083321884274">
        <ele>651.9111328125</ele>
        <time>2013-02-16T09:25:58Z</time>
      </trkpt>
      <trkpt lat="47.670542914420366" lon="11.592085584998131">
        <ele>651.9111328125</ele>
        <time>2013-02-16T09:26:05Z</time>
      </trkpt>
      <trkpt lat="47.670528162270784" lon="11.592044094577432">
        <ele>652.391845703125</ele>
        <time>2013-02-16T09:26:12Z</time>
      </trkpt>
      <trkpt lat="47.670571580529213" lon="11.591934291645885">
        <ele>651.9111328125</ele>
        <time>2013-02-16T09:26:22Z</time>
      </trkpt>
      <trkpt lat="47.670659003779292" lon="11.591929262503982">
        <ele>652.391845703125</ele>
        <time>2013-02-16T09:26:30Z</time>
      </trkpt>
      <trkpt lat="47.670768387615681" lon="11.592024900019169">
        <ele>652.87255859375</ele>
        <time>2013-02-16T09:26:41Z</time>
      </trkpt>
      <trkpt lat="47.670905934646726" lon="11.592113329097629">
        <ele>653.353271484375</ele>
        <time>2013-02-16T09:26:54Z</time>
      </trkpt>
      <trkpt lat="47.671156637370586" lon="11.592260766774416">
        <ele>653.833984375</ele>
        <time>2013-02-16T09:27:15Z</time>
      </trkpt>
      <trkpt lat="47.671311283484101" lon="11.592291779816151">
        <ele>653.833984375</ele>
        <time>2013-02-16T09:27:28Z</time>
      </trkpt>
      <trkpt lat="47.671385295689106" lon="11.592359002679586">
        <ele>655.27587890625</ele>
        <time>2013-02-16T09:27:38Z</time>
      </trkpt>
      <trkpt lat="47.671376075595617" lon="11.592414742335677">
        <ele>656.237060546875</ele>
        <time>2013-02-16T09:27:47Z</time>
      </trkpt>
      <trkpt lat="47.671346822753549" lon="11.592433685436845">
        <ele>657.198486328125</ele>
        <time>2013-02-16T09:28:15Z</time>
      </trkpt>
      <trkpt lat="47.671355288475752" lon="11.592492442578077">
        <ele>660.082275390625</ele>
        <time>2013-02-16T09:29:31Z</time>
      </trkpt>
      <trkpt lat="47.671354282647371" lon="11.592493280768394">
        <ele>662.96630859375</ele>
        <time>2013-02-16T09:30:42Z</time>
      </trkpt>
      <trkpt lat="47.671350594609976" lon="11.592496884986758">
        <ele>664.888916015625</ele>
        <time>2013-02-16T09:31:37Z</time>
      </trkpt>
      <trkpt lat="47.671337015926838" lon="11.592728812247515">
        <ele>665.850341796875</ele>
        <time>2013-02-16T09:31:48Z</time>
      </trkpt>
      <trkpt lat="47.671325532719493" lon="11.592819672077894">
        <ele>665.850341796875</ele>
        <time>2013-02-16T09:31:55Z</time>
      </trkpt>
      <trkpt lat="47.671299129724503" lon="11.592977838590741">
        <ele>666.8115234375</ele>
        <time>2013-02-16T09:32:04Z</time>
      </trkpt>
      <trkpt lat="47.671256633475423" lon="11.593203227967024">
        <ele>667.292236328125</ele>
        <time>2013-02-16T09:32:17Z</time>
      </trkpt>
      <trkpt lat="47.671218663454056" lon="11.593362735584378">
        <ele>668.253662109375</ele>
        <time>2013-02-16T09:32:28Z</time>
      </trkpt>
      <trkpt lat="47.671168288215995" lon="11.593587705865502">
        <ele>669.69580078125</ele>
        <time>2013-02-16T09:32:43Z</time>
      </trkpt>
      <trkpt lat="47.671170383691788" lon="11.593847712501884">
        <ele>670.17626953125</ele>
        <time>2013-02-16T09:32:55Z</time>
      </trkpt>
      <trkpt lat="47.671231906861067" lon="11.594149293377995">
        <ele>672.098876953125</ele>
        <time>2013-02-16T09:33:12Z</time>
      </trkpt>
      <trkpt lat="47.671274486929178" lon="11.594429416581988">
        <ele>673.541015625</ele>
        <time>2013-02-16T09:33:29Z</time>
      </trkpt>
      <trkpt lat="47.671286724507809" lon="11.594645082950592">
        <ele>674.502197265625</ele>
        <time>2013-02-16T09:33:43Z</time>
      </trkpt>
      <trkpt lat="47.671282030642033" lon="11.594850858673453">
        <ele>675.944091796875</ele>
        <time>2013-02-16T09:33:55Z</time>
      </trkpt>
      <trkpt lat="47.671248503029346" lon="11.595130562782288">
        <ele>677.38623046875</ele>
        <time>2013-02-16T09:34:11Z</time>
      </trkpt>
      <trkpt lat="47.671220591291785" lon="11.595359640195966">
        <ele>677.86669921875</ele>
        <time>2013-02-16T09:34:25Z</time>
      </trkpt>
      <trkpt lat="47.671187566593289" lon="11.595490146428347">
        <ele>678.347412109375</ele>
        <time>2013-02-16T09:34:35Z</time>
      </trkpt>
      <trkpt lat="47.671167282387614" lon="11.595654180273414">
        <ele>680.27001953125</ele>
        <time>2013-02-16T09:34:46Z</time>
      </trkpt>
      <trkpt lat="47.671147417277098" lon="11.595887029543519">
        <ele>681.2314453125</ele>
        <time>2013-02-16T09:34:58Z</time>
      </trkpt>
      <trkpt lat="47.671121349558234" lon="11.596076376736164">
        <ele>682.67333984375</ele>
        <time>2013-02-16T09:35:10Z</time>
      </trkpt>
      <trkpt lat="47.671100646257401" lon="11.596234375610948">
        <ele>683.634521484375</ele>
        <time>2013-02-16T09:35:21Z</time>
      </trkpt>
      <trkpt lat="47.671083211898804" lon="11.596414502710104">
        <ele>684.115478515625</ele>
        <time>2013-02-16T09:35:31Z</time>
      </trkpt>
      <trkpt lat="47.671078098937869" lon="11.596532603725791">
        <ele>684.59619140625</ele>
        <time>2013-02-16T09:35:38Z</time>
      </trkpt>
      <trkpt lat="47.671074829995632" lon="11.596712647005916">
        <ele>685.557373046875</ele>
        <time>2013-02-16T09:35:49Z</time>
      </trkpt>
      <trkpt lat="47.671066699549556" lon="11.596877183765173">
        <ele>686.518798828125</ele>
        <time>2013-02-16T09:35:58Z</time>
      </trkpt>
      <trkpt lat="47.671040212735534" lon="11.597052114084363">
        <ele>687.47998046875</ele>
        <time>2013-02-16T09:36:08Z</time>
      </trkpt>
      <trkpt lat="47.67101707868278" lon="11.597262835130095">
        <ele>687.960693359375</ele>
        <time>2013-02-16T09:36:19Z</time>
      </trkpt>
      <trkpt lat="47.671016659587622" lon="11.597511861473322">
        <ele>688.922119140625</ele>
        <time>2013-02-16T09:36:29Z</time>
      </trkpt>
      <trkpt lat="47.670991597697139" lon="11.597790811210871">
        <ele>690.364013671875</ele>
        <time>2013-02-16T09:36:44Z</time>
      </trkpt>
      <trkpt lat="47.670956896618009" lon="11.598084010183811">
        <ele>691.3251953125</ele>
        <time>2013-02-16T09:37:00Z</time>
      </trkpt>
      <trkpt lat="47.670926386490464" lon="11.598303280770779">
        <ele>691.3251953125</ele>
        <time>2013-02-16T09:37:13Z</time>
      </trkpt>
      <trkpt lat="47.670894870534539" lon="11.598525820299983">
        <ele>692.767333984375</ele>
        <time>2013-02-16T09:37:26Z</time>
      </trkpt>
      <trkpt lat="47.670862348750234" lon="11.598749868571758">
        <ele>693.728515625</ele>
        <time>2013-02-16T09:37:39Z</time>
      </trkpt>
      <trkpt lat="47.670830748975277" lon="11.59897274337709">
        <ele>695.17041015625</ele>
        <time>2013-02-16T09:37:52Z</time>
      </trkpt>
      <trkpt lat="47.670798478648067" lon="11.599200898781419">
        <ele>696.1318359375</ele>
        <time>2013-02-16T09:38:06Z</time>
      </trkpt>
      <trkpt lat="47.670765453949571" lon="11.599410362541676">
        <ele>696.612548828125</ele>
        <time>2013-02-16T09:38:19Z</time>
      </trkpt>
      <trkpt lat="47.67073075287044" lon="11.599662574008107">
        <ele>697.57373046875</ele>
        <time>2013-02-16T09:38:34Z</time>
      </trkpt>
      <trkpt lat="47.67069211229682" lon="11.599940685555339">
        <ele>698.534912109375</ele>
        <time>2013-02-16T09:38:51Z</time>
      </trkpt>
      <trkpt lat="47.670644335448742" lon="11.600240841507912">
        <ele>699.97705078125</ele>
        <time>2013-02-16T09:39:09Z</time>
      </trkpt>
      <trkpt lat="47.670586332678795" lon="11.600463129580021">
        <ele>700.9384765625</ele>
        <time>2013-02-16T09:39:23Z</time>
      </trkpt>
      <trkpt lat="47.67046052031219" lon="11.600712826475501">
        <ele>701.89990234375</ele>
        <time>2013-02-16T09:39:41Z</time>
      </trkpt>
      <trkpt lat="47.670343425124884" lon="11.600889768451452">
        <ele>702.861083984375</ele>
        <time>2013-02-16T09:39:56Z</time>
      </trkpt>
      <trkpt lat="47.670249799266458" lon="11.601069560274482">
        <ele>703.822509765625</ele>
        <time>2013-02-16T09:40:09Z</time>
      </trkpt>
      <trkpt lat="47.67016782425344" lon="11.601306265220046">
        <ele>705.264404296875</ele>
        <time>2013-02-16T09:40:25Z</time>
      </trkpt>
      <trkpt lat="47.670098003000021" lon="11.601534588262439">
        <ele>706.706298828125</ele>
        <time>2013-02-16T09:40:41Z</time>
      </trkpt>
      <trkpt lat="47.670044777914882" lon="11.601721839979291">
        <ele>707.18701171875</ele>
        <time>2013-02-16T09:40:55Z</time>
      </trkpt>
      <trkpt lat="47.669974789023399" lon="11.601952509954572">
        <ele>709.109619140625</ele>
        <time>2013-02-16T09:41:12Z</time>
      </trkpt>
      <trkpt lat="47.669919384643435" lon="11.60215082578361">
        <ele>709.59033203125</ele>
        <time>2013-02-16T09:41:26Z</time>
      </trkpt>
      <trkpt lat="47.669858364388347" lon="11.602348806336522">
        <ele>711.0322265625</ele>
        <time>2013-02-16T09:41:40Z</time>
      </trkpt>
      <trkpt lat="47.669798349961638" lon="11.60256371833384">
        <ele>711.512939453125</ele>
        <time>2013-02-16T09:41:55Z</time>
      </trkpt>
      <trkpt lat="47.669737664982677" lon="11.602832274511456">
        <ele>713.435546875</ele>
        <time>2013-02-16T09:42:13Z</time>
      </trkpt>
      <trkpt lat="47.669666167348623" lon="11.603038553148508">
        <ele>714.87744140625</ele>
        <time>2013-02-16T09:42:27Z</time>
      </trkpt>
      <trkpt lat="47.669600117951632" lon="11.603235444054008">
        <ele>715.8388671875</ele>
        <time>2013-02-16T09:42:41Z</time>
      </trkpt>
      <trkpt lat="47.669526357203722" lon="11.603461001068354">
        <ele>716.80029296875</ele>
        <time>2013-02-16T09:42:56Z</time>
      </trkpt>
      <trkpt lat="47.669446226209402" lon="11.603695107623935">
        <ele>717.281005859375</ele>
        <time>2013-02-16T09:43:11Z</time>
      </trkpt>
      <trkpt lat="47.66936156898737" lon="11.603935332968831">
        <ele>718.2421875</ele>
        <time>2013-02-16T09:43:25Z</time>
      </trkpt>
      <trkpt lat="47.669269032776356" lon="11.604194501414895">
        <ele>719.684326171875</ele>
        <time>2013-02-16T09:43:42Z</time>
      </trkpt>
      <trkpt lat="47.669157721102238" lon="11.604443611577153">
        <ele>720.164794921875</ele>
        <time>2013-02-16T09:43:59Z</time>
      </trkpt>
      <trkpt lat="47.669058982282877" lon="11.604630947113037">
        <ele>721.126220703125</ele>
        <time>2013-02-16T09:44:13Z</time>
      </trkpt>
      <trkpt lat="47.668952783569694" lon="11.604877123609185">
        <ele>722.568115234375</ele>
        <time>2013-02-16T09:44:31Z</time>
      </trkpt>
      <trkpt lat="47.668900648131967" lon="11.605084408074617">
        <ele>723.048828125</ele>
        <time>2013-02-16T09:44:46Z</time>
      </trkpt>
      <trkpt lat="47.668853877112269" lon="11.605243245139718">
        <ele>724.49072265625</ele>
        <time>2013-02-16T09:44:57Z</time>
      </trkpt>
      <trkpt lat="47.668780200183392" lon="11.605461090803146">
        <ele>725.451904296875</ele>
        <time>2013-02-16T09:45:13Z</time>
      </trkpt>
      <trkpt lat="47.668688502162695" lon="11.605693269520998">
        <ele>726.89404296875</ele>
        <time>2013-02-16T09:45:30Z</time>
      </trkpt>
      <trkpt lat="47.668596049770713" lon="11.605900805443525">
        <ele>727.855224609375</ele>
        <time>2013-02-16T09:45:45Z</time>
      </trkpt>
      <trkpt lat="47.66850309446454" lon="11.606089062988758">
        <ele>728.816650390625</ele>
        <time>2013-02-16T09:46:00Z</time>
      </trkpt>
      <trkpt lat="47.668402763083577" lon="11.606277991086245">
        <ele>729.77783203125</ele>
        <time>2013-02-16T09:46:16Z</time>
      </trkpt>
      <trkpt lat="47.668307796120644" lon="11.606434481218457">
        <ele>730.7392578125</ele>
        <time>2013-02-16T09:46:32Z</time>
      </trkpt>
      <trkpt lat="47.668276196345687" lon="11.606495836749673">
        <ele>733.623291015625</ele>
        <time>2013-02-16T09:48:53Z</time>
      </trkpt>
      <trkpt lat="47.668164633214474" lon="11.606712089851499">
        <ele>735.0654296875</ele>
        <time>2013-02-16T09:49:11Z</time>
      </trkpt>
      <trkpt lat="47.668062457814813" lon="11.606900095939636">
        <ele>736.026611328125</ele>
        <time>2013-02-16T09:49:27Z</time>
      </trkpt>
      <trkpt lat="47.667962126433849" lon="11.607073768973351">
        <ele>737.468505859375</ele>
        <time>2013-02-16T09:49:43Z</time>
      </trkpt>
      <trkpt lat="47.667872356250882" lon="11.607236629351974">
        <ele>738.429931640625</ele>
        <time>2013-02-16T09:49:58Z</time>
      </trkpt>
      <trkpt lat="47.667794404551387" lon="11.607374846935272">
        <ele>739.871826171875</ele>
        <time>2013-02-16T09:50:11Z</time>
      </trkpt>
      <trkpt lat="47.667703293263912" lon="11.607545502483845">
        <ele>741.313720703125</ele>
        <time>2013-02-16T09:50:26Z</time>
      </trkpt>
      <trkpt lat="47.667612014338374" lon="11.607756391167641">
        <ele>742.755859375</ele>
        <time>2013-02-16T09:50:43Z</time>
      </trkpt>
      <trkpt lat="47.667555185034871" lon="11.607956467196345">
        <ele>743.717041015625</ele>
        <time>2013-02-16T09:50:57Z</time>
      </trkpt>
      <trkpt lat="47.66750774346292" lon="11.608162159100175">
        <ele>745.158935546875</ele>
        <time>2013-02-16T09:51:12Z</time>
      </trkpt>
      <trkpt lat="47.6674535125494" lon="11.608411855995655">
        <ele>746.60107421875</ele>
        <time>2013-02-16T09:51:31Z</time>
      </trkpt>
      <trkpt lat="47.667382853105664" lon="11.608662391081452">
        <ele>748.523681640625</ele>
        <time>2013-02-16T09:51:50Z</time>
      </trkpt>
      <trkpt lat="47.667328454554081" lon="11.608816282823682">
        <ele>750.446533203125</ele>
        <time>2013-02-16T09:52:03Z</time>
      </trkpt>
      <trkpt lat="47.66724094748497" lon="11.608975706622005">
        <ele>751.888427734375</ele>
        <time>2013-02-16T09:52:19Z</time>
      </trkpt>
      <trkpt lat="47.667155619710684" lon="11.609156839549541">
        <ele>751.888427734375</ele>
        <time>2013-02-16T09:52:32Z</time>
      </trkpt>
      <trkpt lat="47.667086301371455" lon="11.609329590573907">
        <ele>751.888427734375</ele>
        <time>2013-02-16T09:52:45Z</time>
      </trkpt>
      <trkpt lat="47.667040368542075" lon="11.609506951645017">
        <ele>752.849609375</ele>
        <time>2013-02-16T09:52:59Z</time>
      </trkpt>
      <trkpt lat="47.666985299438238" lon="11.609660591930151">
        <ele>754.291748046875</ele>
        <time>2013-02-16T09:53:11Z</time>
      </trkpt>
      <trkpt lat="47.666924111545086" lon="11.609820099547505">
        <ele>754.772216796875</ele>
        <time>2013-02-16T09:53:24Z</time>
      </trkpt>
      <trkpt lat="47.666873652487993" lon="11.609950857236981">
        <ele>755.2529296875</ele>
        <time>2013-02-16T09:53:35Z</time>
      </trkpt>
      <trkpt lat="47.66680508852005" lon="11.610084045678377">
        <ele>756.214111328125</ele>
        <time>2013-02-16T09:53:47Z</time>
      </trkpt>
      <trkpt lat="47.666691178455949" lon="11.610228465870023">
        <ele>758.136962890625</ele>
        <time>2013-02-16T09:54:04Z</time>
      </trkpt>
      <trkpt lat="47.666613478213549" lon="11.610389482229948">
        <ele>759.578857421875</ele>
        <time>2013-02-16T09:54:19Z</time>
      </trkpt>
      <trkpt lat="47.666553799062967" lon="11.610532058402896">
        <ele>760.5400390625</ele>
        <time>2013-02-16T09:54:30Z</time>
      </trkpt>
      <trkpt lat="47.666465286165476" lon="11.610732050612569">
        <ele>761.982177734375</ele>
        <time>2013-02-16T09:54:45Z</time>
      </trkpt>
      <trkpt lat="47.666405942291021" lon="11.610958110541105">
        <ele>762.462646484375</ele>
        <time>2013-02-16T09:54:59Z</time>
      </trkpt>
      <trkpt lat="47.666375264525414" lon="11.611197413876653">
        <ele>762.943359375</ele>
        <time>2013-02-16T09:55:14Z</time>
      </trkpt>
      <trkpt lat="47.66635506413877" lon="11.611366393044591">
        <ele>763.424072265625</ele>
        <time>2013-02-16T09:55:25Z</time>
      </trkpt>
      <trkpt lat="47.666336037218571" lon="11.611630003899336">
        <ele>765.346923828125</ele>
        <time>2013-02-16T09:55:41Z</time>
      </trkpt>
      <trkpt lat="47.666335953399539" lon="11.611935440450907">
        <ele>765.82763671875</ele>
        <time>2013-02-16T09:56:00Z</time>
      </trkpt>
      <trkpt lat="47.666346179321408" lon="11.612157896161079">
        <ele>767.26953125</ele>
        <time>2013-02-16T09:56:15Z</time>
      </trkpt>
      <trkpt lat="47.666352968662977" lon="11.612233417108655">
        <ele>767.75</ele>
        <time>2013-02-16T09:56:22Z</time>
      </trkpt>
      <trkpt lat="47.666355734691024" lon="11.612308938056231">
        <ele>768.230712890625</ele>
        <time>2013-02-16T09:56:30Z</time>
      </trkpt>
      <trkpt lat="47.66635506413877" lon="11.612485544756055">
        <ele>768.71142578125</ele>
        <time>2013-02-16T09:56:41Z</time>
      </trkpt>
      <trkpt lat="47.666365960612893" lon="11.612679585814476">
        <ele>770.634033203125</ele>
        <time>2013-02-16T09:56:55Z</time>
      </trkpt>
      <trkpt lat="47.666362104937434" lon="11.612878739833832">
        <ele>771.59521484375</ele>
        <time>2013-02-16T09:57:09Z</time>
      </trkpt>
      <trkpt lat="47.666352214291692" lon="11.613037576898932">
        <ele>772.556640625</ele>
        <time>2013-02-16T09:57:20Z</time>
      </trkpt>
      <trkpt lat="47.66634919680655" lon="11.613197838887572">
        <ele>773.99853515625</ele>
        <time>2013-02-16T09:57:31Z</time>
      </trkpt>
      <trkpt lat="47.666255403310061" lon="11.613443344831467">
        <ele>774.9599609375</ele>
        <time>2013-02-16T09:57:47Z</time>
      </trkpt>
      <trkpt lat="47.666192622855306" lon="11.613624477759004">
        <ele>776.882568359375</ele>
        <time>2013-02-16T09:58:02Z</time>
      </trkpt>
      <trkpt lat="47.666172003373504" lon="11.613879455253482">
        <ele>778.324462890625</ele>
        <time>2013-02-16T09:58:19Z</time>
      </trkpt>
      <trkpt lat="47.666152892634273" lon="11.614051284268498">
        <ele>779.28564453125</ele>
        <time>2013-02-16T09:58:33Z</time>
      </trkpt>
      <trkpt lat="47.666150461882353" lon="11.614209534600377">
        <ele>780.72802734375</ele>
        <time>2013-02-16T09:58:45Z</time>
      </trkpt>
      <trkpt lat="47.666132608428597" lon="11.614356720820069">
        <ele>781.689208984375</ele>
        <time>2013-02-16T09:58:56Z</time>
      </trkpt>
      <trkpt lat="47.666145348921418" lon="11.614497788250446">
        <ele>783.131103515625</ele>
        <time>2013-02-16T09:59:05Z</time>
      </trkpt>
      <trkpt lat="47.666175523772836" lon="11.614625612273812">
        <ele>783.61181640625</ele>
        <time>2013-02-16T09:59:13Z</time>
      </trkpt>
      <trkpt lat="47.666231011971831" lon="11.614866843447089">
        <ele>784.5732421875</ele>
        <time>2013-02-16T09:59:27Z</time>
      </trkpt>
      <trkpt lat="47.666239812970161" lon="11.615037498995662">
        <ele>786.01513671875</ele>
        <time>2013-02-16T09:59:38Z</time>
      </trkpt>
      <trkpt lat="47.666249619796872" lon="11.615061638876796">
        <ele>786.01513671875</ele>
        <time>2013-02-16T09:59:40Z</time>
      </trkpt>
      <trkpt lat="47.666299073025584" lon="11.615215530619025">
        <ele>786.976318359375</ele>
        <time>2013-02-16T09:59:50Z</time>
      </trkpt>
      <trkpt lat="47.666370905935764" lon="11.615338576957583">
        <ele>787.45703125</ele>
        <time>2013-02-16T10:00:00Z</time>
      </trkpt>
      <trkpt lat="47.666456401348114" lon="11.61547964438796">
        <ele>787.45703125</ele>
        <time>2013-02-16T10:00:12Z</time>
      </trkpt>
      <trkpt lat="47.666525719687343" lon="11.615645689889789">
        <ele>787.45703125</ele>
        <time>2013-02-16T10:00:23Z</time>
      </trkpt>
      <trkpt lat="47.666534436866641" lon="11.61584660410881">
        <ele>789.379638671875</ele>
        <time>2013-02-16T10:00:36Z</time>
      </trkpt>
      <trkpt lat="47.666545500978827" lon="11.616030083969235">
        <ele>789.379638671875</ele>
        <time>2013-02-16T10:00:47Z</time>
      </trkpt>
      <trkpt lat="47.666566791012883" lon="11.616185149177909">
        <ele>789.8603515625</ele>
        <time>2013-02-16T10:00:57Z</time>
      </trkpt>
      <trkpt lat="47.66657299362123" lon="11.616300232708454">
        <ele>789.8603515625</ele>
        <time>2013-02-16T10:01:05Z</time>
      </trkpt>
      <trkpt lat="47.666581040248275" lon="11.616461500525475">
        <ele>790.821533203125</ele>
        <time>2013-02-16T10:01:16Z</time>
      </trkpt>
      <trkpt lat="47.666591517627239" lon="11.616522436961532">
        <ele>791.30224609375</ele>
        <time>2013-02-16T10:01:37Z</time>
      </trkpt>
      <trkpt lat="47.666579112410545" lon="11.61668554879725">
        <ele>792.263671875</ele>
        <time>2013-02-16T10:01:48Z</time>
      </trkpt>
      <trkpt lat="47.666591266170144" lon="11.616792501881719">
        <ele>792.744384765625</ele>
        <time>2013-02-16T10:02:05Z</time>
      </trkpt>
      <trkpt lat="47.666592271998525" lon="11.616900041699409">
        <ele>792.744384765625</ele>
        <time>2013-02-16T10:02:16Z</time>
      </trkpt>
      <trkpt lat="47.666585315018892" lon="11.616959217935801">
        <ele>793.224853515625</ele>
        <time>2013-02-16T10:02:23Z</time>
      </trkpt>
      <trkpt lat="47.666578274220228" lon="11.617059633135796">
        <ele>794.186279296875</ele>
        <time>2013-02-16T10:02:33Z</time>
      </trkpt>
      <trkpt lat="47.666564024984837" lon="11.617189720273018">
        <ele>795.628173828125</ele>
        <time>2013-02-16T10:02:45Z</time>
      </trkpt>
      <trkpt lat="47.666578693315387" lon="11.617297930642962">
        <ele>796.58984375</ele>
        <time>2013-02-16T10:02:54Z</time>
      </trkpt>
      <trkpt lat="47.666597552597523" lon="11.617426928132772">
        <ele>797.0703125</ele>
        <time>2013-02-16T10:03:04Z</time>
      </trkpt>
      <trkpt lat="47.666579028591514" lon="11.617606049403548">
        <ele>798.51220703125</ele>
        <time>2013-02-16T10:03:14Z</time>
      </trkpt>
      <trkpt lat="47.666577771306038" lon="11.617707638069987">
        <ele>798.51220703125</ele>
        <time>2013-02-16T10:03:23Z</time>
      </trkpt>
      <trkpt lat="47.666569221764803" lon="11.617814926430583">
        <ele>799.954345703125</ele>
        <time>2013-02-16T10:03:34Z</time>
      </trkpt>
      <trkpt lat="47.666565785184503" lon="11.617984240874648">
        <ele>801.396240234375</ele>
        <time>2013-02-16T10:03:50Z</time>
      </trkpt>
      <trkpt lat="47.666561426594853" lon="11.618186077103019">
        <ele>802.838134765625</ele>
        <time>2013-02-16T10:04:06Z</time>
      </trkpt>
      <trkpt lat="47.666519517078996" lon="11.618287917226553">
        <ele>803.799560546875</ele>
        <time>2013-02-16T10:04:17Z</time>
      </trkpt>
      <trkpt lat="47.666519265621901" lon="11.618296802043915">
        <ele>803.799560546875</ele>
        <time>2013-02-16T10:04:18Z</time>
      </trkpt>
      <trkpt lat="47.666479535400867" lon="11.618554126471281">
        <ele>805.241455078125</ele>
        <time>2013-02-16T10:04:34Z</time>
      </trkpt>
      <trkpt lat="47.666400158777833" lon="11.618771217763424">
        <ele>806.683349609375</ele>
        <time>2013-02-16T10:04:50Z</time>
      </trkpt>
      <trkpt lat="47.666299743577838" lon="11.618933072313666">
        <ele>806.683349609375</ele>
        <time>2013-02-16T10:05:05Z</time>
      </trkpt>
      <trkpt lat="47.666182313114405" lon="11.619156366214156">
        <ele>808.60595703125</ele>
        <time>2013-02-16T10:05:22Z</time>
      </trkpt>
      <trkpt lat="47.666183654218912" lon="11.619472112506628">
        <ele>810.528564453125</ele>
        <time>2013-02-16T10:05:39Z</time>
      </trkpt>
      <trkpt lat="47.666164627298713" lon="11.61976782605052">
        <ele>811.970703125</ele>
        <time>2013-02-16T10:05:54Z</time>
      </trkpt>
      <trkpt lat="47.66611760482192" lon="11.619870085269213">
        <ele>811.970703125</ele>
        <time>2013-02-16T10:06:00Z</time>
      </trkpt>
      <trkpt lat="47.666019955649972" lon="11.620054822415113">
        <ele>813.412841796875</ele>
        <time>2013-02-16T10:06:12Z</time>
      </trkpt>
      <trkpt lat="47.665932197123766" lon="11.620167139917612">
        <ele>814.3740234375</ele>
        <time>2013-02-16T10:06:24Z</time>
      </trkpt>
      <trkpt lat="47.665922893211246" lon="11.620173929259181">
        <ele>814.854736328125</ele>
        <time>2013-02-16T10:06:25Z</time>
      </trkpt>
      <trkpt lat="47.665832201018929" lon="11.620291778817773">
        <ele>816.296630859375</ele>
        <time>2013-02-16T10:06:37Z</time>
      </trkpt>
      <trkpt lat="47.665731785818934" lon="11.620427230373025">
        <ele>817.738525390625</ele>
        <time>2013-02-16T10:06:51Z</time>
      </trkpt>
      <trkpt lat="47.665628772228956" lon="11.620569135993719">
        <ele>818.699951171875</ele>
        <time>2013-02-16T10:07:04Z</time>
      </trkpt>
      <trkpt lat="47.665537325665355" lon="11.620626803487539">
        <ele>819.1806640625</ele>
        <time>2013-02-16T10:07:13Z</time>
      </trkpt>
      <trkpt lat="47.665442274883389" lon="11.620741635560989">
        <ele>820.141845703125</ele>
        <time>2013-02-16T10:07:24Z</time>
      </trkpt>
      <trkpt lat="47.665341105312109" lon="11.620829058811069">
        <ele>822.064453125</ele>
        <time>2013-02-16T10:07:38Z</time>
      </trkpt>
      <trkpt lat="47.665227362886071" lon="11.620903657749295">
        <ele>823.506591796875</ele>
        <time>2013-02-16T10:07:50Z</time>
      </trkpt>
      <trkpt lat="47.665069028735161" lon="11.620901897549629">
        <ele>824.948486328125</ele>
        <time>2013-02-16T10:08:03Z</time>
      </trkpt>
      <trkpt lat="47.664947072044015" lon="11.621012119576335">
        <ele>826.87109375</ele>
        <time>2013-02-16T10:08:20Z</time>
      </trkpt>
      <trkpt lat="47.66484959051013" lon="11.621108092367649">
        <ele>829.2744140625</ele>
        <time>2013-02-16T10:08:36Z</time>
      </trkpt>
      <trkpt lat="47.66478119418025" lon="11.621145559474826">
        <ele>830.716552734375</ele>
        <time>2013-02-16T10:08:46Z</time>
      </trkpt>
      <trkpt lat="47.664720760658383" lon="11.621235497295856">
        <ele>833.11962890625</ele>
        <time>2013-02-16T10:08:59Z</time>
      </trkpt>
      <trkpt lat="47.664693268015981" lon="11.62138570100069">
        <ele>835.52294921875</ele>
        <time>2013-02-16T10:09:12Z</time>
      </trkpt>
      <trkpt lat="47.664696620777249" lon="11.621608240529895">
        <ele>836.96484375</ele>
        <time>2013-02-16T10:09:24Z</time>
      </trkpt>
      <trkpt lat="47.664724700152874" lon="11.621796833351254">
        <ele>839.3681640625</ele>
        <time>2013-02-16T10:09:39Z</time>
      </trkpt>
      <trkpt lat="47.664756802842021" lon="11.621947875246406">
        <ele>840.32958984375</ele>
        <time>2013-02-16T10:09:50Z</time>
      </trkpt>
      <trkpt lat="47.664767866954207" lon="11.62214744836092">
        <ele>841.771484375</ele>
        <time>2013-02-16T10:10:03Z</time>
      </trkpt>
      <trkpt lat="47.664773399010301" lon="11.622224394232035">
        <ele>842.73291015625</ele>
        <time>2013-02-16T10:10:10Z</time>
      </trkpt>
      <trkpt lat="47.664778176695108" lon="11.622309973463416">
        <ele>843.21337890625</ele>
        <time>2013-02-16T10:10:19Z</time>
      </trkpt>
      <trkpt lat="47.66477432101965" lon="11.622341070324183">
        <ele>844.175048828125</ele>
        <time>2013-02-16T10:10:22Z</time>
      </trkpt>
      <trkpt lat="47.664759485051036" lon="11.622447352856398">
        <ele>845.13623046875</ele>
        <time>2013-02-16T10:10:31Z</time>
      </trkpt>
      <trkpt lat="47.66476166434586" lon="11.622610716149211">
        <ele>846.578369140625</ele>
        <time>2013-02-16T10:10:41Z</time>
      </trkpt>
      <trkpt lat="47.664769627153873" lon="11.622755220159888">
        <ele>848.020263671875</ele>
        <time>2013-02-16T10:10:50Z</time>
      </trkpt>
      <trkpt lat="47.664764011278749" lon="11.622888157144189">
        <ele>848.9814453125</ele>
        <time>2013-02-16T10:10:59Z</time>
      </trkpt>
      <trkpt lat="47.664735009893775" lon="11.623035594820976">
        <ele>851.384765625</ele>
        <time>2013-02-16T10:11:12Z</time>
      </trkpt>
      <trkpt lat="47.664677007123828" lon="11.62319703027606">
        <ele>853.7880859375</ele>
        <time>2013-02-16T10:11:31Z</time>
      </trkpt>
      <trkpt lat="47.664625877514482" lon="11.623355783522129">
        <ele>855.710693359375</ele>
        <time>2013-02-16T10:11:46Z</time>
      </trkpt>
      <trkpt lat="47.664582543075085" lon="11.623557368293405">
        <ele>857.152587890625</ele>
        <time>2013-02-16T10:12:02Z</time>
      </trkpt>
      <trkpt lat="47.664594445377588" lon="11.623747386038303">
        <ele>858.594482421875</ele>
        <time>2013-02-16T10:12:15Z</time>
      </trkpt>
      <trkpt lat="47.664535772055387" lon="11.623938493430614">
        <ele>860.998046875</ele>
        <time>2013-02-16T10:12:30Z</time>
      </trkpt>
      <trkpt lat="47.664554631337523" lon="11.624235296621919">
        <ele>863.8818359375</ele>
        <time>2013-02-16T10:12:49Z</time>
      </trkpt>
      <trkpt lat="47.664598384872079" lon="11.624485747888684">
        <ele>865.8046875</ele>
        <time>2013-02-16T10:13:03Z</time>
      </trkpt>
      <trkpt lat="47.664640042930841" lon="11.624586246907711">
        <ele>866.765869140625</ele>
        <time>2013-02-16T10:13:13Z</time>
      </trkpt>
      <trkpt lat="47.664686813950539" lon="11.624736282974482">
        <ele>867.72705078125</ele>
        <time>2013-02-16T10:13:25Z</time>
      </trkpt>
      <trkpt lat="47.664689915254712" lon="11.624829489737749">
        <ele>869.169189453125</ele>
        <time>2013-02-16T10:13:33Z</time>
      </trkpt>
      <trkpt lat="47.664682539179921" lon="11.624929485842586">
        <ele>870.13037109375</ele>
        <time>2013-02-16T10:13:41Z</time>
      </trkpt>
      <trkpt lat="47.66471179202199" lon="11.625039372593164">
        <ele>871.572265625</ele>
        <time>2013-02-16T10:13:51Z</time>
      </trkpt>
      <trkpt lat="47.664694776758552" lon="11.625199634581804">
        <ele>872.53369140625</ele>
        <time>2013-02-16T10:13:59Z</time>
      </trkpt>
      <trkpt lat="47.664677258580923" lon="11.6253293864429">
        <ele>873.4951171875</ele>
        <time>2013-02-16T10:14:09Z</time>
      </trkpt>
      <trkpt lat="47.664720844477415" lon="11.625499287620187">
        <ele>875.41748046875</ele>
        <time>2013-02-16T10:14:22Z</time>
      </trkpt>
      <trkpt lat="47.664747918024659" lon="11.625616466626525">
        <ele>876.85986328125</ele>
        <time>2013-02-16T10:14:32Z</time>
      </trkpt>
      <trkpt lat="47.664748756214976" lon="11.6256885509938">
        <ele>877.340576171875</ele>
        <time>2013-02-16T10:14:43Z</time>
      </trkpt>
      <trkpt lat="47.664742302149534" lon="11.625687293708324">
        <ele>877.821044921875</ele>
        <time>2013-02-16T10:15:22Z</time>
      </trkpt>
      <trkpt lat="47.664746241644025" lon="11.625688718631864">
        <ele>877.821044921875</ele>
        <time>2013-02-16T10:16:16Z</time>
      </trkpt>
      <trkpt lat="47.664745906367898" lon="11.625689389184117">
        <ele>878.3017578125</ele>
        <time>2013-02-16T10:18:11Z</time>
      </trkpt>
      <trkpt lat="47.664748253300786" lon="11.625710008665919">
        <ele>879.74365234375</ele>
        <time>2013-02-16T10:19:40Z</time>
      </trkpt>
      <trkpt lat="47.664806172251701" lon="11.625912096351385">
        <ele>881.666259765625</ele>
        <time>2013-02-16T10:19:58Z</time>
      </trkpt>
      <trkpt lat="47.664915388450027" lon="11.626071771606803">
        <ele>884.55029296875</ele>
        <time>2013-02-16T10:20:19Z</time>
      </trkpt>
      <trkpt lat="47.664953358471394" lon="11.626143269240856">
        <ele>885.511474609375</ele>
        <time>2013-02-16T10:20:31Z</time>
      </trkpt>
      <trkpt lat="47.664960734546185" lon="11.62619523704052">
        <ele>886.472900390625</ele>
        <time>2013-02-16T10:20:44Z</time>
      </trkpt>
      <trkpt lat="47.66501035541296" lon="11.626368910074234">
        <ele>888.876220703125</ele>
        <time>2013-02-16T10:21:04Z</time>
      </trkpt>
      <trkpt lat="47.665028292685747" lon="11.626515928655863">
        <ele>890.798583984375</ele>
        <time>2013-02-16T10:21:19Z</time>
      </trkpt>
      <trkpt lat="47.665053438395262" lon="11.626597149297595">
        <ele>892.7216796875</ele>
        <time>2013-02-16T10:21:30Z</time>
      </trkpt>
      <trkpt lat="47.665052264928818" lon="11.626662611961365">
        <ele>892.7216796875</ele>
        <time>2013-02-16T10:21:36Z</time>
      </trkpt>
      <trkpt lat="47.665080763399601" lon="11.626789849251509">
        <ele>894.64404296875</ele>
        <time>2013-02-16T10:21:48Z</time>
      </trkpt>
      <trkpt lat="47.665048241615295" lon="11.626964109018445">
        <ele>896.56689453125</ele>
        <time>2013-02-16T10:22:02Z</time>
      </trkpt>
      <trkpt lat="47.664994681254029" lon="11.627060333266854">
        <ele>898.0087890625</ele>
        <time>2013-02-16T10:22:11Z</time>
      </trkpt>
      <trkpt lat="47.664925698190928" lon="11.627254793420434">
        <ele>899.45068359375</ele>
        <time>2013-02-16T10:22:24Z</time>
      </trkpt>
      <trkpt lat="47.664928128942847" lon="11.627351520583034">
        <ele>899.931396484375</ele>
        <time>2013-02-16T10:22:32Z</time>
      </trkpt>
      <trkpt lat="47.664865516126156" lon="11.627408349886537">
        <ele>901.373291015625</ele>
        <time>2013-02-16T10:22:43Z</time>
      </trkpt>
      <trkpt lat="47.664847411215305" lon="11.62742218002677">
        <ele>902.815185546875</ele>
        <time>2013-02-16T10:23:40Z</time>
      </trkpt>
      <trkpt lat="47.664734842255712" lon="11.627399129793048">
        <ele>904.25732421875</ele>
        <time>2013-02-16T10:23:51Z</time>
      </trkpt>
      <trkpt lat="47.664656220003963" lon="11.627421174198389">
        <ele>905.69921875</ele>
        <time>2013-02-16T10:24:01Z</time>
      </trkpt>
      <trkpt lat="47.664571646600962" lon="11.627450929954648">
        <ele>907.621826171875</ele>
        <time>2013-02-16T10:24:13Z</time>
      </trkpt>
      <trkpt lat="47.664519008249044" lon="11.627532988786697">
        <ele>909.06396484375</ele>
        <time>2013-02-16T10:24:24Z</time>
      </trkpt>
      <trkpt lat="47.664497466757894" lon="11.627676235511899">
        <ele>910.025146484375</ele>
        <time>2013-02-16T10:24:33Z</time>
      </trkpt>
      <trkpt lat="47.664447678253055" lon="11.627756617963314">
        <ele>911.46728515625</ele>
        <time>2013-02-16T10:24:43Z</time>
      </trkpt>
      <trkpt lat="47.664395123720169" lon="11.627872874960303">
        <ele>912.428466796875</ele>
        <time>2013-02-16T10:24:53Z</time>
      </trkpt>
      <trkpt lat="47.664340976625681" lon="11.6278903093189">
        <ele>914.831787109375</ele>
        <time>2013-02-16T10:25:04Z</time>
      </trkpt>
      <trkpt lat="47.664261683821678" lon="11.627974044531584">
        <ele>917.235107421875</ele>
        <time>2013-02-16T10:25:19Z</time>
      </trkpt>
      <trkpt lat="47.664228910580277" lon="11.628085942938924">
        <ele>919.15771484375</ele>
        <time>2013-02-16T10:25:31Z</time>
      </trkpt>
      <trkpt lat="47.66417090781033" lon="11.628173450008035">
        <ele>920.599609375</ele>
        <time>2013-02-16T10:25:43Z</time>
      </trkpt>
      <trkpt lat="47.664139643311501" lon="11.628295322880149">
        <ele>921.560791015625</ele>
        <time>2013-02-16T10:25:51Z</time>
      </trkpt>
      <trkpt lat="47.664120532572269" lon="11.628393307328224">
        <ele>923.0029296875</ele>
        <time>2013-02-16T10:26:03Z</time>
      </trkpt>
      <trkpt lat="47.664110725745559" lon="11.628551222383976">
        <ele>924.92578125</ele>
        <time>2013-02-16T10:26:14Z</time>
      </trkpt>
      <trkpt lat="47.663981560617685" lon="11.628635376691818">
        <ele>926.36767578125</ele>
        <time>2013-02-16T10:26:25Z</time>
      </trkpt>
      <trkpt lat="47.663920037448406" lon="11.628721794113517">
        <ele>927.8095703125</ele>
        <time>2013-02-16T10:26:34Z</time>
      </trkpt>
      <trkpt lat="47.663819454610348" lon="11.628803685307503">
        <ele>929.732177734375</ele>
        <time>2013-02-16T10:26:44Z</time>
      </trkpt>
      <trkpt lat="47.663754913955927" lon="11.62887685932219">
        <ele>931.17431640625</ele>
        <time>2013-02-16T10:26:53Z</time>
      </trkpt>
      <trkpt lat="47.663686769083142" lon="11.628979537636042">
        <ele>931.65478515625</ele>
        <time>2013-02-16T10:27:03Z</time>
      </trkpt>
      <trkpt lat="47.663608901202679" lon="11.629022369161248">
        <ele>934.05810546875</ele>
        <time>2013-02-16T10:27:13Z</time>
      </trkpt>
      <trkpt lat="47.663572775200009" lon="11.629124879837036">
        <ele>935.5</ele>
        <time>2013-02-16T10:27:23Z</time>
      </trkpt>
      <trkpt lat="47.66354494728148" lon="11.629214901477098">
        <ele>936.94189453125</ele>
        <time>2013-02-16T10:27:33Z</time>
      </trkpt>
      <trkpt lat="47.663500104099512" lon="11.62932344712317">
        <ele>938.384033203125</ele>
        <time>2013-02-16T10:27:43Z</time>
      </trkpt>
      <trkpt lat="47.66340421512723" lon="11.629388406872749">
        <ele>940.306884765625</ele>
        <time>2013-02-16T10:27:55Z</time>
      </trkpt>
      <trkpt lat="47.663320060819387" lon="11.629489995539188">
        <ele>941.748779296875</ele>
        <time>2013-02-16T10:28:06Z</time>
      </trkpt>
      <trkpt lat="47.663256609812379" lon="11.629562834277749">
        <ele>943.67138671875</ele>
        <time>2013-02-16T10:28:16Z</time>
      </trkpt>
      <trkpt lat="47.663196008652449" lon="11.629631901159883">
        <ele>945.11328125</ele>
        <time>2013-02-16T10:28:25Z</time>
      </trkpt>
      <trkpt lat="47.663112105801702" lon="11.629793923348188">
        <ele>947.997314453125</ele>
        <time>2013-02-16T10:28:41Z</time>
      </trkpt>
      <trkpt lat="47.663050331175327" lon="11.629844550043344">
        <ele>949.439208984375</ele>
        <time>2013-02-16T10:28:52Z</time>
      </trkpt>
      <trkpt lat="47.663025939837098" lon="11.629906659945846">
        <ele>950.400634765625</ele>
        <time>2013-02-16T10:29:00Z</time>
      </trkpt>
      <trkpt lat="47.663073129951954" lon="11.630022078752518">
        <ele>952.322998046875</ele>
        <time>2013-02-16T10:29:11Z</time>
      </trkpt>
      <trkpt lat="47.663152925670147" lon="11.630005231127143">
        <ele>954.245849609375</ele>
        <time>2013-02-16T10:29:22Z</time>
      </trkpt>
      <trkpt lat="47.663256274536252" lon="11.629997603595257">
        <ele>955.20703125</ele>
        <time>2013-02-16T10:29:33Z</time>
      </trkpt>
      <trkpt lat="47.663308577612042" lon="11.630006320774555">
        <ele>957.1298828125</ele>
        <time>2013-02-16T10:29:43Z</time>
      </trkpt>
      <trkpt lat="47.663387702777982" lon="11.629942366853356">
        <ele>958.09130859375</ele>
        <time>2013-02-16T10:29:53Z</time>
      </trkpt>
      <trkpt lat="47.663506641983986" lon="11.629872629418969">
        <ele>960.97509765625</ele>
        <time>2013-02-16T10:30:09Z</time>
      </trkpt>
      <trkpt lat="47.663561040535569" lon="11.629876317456365">
        <ele>961.455810546875</ele>
        <time>2013-02-16T10:30:19Z</time>
      </trkpt>
      <trkpt lat="47.663579899817705" lon="11.629877155646682">
        <ele>961.9365234375</ele>
        <time>2013-02-16T10:30:21Z</time>
      </trkpt>
      <trkpt lat="47.66368618234992" lon="11.629905067384243">
        <ele>962.897705078125</ele>
        <time>2013-02-16T10:30:29Z</time>
      </trkpt>
      <trkpt lat="47.663726834580302" lon="11.629958543926477">
        <ele>963.37841796875</ele>
        <time>2013-02-16T10:30:34Z</time>
      </trkpt>
      <trkpt lat="47.663782825693488" lon="11.630121488124132">
        <ele>964.8203125</ele>
        <time>2013-02-16T10:30:47Z</time>
      </trkpt>
      <trkpt lat="47.66384543851018" lon="11.630285270512104">
        <ele>965.78173828125</ele>
        <time>2013-02-16T10:31:01Z</time>
      </trkpt>
      <trkpt lat="47.66386597417295" lon="11.630321312695742">
        <ele>965.78173828125</ele>
        <time>2013-02-16T10:31:05Z</time>
      </trkpt>
      <trkpt lat="47.663894556462765" lon="11.630346542224288">
        <ele>966.26220703125</ele>
        <time>2013-02-16T10:31:09Z</time>
      </trkpt>
      <trkpt lat="47.663968820124865" lon="11.630348553881049">
        <ele>967.2236328125</ele>
        <time>2013-02-16T10:31:18Z</time>
      </trkpt>
      <trkpt lat="47.664054818451405" lon="11.630319049581885">
        <ele>967.2236328125</ele>
        <time>2013-02-16T10:31:28Z</time>
      </trkpt>
      <trkpt lat="47.664132099598646" lon="11.630266746506095">
        <ele>968.66552734375</ele>
        <time>2013-02-16T10:31:37Z</time>
      </trkpt>
      <trkpt lat="47.664227318018675" lon="11.630149483680725">
        <ele>970.107421875</ele>
        <time>2013-02-16T10:31:51Z</time>
      </trkpt>
      <trkpt lat="47.664351537823677" lon="11.63005543872714">
        <ele>972.510986328125</ele>
        <time>2013-02-16T10:32:07Z</time>
      </trkpt>
      <trkpt lat="47.664457149803638" lon="11.63017999380827">
        <ele>973.952880859375</ele>
        <time>2013-02-16T10:32:19Z</time>
      </trkpt>
      <trkpt lat="47.664481289684772" lon="11.630339417606592">
        <ele>975.394775390625</ele>
        <time>2013-02-16T10:32:33Z</time>
      </trkpt>
      <trkpt lat="47.664473745971918" lon="11.630365066230297">
        <ele>975.87548828125</ele>
        <time>2013-02-16T10:32:41Z</time>
      </trkpt>
      <trkpt lat="47.664465699344873" lon="11.630362886935472">
        <ele>975.87548828125</ele>
        <time>2013-02-16T10:34:20Z</time>
      </trkpt>
      <trkpt lat="47.664382634684443" lon="11.630463972687721">
        <ele>977.317626953125</ele>
        <time>2013-02-16T10:34:33Z</time>
      </trkpt>
      <trkpt lat="47.664339719340205" lon="11.630603615194559">
        <ele>978.759521484375</ele>
        <time>2013-02-16T10:34:48Z</time>
      </trkpt>
      <trkpt lat="47.664317591115832" lon="11.630683578550816">
        <ele>980.201416015625</ele>
        <time>2013-02-16T10:34:59Z</time>
      </trkpt>
      <trkpt lat="47.664299067109823" lon="11.630761027336121">
        <ele>981.643310546875</ele>
        <time>2013-02-16T10:35:10Z</time>
      </trkpt>
      <trkpt lat="47.664305437356234" lon="11.630801344290376">
        <ele>982.1240234375</ele>
        <time>2013-02-16T10:35:18Z</time>
      </trkpt>
      <trkpt lat="47.664326392114162" lon="11.63085381500423">
        <ele>983.56591796875</ele>
        <time>2013-02-16T10:35:32Z</time>
      </trkpt>
      <trkpt lat="47.664376348257065" lon="11.630855910480022">
        <ele>984.046630859375</ele>
        <time>2013-02-16T10:35:43Z</time>
      </trkpt>
      <trkpt lat="47.664409121498466" lon="11.630876278504729">
        <ele>985.488525390625</ele>
        <time>2013-02-16T10:35:52Z</time>
      </trkpt>
      <trkpt lat="47.664400320500135" lon="11.630930509418249">
        <ele>987.4111328125</ele>
        <time>2013-02-16T10:36:10Z</time>
      </trkpt>
      <trkpt lat="47.664413480088115" lon="11.630961941555142">
        <ele>988.372802734375</ele>
        <time>2013-02-16T10:36:23Z</time>
      </trkpt>
      <trkpt lat="47.664458239451051" lon="11.630973424762487">
        <ele>990.29541015625</ele>
        <time>2013-02-16T10:36:31Z</time>
      </trkpt>
      <trkpt lat="47.664513560011983" lon="11.630976945161819">
        <ele>991.7373046875</ele>
        <time>2013-02-16T10:36:42Z</time>
      </trkpt>
      <trkpt lat="47.664545914158225" lon="11.630996977910399">
        <ele>992.69873046875</ele>
        <time>2013-02-16T10:36:53Z</time>
      </trkpt>
      <trkpt lat="47.664554296061397" lon="11.631090939044952">
        <ele>995.101806640625</ele>
        <time>2013-02-16T10:37:06Z</time>
      </trkpt>
      <trkpt lat="47.66454272903502" lon="11.631186157464981">
        <ele>996.5439453125</ele>
        <time>2013-02-16T10:37:18Z</time>
      </trkpt>
      <trkpt lat="47.664543148130178" lon="11.631211470812559">
        <ele>997.505126953125</ele>
        <time>2013-02-16T10:37:21Z</time>
      </trkpt>
      <trkpt lat="47.664553122594953" lon="11.63126528263092">
        <ele>999.427734375</ele>
        <time>2013-02-16T10:37:30Z</time>
      </trkpt>
      <trkpt lat="47.664593942463398" lon="11.631349269300699">
        <ele>1000.86962890625</ele>
        <time>2013-02-16T10:37:42Z</time>
      </trkpt>
      <trkpt lat="47.66460039652884" lon="11.631394196301699">
        <ele>1001.8310546875</ele>
        <time>2013-02-16T10:37:47Z</time>
      </trkpt>
      <trkpt lat="47.664643144235015" lon="11.631516152992845">
        <ele>1004.234619140625</ele>
        <time>2013-02-16T10:38:03Z</time>
      </trkpt>
      <trkpt lat="47.664644652977586" lon="11.631614388898015">
        <ele>1006.6376953125</ele>
        <time>2013-02-16T10:38:15Z</time>
      </trkpt>
      <trkpt lat="47.664656220003963" lon="11.631705584004521">
        <ele>1008.079833984375</ele>
        <time>2013-02-16T10:38:26Z</time>
      </trkpt>
      <trkpt lat="47.664635349065065" lon="11.631782110780478">
        <ele>1010.48291015625</ele>
        <time>2013-02-16T10:38:37Z</time>
      </trkpt>
      <trkpt lat="47.664619842544198" lon="11.631787726655602">
        <ele>1010.002197265625</ele>
        <time>2013-02-16T10:39:20Z</time>
      </trkpt>
      <trkpt lat="47.664603078737855" lon="11.631838856264949">
        <ele>1011.4443359375</ele>
        <time>2013-02-16T10:39:44Z</time>
      </trkpt>
      <trkpt lat="47.664574412629008" lon="11.631971877068281">
        <ele>1013.366943359375</ele>
        <time>2013-02-16T10:39:58Z</time>
      </trkpt>
      <trkpt lat="47.664541807025671" lon="11.632082853466272">
        <ele>1015.770263671875</ele>
        <time>2013-02-16T10:40:11Z</time>
      </trkpt>
      <trkpt lat="47.66451733186841" lon="11.6321677621454">
        <ele>1016.7314453125</ele>
        <time>2013-02-16T10:40:19Z</time>
      </trkpt>
      <trkpt lat="47.66447776928544" lon="11.632261639460921">
        <ele>1018.17333984375</ele>
        <time>2013-02-16T10:40:29Z</time>
      </trkpt>
      <trkpt lat="47.664478439837694" lon="11.632403125986457">
        <ele>1021.0576171875</ele>
        <time>2013-02-16T10:40:42Z</time>
      </trkpt>
      <trkpt lat="47.664525043219328" lon="11.632534973323345">
        <ele>1023.4609375</ele>
        <time>2013-02-16T10:40:56Z</time>
      </trkpt>
      <trkpt lat="47.664551110938191" lon="11.632641758769751">
        <ele>1024.90283203125</ele>
        <time>2013-02-16T10:41:07Z</time>
      </trkpt>
      <trkpt lat="47.664555553346872" lon="11.632760614156723">
        <ele>1026.3447265625</ele>
        <time>2013-02-16T10:41:18Z</time>
      </trkpt>
      <trkpt lat="47.664566366001964" lon="11.632927497848868">
        <ele>1029.709228515625</ele>
        <time>2013-02-16T10:41:34Z</time>
      </trkpt>
      <trkpt lat="47.664571814239025" lon="11.633039060980082">
        <ele>1031.6318359375</ele>
        <time>2013-02-16T10:41:47Z</time>
      </trkpt>
      <trkpt lat="47.664586901664734" lon="11.633123299106956">
        <ele>1033.554443359375</ele>
        <time>2013-02-16T10:41:56Z</time>
      </trkpt>
      <trkpt lat="47.664590924978256" lon="11.633198400959373">
        <ele>1035.47705078125</ele>
        <time>2013-02-16T10:42:05Z</time>
      </trkpt>
      <trkpt lat="47.664574244990945" lon="11.633262522518635">
        <ele>1036.919189453125</ele>
        <time>2013-02-16T10:42:14Z</time>
      </trkpt>
      <trkpt lat="47.664565024897456" lon="11.633353298529983">
        <ele>1037.880615234375</ele>
        <time>2013-02-16T10:42:22Z</time>
      </trkpt>
      <trkpt lat="47.664558067917824" lon="11.633433597162366">
        <ele>1038.361328125</ele>
        <time>2013-02-16T10:42:32Z</time>
      </trkpt>
      <trkpt lat="47.66456326469779" lon="11.633504005149007">
        <ele>1039.80322265625</ele>
        <time>2013-02-16T10:42:42Z</time>
      </trkpt>
      <trkpt lat="47.664592266082764" lon="11.633628057315946">
        <ele>1042.687255859375</ele>
        <time>2013-02-16T10:42:53Z</time>
      </trkpt>
      <trkpt lat="47.664616908878088" lon="11.633691340684891">
        <ele>1044.129150390625</ele>
        <time>2013-02-16T10:43:02Z</time>
      </trkpt>
      <trkpt lat="47.664636606350541" lon="11.633736183866858">
        <ele>1044.609619140625</ele>
        <time>2013-02-16T10:43:10Z</time>
      </trkpt>
      <trkpt lat="47.664639204740524" lon="11.633853865787387">
        <ele>1046.532470703125</ele>
        <time>2013-02-16T10:43:20Z</time>
      </trkpt>
      <trkpt lat="47.66463409177959" lon="11.633921759203076">
        <ele>1047.49365234375</ele>
        <time>2013-02-16T10:43:30Z</time>
      </trkpt>
      <trkpt lat="47.664649095386267" lon="11.634024688974023">
        <ele>1048.935546875</ele>
        <time>2013-02-16T10:43:39Z</time>
      </trkpt>
      <trkpt lat="47.66465269960463" lon="11.634114878252149">
        <ele>1049.89697265625</ele>
        <time>2013-02-16T10:43:48Z</time>
      </trkpt>
      <trkpt lat="47.664654208347201" lon="11.634211353957653">
        <ele>1051.819580078125</ele>
        <time>2013-02-16T10:43:59Z</time>
      </trkpt>
      <trkpt lat="47.664651023223996" lon="11.634310344234109">
        <ele>1053.26171875</ele>
        <time>2013-02-16T10:44:09Z</time>
      </trkpt>
      <trkpt lat="47.664666697382927" lon="11.634408496320248">
        <ele>1054.22314453125</ele>
        <time>2013-02-16T10:44:17Z</time>
      </trkpt>
      <trkpt lat="47.66466879285872" lon="11.634519472718239">
        <ele>1056.1455078125</ele>
        <time>2013-02-16T10:44:25Z</time>
      </trkpt>
      <trkpt lat="47.664655717089772" lon="11.634659618139267">
        <ele>1058.548828125</ele>
        <time>2013-02-16T10:44:37Z</time>
      </trkpt>
      <trkpt lat="47.664638282731175" lon="11.634754920378327">
        <ele>1060.471435546875</ele>
        <time>2013-02-16T10:44:47Z</time>
      </trkpt>
      <trkpt lat="47.664633756503463" lon="11.634818119928241">
        <ele>1061.432861328125</ele>
        <time>2013-02-16T10:45:07Z</time>
      </trkpt>
      <trkpt lat="47.664596205577254" lon="11.634949464350939">
        <ele>1063.35546875</ele>
        <time>2013-02-16T10:45:21Z</time>
      </trkpt>
      <trkpt lat="47.664572820067406" lon="11.635030517354608">
        <ele>1064.316650390625</ele>
        <time>2013-02-16T10:45:28Z</time>
      </trkpt>
      <trkpt lat="47.664550608024001" lon="11.635161275044084">
        <ele>1065.7587890625</ele>
        <time>2013-02-16T10:45:38Z</time>
      </trkpt>
      <trkpt lat="47.664481960237026" lon="11.635225983336568">
        <ele>1068.642822265625</ele>
        <time>2013-02-16T10:45:50Z</time>
      </trkpt>
      <trkpt lat="47.664435775950551" lon="11.635302845388651">
        <ele>1070.084716796875</ele>
        <time>2013-02-16T10:46:02Z</time>
      </trkpt>
      <trkpt lat="47.664432339370251" lon="11.635399907827377">
        <ele>1071.526611328125</ele>
        <time>2013-02-16T10:46:11Z</time>
      </trkpt>
      <trkpt lat="47.66444256529212" lon="11.635479535907507">
        <ele>1072.96875</ele>
        <time>2013-02-16T10:46:22Z</time>
      </trkpt>
      <trkpt lat="47.664449941366911" lon="11.635549440979958">
        <ele>1074.41064453125</ele>
        <time>2013-02-16T10:46:31Z</time>
      </trkpt>
      <trkpt lat="47.664420353248715" lon="11.635568048804998">
        <ele>1075.8525390625</ele>
        <time>2013-02-16T10:46:42Z</time>
      </trkpt>
      <trkpt lat="47.664405349642038" lon="11.635567545890808">
        <ele>1077.294677734375</ele>
        <time>2013-02-16T10:46:51Z</time>
      </trkpt>
      <trkpt lat="47.664404762908816" lon="11.635666871443391">
        <ele>1078.255859375</ele>
        <time>2013-02-16T10:47:01Z</time>
      </trkpt>
      <trkpt lat="47.664436446502805" lon="11.635760748758912">
        <ele>1080.6591796875</ele>
        <time>2013-02-16T10:47:13Z</time>
      </trkpt>
      <trkpt lat="47.664432423189282" lon="11.635843478143215">
        <ele>1082.10107421875</ele>
        <time>2013-02-16T10:47:25Z</time>
      </trkpt>
      <trkpt lat="47.664429070428014" lon="11.635839957743883">
        <ele>1082.10107421875</ele>
        <time>2013-02-16T10:47:39Z</time>
      </trkpt>
      <trkpt lat="47.664434434846044" lon="11.635837024077773">
        <ele>1082.581787109375</ele>
        <time>2013-02-16T10:47:52Z</time>
      </trkpt>
      <trkpt lat="47.664410127326846" lon="11.635853620246053">
        <ele>1084.02392578125</ele>
        <time>2013-02-16T10:48:02Z</time>
      </trkpt>
      <trkpt lat="47.664390346035361" lon="11.635841215029359">
        <ele>1083.54296875</ele>
        <time>2013-02-16T10:48:13Z</time>
      </trkpt>
      <trkpt lat="47.664398979395628" lon="11.635824786499143">
        <ele>1084.02392578125</ele>
        <time>2013-02-16T10:48:37Z</time>
      </trkpt>
      <trkpt lat="47.664398979395628" lon="11.635826379060745">
        <ele>1084.02392578125</ele>
        <time>2013-02-16T10:49:40Z</time>
      </trkpt>
      <trkpt lat="47.664401410147548" lon="11.635826043784618">
        <ele>1083.54296875</ele>
        <time>2013-02-16T10:49:58Z</time>
      </trkpt>
      <trkpt lat="47.664409456774592" lon="11.635837443172932">
        <ele>1083.54296875</ele>
        <time>2013-02-16T10:50:45Z</time>
      </trkpt>
      <trkpt lat="47.664409792050719" lon="11.635840963572264">
        <ele>1083.54296875</ele>
        <time>2013-02-16T10:51:48Z</time>
      </trkpt>
      <trkpt lat="47.664400907233357" lon="11.635839454829693">
        <ele>1083.54296875</ele>
        <time>2013-02-16T10:53:23Z</time>
      </trkpt>
      <trkpt lat="47.664355728775263" lon="11.635891925543547">
        <ele>1085.946533203125</ele>
        <time>2013-02-16T10:53:35Z</time>
      </trkpt>
      <trkpt lat="47.664378527551889" lon="11.636004410684109">
        <ele>1086.90771484375</ele>
        <time>2013-02-16T10:53:51Z</time>
      </trkpt>
      <trkpt lat="47.664388166740537" lon="11.636030226945877">
        <ele>1088.83056640625</ele>
        <time>2013-02-16T10:53:54Z</time>
      </trkpt>
      <trkpt lat="47.664440888911486" lon="11.636071382090449">
        <ele>1090.2724609375</ele>
        <time>2013-02-16T10:54:04Z</time>
      </trkpt>
      <trkpt lat="47.664458993822336" lon="11.636186297982931">
        <ele>1092.67578125</ele>
        <time>2013-02-16T10:54:21Z</time>
      </trkpt>
      <trkpt lat="47.664443822577596" lon="11.636198535561562">
        <ele>1094.11767578125</ele>
        <time>2013-02-16T10:54:24Z</time>
      </trkpt>
      <trkpt lat="47.664361679926515" lon="11.636170791462064">
        <ele>1096.52099609375</ele>
        <time>2013-02-16T10:54:39Z</time>
      </trkpt>
      <trkpt lat="47.664276184514165" lon="11.636162241920829">
        <ele>1098.924072265625</ele>
        <time>2013-02-16T10:54:54Z</time>
      </trkpt>
      <trkpt lat="47.664249530062079" lon="11.636151932179928">
        <ele>1100.846923828125</ele>
        <time>2013-02-16T10:55:07Z</time>
      </trkpt>
      <trkpt lat="47.664177780970931" lon="11.636196607723832">
        <ele>1103.73095703125</ele>
        <time>2013-02-16T10:55:20Z</time>
      </trkpt>
      <trkpt lat="47.664135787636042" lon="11.636283025145531">
        <ele>1106.61474609375</ele>
        <time>2013-02-16T10:55:33Z</time>
      </trkpt>
      <trkpt lat="47.664075270295143" lon="11.636300710961223">
        <ele>1109.01806640625</ele>
        <time>2013-02-16T10:55:46Z</time>
      </trkpt>
      <trkpt lat="47.664091531187296" lon="11.636382937431335">
        <ele>1111.42138671875</ele>
        <time>2013-02-16T10:55:57Z</time>
      </trkpt>
      <trkpt lat="47.664047693833709" lon="11.636411771178246">
        <ele>1113.343994140625</ele>
        <time>2013-02-16T10:56:07Z</time>
      </trkpt>
      <trkpt lat="47.664021793752909" lon="11.636468935757875">
        <ele>1114.30517578125</ele>
        <time>2013-02-16T10:56:18Z</time>
      </trkpt>
      <trkpt lat="47.664046101272106" lon="11.636540349572897">
        <ele>1116.22802734375</ele>
        <time>2013-02-16T10:56:28Z</time>
      </trkpt>
      <trkpt lat="47.664008382707834" lon="11.636559711769223">
        <ele>1117.189453125</ele>
        <time>2013-02-16T10:56:37Z</time>
      </trkpt>
      <trkpt lat="47.663988349959254" lon="11.636578906327486">
        <ele>1118.63134765625</ele>
        <time>2013-02-16T10:56:46Z</time>
      </trkpt>
      <trkpt lat="47.663989691063762" lon="11.636580247431993">
        <ele>1118.150634765625</ele>
        <time>2013-02-16T10:57:00Z</time>
      </trkpt>
      <trkpt lat="47.663987344130874" lon="11.636578235775232">
        <ele>1119.112060546875</ele>
        <time>2013-02-16T10:57:12Z</time>
      </trkpt>
      <trkpt lat="47.663978710770607" lon="11.636570105329156">
        <ele>1120.553955078125</ele>
        <time>2013-02-16T10:57:26Z</time>
      </trkpt>
      <trkpt lat="47.663926491513848" lon="11.636546971276402">
        <ele>1121.995849609375</ele>
        <time>2013-02-16T10:57:34Z</time>
      </trkpt>
      <trkpt lat="47.66388307325542" lon="11.636540265753865">
        <ele>1122.4765625</ele>
        <time>2013-02-16T10:57:45Z</time>
      </trkpt>
      <trkpt lat="47.663839319720864" lon="11.63658494129777">
        <ele>1125.3603515625</ele>
        <time>2013-02-16T10:57:57Z</time>
      </trkpt>
      <trkpt lat="47.663805456832051" lon="11.636583684012294">
        <ele>1126.32177734375</ele>
        <time>2013-02-16T10:58:07Z</time>
      </trkpt>
      <trkpt lat="47.66376044601202" lon="11.636573961004615">
        <ele>1128.244384765625</ele>
        <time>2013-02-16T10:58:14Z</time>
      </trkpt>
      <trkpt lat="47.663733791559935" lon="11.636587372049689">
        <ele>1129.20556640625</ele>
        <time>2013-02-16T10:58:26Z</time>
      </trkpt>
      <trkpt lat="47.663727002218366" lon="11.636631796136498">
        <ele>1129.686279296875</ele>
        <time>2013-02-16T10:58:34Z</time>
      </trkpt>
      <trkpt lat="47.663764972239733" lon="11.636683512479067">
        <ele>1131.60888671875</ele>
        <time>2013-02-16T10:58:45Z</time>
      </trkpt>
      <trkpt lat="47.663809899240732" lon="11.636764397844672">
        <ele>1133.051025390625</ele>
        <time>2013-02-16T10:58:59Z</time>
      </trkpt>
      <trkpt lat="47.66379514709115" lon="11.636810414493084">
        <ele>1134.4931640625</ele>
        <time>2013-02-16T10:59:08Z</time>
      </trkpt>
      <trkpt lat="47.663795230910182" lon="11.636807648465037">
        <ele>1135.454345703125</ele>
        <time>2013-02-16T10:59:16Z</time>
      </trkpt>
      <trkpt lat="47.663786513730884" lon="11.636820388957858">
        <ele>1135.454345703125</ele>
        <time>2013-02-16T10:59:27Z</time>
      </trkpt>
      <trkpt lat="47.663731025531888" lon="11.636787531897426">
        <ele>1137.857666015625</ele>
        <time>2013-02-16T10:59:38Z</time>
      </trkpt>
      <trkpt lat="47.663718787953258" lon="11.636781077831984">
        <ele>1138.819091796875</ele>
        <time>2013-02-16T10:59:49Z</time>
      </trkpt>
      <trkpt lat="47.663696575909853" lon="11.636772863566875">
        <ele>1139.7802734375</ele>
        <time>2013-02-16T10:59:53Z</time>
      </trkpt>
      <trkpt lat="47.663687607273459" lon="11.636831620708108">
        <ele>1141.22216796875</ele>
        <time>2013-02-16T11:00:02Z</time>
      </trkpt>
      <trkpt lat="47.663747286424041" lon="11.636927174404263">
        <ele>1143.62548828125</ele>
        <time>2013-02-16T11:00:14Z</time>
      </trkpt>
      <trkpt lat="47.663763044402003" lon="11.636937065050006">
        <ele>1145.0673828125</ele>
        <time>2013-02-16T11:00:17Z</time>
      </trkpt>
      <trkpt lat="47.663823561742902" lon="11.6370237339288">
        <ele>1147.951416015625</ele>
        <time>2013-02-16T11:00:33Z</time>
      </trkpt>
      <trkpt lat="47.663904866203666" lon="11.63712976500392">
        <ele>1150.83544921875</ele>
        <time>2013-02-16T11:00:48Z</time>
      </trkpt>
      <trkpt lat="47.663926156237721" lon="11.637220038101077">
        <ele>1152.758056640625</ele>
        <time>2013-02-16T11:01:01Z</time>
      </trkpt>
      <trkpt lat="47.663903189823031" lon="11.637206878513098">
        <ele>1153.23876953125</ele>
        <time>2013-02-16T11:01:11Z</time>
      </trkpt>
      <trkpt lat="47.663851222023368" lon="11.637180726975203">
        <ele>1156.12255859375</ele>
        <time>2013-02-16T11:01:22Z</time>
      </trkpt>
      <trkpt lat="47.663792464882135" lon="11.637200089171529">
        <ele>1157.083984375</ele>
        <time>2013-02-16T11:01:34Z</time>
      </trkpt>
      <trkpt lat="47.663752231746912" lon="11.63719967007637">
        <ele>1159.4873046875</ele>
        <time>2013-02-16T11:01:47Z</time>
      </trkpt>
      <trkpt lat="47.66374820843339" lon="11.637229090556502">
        <ele>1159.9677734375</ele>
        <time>2013-02-16T11:02:00Z</time>
      </trkpt>
      <trkpt lat="47.663788190111518" lon="11.637263540178537">
        <ele>1161.890625</ele>
        <time>2013-02-16T11:02:14Z</time>
      </trkpt>
      <trkpt lat="47.663823394104838" lon="11.637291368097067">
        <ele>1162.37109375</ele>
        <time>2013-02-16T11:02:26Z</time>
      </trkpt>
      <trkpt lat="47.663819370791316" lon="11.637290026992559">
        <ele>1162.851806640625</ele>
        <time>2013-02-16T11:02:41Z</time>
      </trkpt>
      <trkpt lat="47.66380000859499" lon="11.637292373925447">
        <ele>1163.33251953125</ele>
        <time>2013-02-16T11:02:52Z</time>
      </trkpt>
      <trkpt lat="47.663787603378296" lon="11.637297235429287">
        <ele>1164.2939453125</ele>
        <time>2013-02-16T11:03:04Z</time>
      </trkpt>
      <trkpt lat="47.663806462660432" lon="11.637332187965512">
        <ele>1164.774658203125</ele>
        <time>2013-02-16T11:03:14Z</time>
      </trkpt>
      <trkpt lat="47.663839990273118" lon="11.637432603165507">
        <ele>1167.658447265625</ele>
        <time>2013-02-16T11:03:28Z</time>
      </trkpt>
      <trkpt lat="47.663846109062433" lon="11.637581633403897">
        <ele>1170.54248046875</ele>
        <time>2013-02-16T11:03:43Z</time>
      </trkpt>
      <trkpt lat="47.663822053000331" lon="11.637645671144128">
        <ele>1173.426513671875</ele>
        <time>2013-02-16T11:03:54Z</time>
      </trkpt>
      <trkpt lat="47.663805792108178" lon="11.637662015855312">
        <ele>1173.426513671875</ele>
        <time>2013-02-16T11:04:02Z</time>
      </trkpt>
      <trkpt lat="47.663794979453087" lon="11.637636786326766">
        <ele>1174.3876953125</ele>
        <time>2013-02-16T11:04:11Z</time>
      </trkpt>
      <trkpt lat="47.663789028301835" lon="11.637627817690372">
        <ele>1174.868408203125</ele>
        <time>2013-02-16T11:04:20Z</time>
      </trkpt>
      <trkpt lat="47.663779305294156" lon="11.63761449046433">
        <ele>1174.868408203125</ele>
        <time>2013-02-16T11:04:36Z</time>
      </trkpt>
      <trkpt lat="47.663765475153923" lon="11.637537209317088">
        <ele>1176.791015625</ele>
        <time>2013-02-16T11:04:47Z</time>
      </trkpt>
      <trkpt lat="47.663765223696828" lon="11.63754123263061">
        <ele>1176.791015625</ele>
        <time>2013-02-16T11:05:09Z</time>
      </trkpt>
      <trkpt lat="47.663764888420701" lon="11.637541651725769">
        <ele>1175.82958984375</ele>
        <time>2013-02-16T11:05:21Z</time>
      </trkpt>
      <trkpt lat="47.663765223696828" lon="11.637539807707071">
        <ele>1175.82958984375</ele>
        <time>2013-02-16T11:05:43Z</time>
      </trkpt>
      <trkpt lat="47.663757093250751" lon="11.637535784393549">
        <ele>1176.791015625</ele>
        <time>2013-02-16T11:05:59Z</time>
      </trkpt>
      <trkpt lat="47.663705796003342" lon="11.637549782171845">
        <ele>1177.752197265625</ele>
        <time>2013-02-16T11:06:10Z</time>
      </trkpt>
      <trkpt lat="47.663727253675461" lon="11.637597726657987">
        <ele>1178.713623046875</ele>
        <time>2013-02-16T11:06:21Z</time>
      </trkpt>
      <trkpt lat="47.663722056895494" lon="11.637611892074347">
        <ele>1179.6748046875</ele>
        <time>2013-02-16T11:06:33Z</time>
      </trkpt>
      <trkpt lat="47.66371987760067" lon="11.637634020298719">
        <ele>1180.15576171875</ele>
        <time>2013-02-16T11:06:42Z</time>
      </trkpt>
      <trkpt lat="47.663707807660103" lon="11.637618513777852">
        <ele>1180.15576171875</ele>
        <time>2013-02-16T11:06:54Z</time>
      </trkpt>
      <trkpt lat="47.663660533726215" lon="11.637593870982528">
        <ele>1182.078369140625</ele>
        <time>2013-02-16T11:07:05Z</time>
      </trkpt>
      <trkpt lat="47.663642931729555" lon="11.63758079521358">
        <ele>1181.59765625</ele>
        <time>2013-02-16T11:07:14Z</time>
      </trkpt>
      <trkpt lat="47.663612589240074" lon="11.637598145753145">
        <ele>1182.078369140625</ele>
        <time>2013-02-16T11:07:25Z</time>
      </trkpt>
      <trkpt lat="47.663640333339572" lon="11.637642150744796">
        <ele>1183.03955078125</ele>
        <time>2013-02-16T11:07:35Z</time>
      </trkpt>
      <trkpt lat="47.663642931729555" lon="11.637655394151807">
        <ele>1183.03955078125</ele>
        <time>2013-02-16T11:07:49Z</time>
      </trkpt>
      <trkpt lat="47.663643602281809" lon="11.637656399980187">
        <ele>1182.55908203125</ele>
        <time>2013-02-16T11:08:31Z</time>
      </trkpt>
      <trkpt lat="47.663678890094161" lon="11.637717923149467">
        <ele>1184.481689453125</ele>
        <time>2013-02-16T11:08:57Z</time>
      </trkpt>
      <trkpt lat="47.663687691092491" lon="11.637747678905725">
        <ele>1184.0009765625</ele>
        <time>2013-02-16T11:09:05Z</time>
      </trkpt>
      <trkpt lat="47.663681991398335" lon="11.637795958667994">
        <ele>1186.404296875</ele>
        <time>2013-02-16T11:09:14Z</time>
      </trkpt>
      <trkpt lat="47.663656594231725" lon="11.637891680002213">
        <ele>1188.326904296875</ele>
        <time>2013-02-16T11:09:26Z</time>
      </trkpt>
      <trkpt lat="47.663651145994663" lon="11.63787541911006">
        <ele>1188.8076171875</ele>
        <time>2013-02-16T11:09:38Z</time>
      </trkpt>
      <trkpt lat="47.663635471835732" lon="11.637862427160144">
        <ele>1189.768798828125</ele>
        <time>2013-02-16T11:09:50Z</time>
      </trkpt>
      <trkpt lat="47.663613511249423" lon="11.637898469343781">
        <ele>1190.72998046875</ele>
        <time>2013-02-16T11:09:59Z</time>
      </trkpt>
      <trkpt lat="47.663584593683481" lon="11.638000393286347">
        <ele>1193.13330078125</ele>
        <time>2013-02-16T11:10:14Z</time>
      </trkpt>
      <trkpt lat="47.663558442145586" lon="11.638001063838601">
        <ele>1194.5751953125</ele>
        <time>2013-02-16T11:10:28Z</time>
      </trkpt>
      <trkpt lat="47.663542265072465" lon="11.637963177636266">
        <ele>1195.53662109375</ele>
        <time>2013-02-16T11:10:36Z</time>
      </trkpt>
      <trkpt lat="47.663528183475137" lon="11.637871144339442">
        <ele>1195.53662109375</ele>
        <time>2013-02-16T11:10:46Z</time>
      </trkpt>
      <trkpt lat="47.663511168211699" lon="11.637837281450629">
        <ele>1196.498291015625</ele>
        <time>2013-02-16T11:10:54Z</time>
      </trkpt>
      <trkpt lat="47.663511922582984" lon="11.637834934517741">
        <ele>1196.498291015625</ele>
        <time>2013-02-16T11:11:20Z</time>
      </trkpt>
      <trkpt lat="47.663493482396007" lon="11.63780995644629">
        <ele>1197.45947265625</ele>
        <time>2013-02-16T11:12:10Z</time>
      </trkpt>
      <trkpt lat="47.663481999188662" lon="11.637821858748794">
        <ele>1198.9013671875</ele>
        <time>2013-02-16T11:12:20Z</time>
      </trkpt>
      <trkpt lat="47.663466744124889" lon="11.637885142117739">
        <ele>1198.420654296875</ele>
        <time>2013-02-16T11:12:29Z</time>
      </trkpt>
      <trkpt lat="47.66345651820302" lon="11.637895032763481">
        <ele>1198.9013671875</ele>
        <time>2013-02-16T11:12:37Z</time>
      </trkpt>
      <trkpt lat="47.66339398920536" lon="11.637861337512732">
        <ele>1198.9013671875</ele>
        <time>2013-02-16T11:12:49Z</time>
      </trkpt>
      <trkpt lat="47.663350738584995" lon="11.637889919802547">
        <ele>1201.3046875</ele>
        <time>2013-02-16T11:13:00Z</time>
      </trkpt>
      <trkpt lat="47.663310673087835" lon="11.637898217886686">
        <ele>1202.74658203125</ele>
        <time>2013-02-16T11:13:11Z</time>
      </trkpt>
      <trkpt lat="47.663254933431745" lon="11.637917077168822">
        <ele>1203.227294921875</ele>
        <time>2013-02-16T11:13:21Z</time>
      </trkpt>
      <trkpt lat="47.663234230130911" lon="11.637932499870658">
        <ele>1204.669189453125</ele>
        <time>2013-02-16T11:13:30Z</time>
      </trkpt>
      <trkpt lat="47.663244791328907" lon="11.637970637530088">
        <ele>1205.14990234375</ele>
        <time>2013-02-16T11:13:39Z</time>
      </trkpt>
      <trkpt lat="47.663303799927235" lon="11.638026544824243">
        <ele>1206.111083984375</ele>
        <time>2013-02-16T11:13:49Z</time>
      </trkpt>
      <trkpt lat="47.663304889574647" lon="11.638043811544776">
        <ele>1207.55322265625</ele>
        <time>2013-02-16T11:13:57Z</time>
      </trkpt>
      <trkpt lat="47.663288377225399" lon="11.638067867606878">
        <ele>1208.514404296875</ele>
        <time>2013-02-16T11:14:05Z</time>
      </trkpt>
      <trkpt lat="47.663266165181994" lon="11.638079602271318">
        <ele>1209.956298828125</ele>
        <time>2013-02-16T11:14:25Z</time>
      </trkpt>
      <trkpt lat="47.66319215297699" lon="11.638142969459295">
        <ele>1212.840576171875</ele>
        <time>2013-02-16T11:14:39Z</time>
      </trkpt>
      <trkpt lat="47.663159379735589" lon="11.638163924217224">
        <ele>1213.8017578125</ele>
        <time>2013-02-16T11:14:44Z</time>
      </trkpt>
      <trkpt lat="47.663103807717562" lon="11.638213125988841">
        <ele>1215.243896484375</ele>
        <time>2013-02-16T11:14:54Z</time>
      </trkpt>
      <trkpt lat="47.663086540997028" lon="11.638252437114716">
        <ele>1216.205078125</ele>
        <time>2013-02-16T11:15:09Z</time>
      </trkpt>
      <trkpt lat="47.663033399730921" lon="11.638345811516047">
        <ele>1218.127685546875</ele>
        <time>2013-02-16T11:15:22Z</time>
      </trkpt>
      <trkpt lat="47.662977827712893" lon="11.638404065743089">
        <ele>1220.05029296875</ele>
        <time>2013-02-16T11:15:33Z</time>
      </trkpt>
      <trkpt lat="47.662901720032096" lon="11.638458799570799">
        <ele>1221.4921875</ele>
        <time>2013-02-16T11:15:46Z</time>
      </trkpt>
      <trkpt lat="47.662837179377675" lon="11.638485370203853">
        <ele>1223.4150390625</ele>
        <time>2013-02-16T11:15:58Z</time>
      </trkpt>
      <trkpt lat="47.662802897393703" lon="11.638557203114033">
        <ele>1225.818115234375</ele>
        <time>2013-02-16T11:16:10Z</time>
      </trkpt>
      <trkpt lat="47.662749839946628" lon="11.638620318844914">
        <ele>1228.702392578125</ele>
        <time>2013-02-16T11:16:22Z</time>
      </trkpt>
      <trkpt lat="47.662692172452807" lon="11.638653427362442">
        <ele>1229.66357421875</ele>
        <time>2013-02-16T11:16:33Z</time>
      </trkpt>
      <trkpt lat="47.662666859105229" lon="11.638702796772122">
        <ele>1231.586181640625</ele>
        <time>2013-02-16T11:16:53Z</time>
      </trkpt>
      <trkpt lat="47.662606006488204" lon="11.638787537813187">
        <ele>1233.5087890625</ele>
        <time>2013-02-16T11:17:05Z</time>
      </trkpt>
      <trkpt lat="47.662584129720926" lon="11.638804553076625">
        <ele>1233.5087890625</ele>
        <time>2013-02-16T11:17:16Z</time>
      </trkpt>
      <trkpt lat="47.662578178569674" lon="11.638806061819196">
        <ele>1233.5087890625</ele>
        <time>2013-02-16T11:17:27Z</time>
      </trkpt>
      <trkpt lat="47.662568539381027" lon="11.638816120103002">
        <ele>1234.950927734375</ele>
        <time>2013-02-16T11:17:35Z</time>
      </trkpt>
      <trkpt lat="47.662557391449809" lon="11.638834727928042">
        <ele>1235.431396484375</ele>
        <time>2013-02-16T11:17:39Z</time>
      </trkpt>
      <trkpt lat="47.662529060617089" lon="11.638842355459929">
        <ele>1236.873291015625</ele>
        <time>2013-02-16T11:17:50Z</time>
      </trkpt>
      <trkpt lat="47.662451276555657" lon="11.63881846703589">
        <ele>1238.796142578125</ele>
        <time>2013-02-16T11:18:04Z</time>
      </trkpt>
      <trkpt lat="47.662422610446811" lon="11.63883414119482">
        <ele>1238.796142578125</ele>
        <time>2013-02-16T11:18:20Z</time>
      </trkpt>
      <trkpt lat="47.662401152774692" lon="11.638834895566106">
        <ele>1240.718505859375</ele>
        <time>2013-02-16T11:18:43Z</time>
      </trkpt>
      <trkpt lat="47.662366954609752" lon="11.638904633000493">
        <ele>1242.641357421875</ele>
        <time>2013-02-16T11:18:52Z</time>
      </trkpt>
      <trkpt lat="47.662333343178034" lon="11.638937825337052">
        <ele>1243.6025390625</ele>
        <time>2013-02-16T11:19:00Z</time>
      </trkpt>
      <trkpt lat="47.662303587421775" lon="11.63902759552002">
        <ele>1246.48681640625</ele>
        <time>2013-02-16T11:19:09Z</time>
      </trkpt>
      <trkpt lat="47.66228724271059" lon="11.639104541391134">
        <ele>1247.9287109375</ele>
        <time>2013-02-16T11:19:17Z</time>
      </trkpt>
      <trkpt lat="47.662288919091225" lon="11.639190288260579">
        <ele>1250.33203125</ele>
        <time>2013-02-16T11:19:26Z</time>
      </trkpt>
      <trkpt lat="47.662252960726619" lon="11.639273855835199">
        <ele>1252.735107421875</ele>
        <time>2013-02-16T11:19:38Z</time>
      </trkpt>
      <trkpt lat="47.662194203585386" lon="11.639389777556062">
        <ele>1255.138427734375</ele>
        <time>2013-02-16T11:19:52Z</time>
      </trkpt>
      <trkpt lat="47.662180960178375" lon="11.639485750347376">
        <ele>1257.06103515625</ele>
        <time>2013-02-16T11:20:02Z</time>
      </trkpt>
      <trkpt lat="47.662182804197073" lon="11.639502514153719">
        <ele>1257.06103515625</ele>
        <time>2013-02-16T11:20:16Z</time>
      </trkpt>
      <trkpt lat="47.662168052047491" lon="11.639497652649879">
        <ele>1257.541748046875</ele>
        <time>2013-02-16T11:20:27Z</time>
      </trkpt>
      <trkpt lat="47.662173081189394" lon="11.63949522189796">
        <ele>1257.06103515625</ele>
        <time>2013-02-16T11:20:38Z</time>
      </trkpt>
      <trkpt lat="47.662171656265855" lon="11.639504274353385">
        <ele>1257.06103515625</ele>
        <time>2013-02-16T11:21:11Z</time>
      </trkpt>
      <trkpt lat="47.662172159180045" lon="11.639502430334687">
        <ele>1257.06103515625</ele>
        <time>2013-02-16T11:21:22Z</time>
      </trkpt>
      <trkpt lat="47.662175428122282" lon="11.639506537467241">
        <ele>1257.06103515625</ele>
        <time>2013-02-16T11:21:56Z</time>
      </trkpt>
      <trkpt lat="47.662176769226789" lon="11.639491282403469">
        <ele>1256.099609375</ele>
        <time>2013-02-16T11:22:07Z</time>
      </trkpt>
      <trkpt lat="47.662179870530963" lon="11.639478374272585">
        <ele>1257.06103515625</ele>
        <time>2013-02-16T11:22:22Z</time>
      </trkpt>
      <trkpt lat="47.662174673750997" lon="11.639477200806141">
        <ele>1255.138427734375</ele>
        <time>2013-02-16T11:23:39Z</time>
      </trkpt>
      <trkpt lat="47.662152126431465" lon="11.639468399807811">
        <ele>1254.65771484375</ele>
        <time>2013-02-16T11:23:56Z</time>
      </trkpt>
      <trkpt lat="47.662157071754336" lon="11.63949036039412">
        <ele>1255.619140625</ele>
        <time>2013-02-16T11:24:44Z</time>
      </trkpt>
      <trkpt lat="47.662153383716941" lon="11.639506369829178">
        <ele>1256.099609375</ele>
        <time>2013-02-16T11:26:10Z</time>
      </trkpt>
      <trkpt lat="47.662154724821448" lon="11.639507040381432">
        <ele>1255.619140625</ele>
        <time>2013-02-16T11:26:34Z</time>
      </trkpt>
      <trkpt lat="47.66215430572629" lon="11.639512656256557">
        <ele>1255.138427734375</ele>
        <time>2013-02-16T11:30:34Z</time>
      </trkpt>
      <trkpt lat="47.662141481414437" lon="11.63951919414103">
        <ele>1253.696533203125</ele>
        <time>2013-02-16T11:33:29Z</time>
      </trkpt>
      <trkpt lat="47.662148019298911" lon="11.639518355950713">
        <ele>1254.17724609375</ele>
        <time>2013-02-16T11:33:52Z</time>
      </trkpt>
      <trkpt lat="47.662149611860514" lon="11.63951282389462">
        <ele>1254.17724609375</ele>
        <time>2013-02-16T11:34:34Z</time>
      </trkpt>
      <trkpt lat="47.662149025127292" lon="11.639512991532683">
        <ele>1253.696533203125</ele>
        <time>2013-02-16T11:35:38Z</time>
      </trkpt>
      <trkpt lat="47.662143241614103" lon="11.639523888006806">
        <ele>1253.696533203125</ele>
        <time>2013-02-16T11:36:33Z</time>
      </trkpt>
      <trkpt lat="47.66212941147387" lon="11.639553140848875">
        <ele>1253.696533203125</ele>
        <time>2013-02-16T11:38:17Z</time>
      </trkpt>
      <trkpt lat="47.662121783941984" lon="11.639585578814149">
        <ele>1253.696533203125</ele>
        <time>2013-02-16T11:38:27Z</time>
      </trkpt>
      <trkpt lat="47.66210594214499" lon="11.639603180810809">
        <ele>1254.17724609375</ele>
        <time>2013-02-16T11:38:38Z</time>
      </trkpt>
      <trkpt lat="47.662074761465192" lon="11.639623213559389">
        <ele>1255.619140625</ele>
        <time>2013-02-16T11:38:53Z</time>
      </trkpt>
      <trkpt lat="47.662019021809101" lon="11.639670068398118">
        <ele>1256.580322265625</ele>
        <time>2013-02-16T11:39:03Z</time>
      </trkpt>
      <trkpt lat="47.661975519731641" lon="11.639711307361722">
        <ele>1258.5029296875</ele>
        <time>2013-02-16T11:39:13Z</time>
      </trkpt>
      <trkpt lat="47.661940986290574" lon="11.639774339273572">
        <ele>1260.42578125</ele>
        <time>2013-02-16T11:39:24Z</time>
      </trkpt>
      <trkpt lat="47.661916678771377" lon="11.639807699248195">
        <ele>1261.38720703125</ele>
        <time>2013-02-16T11:39:34Z</time>
      </trkpt>
      <trkpt lat="47.661865297704935" lon="11.639861427247524">
        <ele>1263.309814453125</ele>
        <time>2013-02-16T11:39:44Z</time>
      </trkpt>
      <trkpt lat="47.66181324608624" lon="11.639926806092262">
        <ele>1264.27099609375</ele>
        <time>2013-02-16T11:39:54Z</time>
      </trkpt>
      <trkpt lat="47.661806037649512" lon="11.64001171477139">
        <ele>1265.713134765625</ele>
        <time>2013-02-16T11:40:06Z</time>
      </trkpt>
      <trkpt lat="47.661765720695257" lon="11.640144903212786">
        <ele>1268.596923828125</ele>
        <time>2013-02-16T11:40:26Z</time>
      </trkpt>
      <trkpt lat="47.661696402356029" lon="11.640261495485902">
        <ele>1271.000244140625</ele>
        <time>2013-02-16T11:40:46Z</time>
      </trkpt>
      <trkpt lat="47.661612499505281" lon="11.640370041131973">
        <ele>1273.884033203125</ele>
        <time>2013-02-16T11:41:07Z</time>
      </trkpt>
      <trkpt lat="47.661535888910294" lon="11.640430223196745">
        <ele>1275.325927734375</ele>
        <time>2013-02-16T11:41:24Z</time>
      </trkpt>
      <trkpt lat="47.66143455170095" lon="11.640558717772365">
        <ele>1278.210205078125</ele>
        <time>2013-02-16T11:41:44Z</time>
      </trkpt>
      <trkpt lat="47.661350732669234" lon="11.640673968940973">
        <ele>1279.652099609375</ele>
        <time>2013-02-16T11:42:01Z</time>
      </trkpt>
      <trkpt lat="47.661229111254215" lon="11.640797602012753">
        <ele>1282.055419921875</ele>
        <time>2013-02-16T11:42:23Z</time>
      </trkpt>
      <trkpt lat="47.661163564771414" lon="11.640983512625098">
        <ele>1284.939453125</ele>
        <time>2013-02-16T11:42:41Z</time>
      </trkpt>
      <trkpt lat="47.66110816039145" lon="11.641238741576672">
        <ele>1288.303955078125</ele>
        <time>2013-02-16T11:43:07Z</time>
      </trkpt>
      <trkpt lat="47.661083098500967" lon="11.641430435702205">
        <ele>1289.745849609375</ele>
        <time>2013-02-16T11:43:25Z</time>
      </trkpt>
      <trkpt lat="47.661020485684276" lon="11.641521463170648">
        <ele>1292.1494140625</ele>
        <time>2013-02-16T11:43:40Z</time>
      </trkpt>
      <trkpt lat="47.660972960293293" lon="11.641667895019054">
        <ele>1292.630126953125</ele>
        <time>2013-02-16T11:43:57Z</time>
      </trkpt>
      <trkpt lat="47.660927195101976" lon="11.641769902780652">
        <ele>1294.072021484375</ele>
        <time>2013-02-16T11:44:08Z</time>
      </trkpt>
      <trkpt lat="47.660871958360076" lon="11.64187241345644">
        <ele>1296.955810546875</ele>
        <time>2013-02-16T11:44:20Z</time>
      </trkpt>
      <trkpt lat="47.66083599999547" lon="11.641956316307187">
        <ele>1297.917236328125</ele>
        <time>2013-02-16T11:44:29Z</time>
      </trkpt>
      <trkpt lat="47.660795683041215" lon="11.642068466171622">
        <ele>1299.359130859375</ele>
        <time>2013-02-16T11:44:42Z</time>
      </trkpt>
      <trkpt lat="47.660782355815172" lon="11.642201151698828">
        <ele>1301.762451171875</ele>
        <time>2013-02-16T11:44:55Z</time>
      </trkpt>
      <trkpt lat="47.660741284489632" lon="11.642313050106168">
        <ele>1303.68505859375</ele>
        <time>2013-02-16T11:45:08Z</time>
      </trkpt>
      <trkpt lat="47.660659896209836" lon="11.64243777282536">
        <ele>1305.607666015625</ele>
        <time>2013-02-16T11:45:25Z</time>
      </trkpt>
      <trkpt lat="47.660609353333712" lon="11.6425462346524">
        <ele>1307.5302734375</ele>
        <time>2013-02-16T11:45:36Z</time>
      </trkpt>
      <trkpt lat="47.66057557426393" lon="11.64268403314054">
        <ele>1309.93359375</ele>
        <time>2013-02-16T11:45:51Z</time>
      </trkpt>
      <trkpt lat="47.660567611455917" lon="11.642828453332186">
        <ele>1312.817626953125</ele>
        <time>2013-02-16T11:46:04Z</time>
      </trkpt>
      <trkpt lat="47.660538945347071" lon="11.643021823838353">
        <ele>1314.740234375</ele>
        <time>2013-02-16T11:46:23Z</time>
      </trkpt>
      <trkpt lat="47.660520756617188" lon="11.643184348940849">
        <ele>1318.104736328125</ele>
        <time>2013-02-16T11:46:39Z</time>
      </trkpt>
      <trkpt lat="47.660510782152414" lon="11.643264144659042">
        <ele>1319.066162109375</ele>
        <time>2013-02-16T11:46:47Z</time>
      </trkpt>
      <trkpt lat="47.660511620342731" lon="11.643415773287416">
        <ele>1320.508056640625</ele>
        <time>2013-02-16T11:47:03Z</time>
      </trkpt>
      <trkpt lat="47.66050323843956" lon="11.643456090241671">
        <ele>1321.949951171875</ele>
        <time>2013-02-16T11:47:13Z</time>
      </trkpt>
      <trkpt lat="47.660475159063935" lon="11.643478134647012">
        <ele>1322.4306640625</ele>
        <time>2013-02-16T11:47:20Z</time>
      </trkpt>
      <trkpt lat="47.660400057211518" lon="11.643628338351846">
        <ele>1324.834228515625</ele>
        <time>2013-02-16T11:47:36Z</time>
      </trkpt>
      <trkpt lat="47.660341300070286" lon="11.64371551014483">
        <ele>1326.276123046875</ele>
        <time>2013-02-16T11:47:49Z</time>
      </trkpt>
      <trkpt lat="47.66030534170568" lon="11.643828582018614">
        <ele>1328.679443359375</ele>
        <time>2013-02-16T11:48:02Z</time>
      </trkpt>
      <trkpt lat="47.660308191552758" lon="11.643964117392898">
        <ele>1331.082763671875</ele>
        <time>2013-02-16T11:48:18Z</time>
      </trkpt>
      <trkpt lat="47.660301402211189" lon="11.643975852057338">
        <ele>1331.082763671875</ele>
        <time>2013-02-16T11:48:29Z</time>
      </trkpt>
      <trkpt lat="47.660303581506014" lon="11.643982725217938">
        <ele>1330.60205078125</ele>
        <time>2013-02-16T11:48:40Z</time>
      </trkpt>
      <trkpt lat="47.660296373069286" lon="11.643986161798239">
        <ele>1330.121337890625</ele>
        <time>2013-02-16T11:48:50Z</time>
      </trkpt>
      <trkpt lat="47.660306263715029" lon="11.643984317779541">
        <ele>1331.082763671875</ele>
        <time>2013-02-16T11:49:06Z</time>
      </trkpt>
      <trkpt lat="47.660307688638568" lon="11.643982389941812">
        <ele>1330.60205078125</ele>
        <time>2013-02-16T11:49:47Z</time>
      </trkpt>
      <trkpt lat="47.660319171845913" lon="11.643961016088724">
        <ele>1330.121337890625</ele>
        <time>2013-02-16T11:51:15Z</time>
      </trkpt>
      <trkpt lat="47.660304000601172" lon="11.643946263939142">
        <ele>1330.121337890625</ele>
        <time>2013-02-16T11:55:03Z</time>
      </trkpt>
      <trkpt lat="47.660159915685654" lon="11.643883148208261">
        <ele>1330.121337890625</ele>
        <time>2013-02-16T11:55:15Z</time>
      </trkpt>
      <trkpt lat="47.660020021721721" lon="11.643926147371531">
        <ele>1329.640625</ele>
        <time>2013-02-16T11:55:28Z</time>
      </trkpt>
      <trkpt lat="47.659962857142091" lon="11.64399060420692">
        <ele>1329.159912109375</ele>
        <time>2013-02-16T11:55:38Z</time>
      </trkpt>
      <trkpt lat="47.659957157447934" lon="11.644008038565516">
        <ele>1329.640625</ele>
        <time>2013-02-16T11:55:49Z</time>
      </trkpt>
      <trkpt lat="47.659949110820889" lon="11.644021617248654">
        <ele>1329.159912109375</ele>
        <time>2013-02-16T11:56:05Z</time>
      </trkpt>
      <trkpt lat="47.659922875463963" lon="11.644059168174863">
        <ele>1330.60205078125</ele>
        <time>2013-02-16T11:56:13Z</time>
      </trkpt>
      <trkpt lat="47.659797146916389" lon="11.644267458468676">
        <ele>1332.524658203125</ele>
        <time>2013-02-16T11:56:36Z</time>
      </trkpt>
      <trkpt lat="47.659727912396193" lon="11.644374411553144">
        <ele>1334.927978515625</ele>
        <time>2013-02-16T11:56:51Z</time>
      </trkpt>
      <trkpt lat="47.659639315679669" lon="11.644420679658651">
        <ele>1337.3310546875</ele>
        <time>2013-02-16T11:57:03Z</time>
      </trkpt>
      <trkpt lat="47.659567147493362" lon="11.644498882815242">
        <ele>1337.811767578125</ele>
        <time>2013-02-16T11:57:13Z</time>
      </trkpt>
      <trkpt lat="47.659496068954468" lon="11.644582618027925">
        <ele>1340.69580078125</ele>
        <time>2013-02-16T11:57:26Z</time>
      </trkpt>
      <trkpt lat="47.659407388418913" lon="11.644703485071659">
        <ele>1344.060546875</ele>
        <time>2013-02-16T11:57:46Z</time>
      </trkpt>
      <trkpt lat="47.659356258809566" lon="11.644750339910388">
        <ele>1345.021728515625</ele>
        <time>2013-02-16T11:57:55Z</time>
      </trkpt>
      <trkpt lat="47.659300686791539" lon="11.644843965768814">
        <ele>1348.38623046875</ele>
        <time>2013-02-16T11:58:09Z</time>
      </trkpt>
      <trkpt lat="47.659284425899386" lon="11.644936166703701">
        <ele>1349.828369140625</ele>
        <time>2013-02-16T11:58:18Z</time>
      </trkpt>
      <trkpt lat="47.659286772832274" lon="11.644955025985837">
        <ele>1350.30908203125</ele>
        <time>2013-02-16T11:58:20Z</time>
      </trkpt>
      <trkpt lat="47.659290377050638" lon="11.645014118403196">
        <ele>1352.2314453125</ele>
        <time>2013-02-16T11:58:28Z</time>
      </trkpt>
      <trkpt lat="47.659264644607902" lon="11.645103888586164">
        <ele>1354.634765625</ele>
        <time>2013-02-16T11:58:42Z</time>
      </trkpt>
      <trkpt lat="47.6592699252069" lon="11.645196927711368">
        <ele>1357.51904296875</ele>
        <time>2013-02-16T11:58:55Z</time>
      </trkpt>
      <trkpt lat="47.659278390929103" lon="11.645269934087992">
        <ele>1358.9609375</ele>
        <time>2013-02-16T11:59:06Z</time>
      </trkpt>
      <trkpt lat="47.659302782267332" lon="11.645363224670291">
        <ele>1361.844970703125</ele>
        <time>2013-02-16T11:59:19Z</time>
      </trkpt>
      <trkpt lat="47.659320468083024" lon="11.645469171926379">
        <ele>1363.767333984375</ele>
        <time>2013-02-16T11:59:36Z</time>
      </trkpt>
      <trkpt lat="47.659331196919084" lon="11.645496496930718">
        <ele>1364.728759765625</ele>
        <time>2013-02-16T11:59:43Z</time>
      </trkpt>
      <trkpt lat="47.659353241324425" lon="11.645571598783135">
        <ele>1366.170654296875</ele>
        <time>2013-02-16T11:59:52Z</time>
      </trkpt>
      <trkpt lat="47.659351984038949" lon="11.645623231306672">
        <ele>1368.573974609375</ele>
        <time>2013-02-16T12:00:03Z</time>
      </trkpt>
      <trkpt lat="47.659324323758483" lon="11.64566564373672">
        <ele>1370.015869140625</ele>
        <time>2013-02-16T12:00:11Z</time>
      </trkpt>
      <trkpt lat="47.659304961562157" lon="11.645681150257587">
        <ele>1370.015869140625</ele>
        <time>2013-02-16T12:00:26Z</time>
      </trkpt>
      <trkpt lat="47.659287443384528" lon="11.64578533731401">
        <ele>1372.900146484375</ele>
        <time>2013-02-16T12:00:39Z</time>
      </trkpt>
      <trkpt lat="47.659236146137118" lon="11.645860774442554">
        <ele>1374.342041015625</ele>
        <time>2013-02-16T12:00:50Z</time>
      </trkpt>
      <trkpt lat="47.659246120601892" lon="11.645969655364752">
        <ele>1377.22607421875</ele>
        <time>2013-02-16T12:01:03Z</time>
      </trkpt>
      <trkpt lat="47.659279396757483" lon="11.646051714196801">
        <ele>1380.10986328125</ele>
        <time>2013-02-16T12:01:17Z</time>
      </trkpt>
      <trkpt lat="47.659321976825595" lon="11.646145340055227">
        <ele>1382.99365234375</ele>
        <time>2013-02-16T12:01:31Z</time>
      </trkpt>
      <trkpt lat="47.659321976825595" lon="11.646241648122668">
        <ele>1384.435791015625</ele>
        <time>2013-02-16T12:01:45Z</time>
      </trkpt>
      <trkpt lat="47.659247796982527" lon="11.646323036402464">
        <ele>1387.319580078125</ele>
        <time>2013-02-16T12:02:00Z</time>
      </trkpt>
      <trkpt lat="47.659185351803899" lon="11.6464230325073">
        <ele>1389.72314453125</ele>
        <time>2013-02-16T12:02:15Z</time>
      </trkpt>
      <trkpt lat="47.659142185002565" lon="11.646532919257879">
        <ele>1392.12646484375</ele>
        <time>2013-02-16T12:02:30Z</time>
      </trkpt>
      <trkpt lat="47.659126594662666" lon="11.646608775481582">
        <ele>1395.01025390625</ele>
        <time>2013-02-16T12:02:42Z</time>
      </trkpt>
      <trkpt lat="47.659097425639629" lon="11.646675411611795">
        <ele>1396.932861328125</ele>
        <time>2013-02-16T12:02:55Z</time>
      </trkpt>
      <trkpt lat="47.659062054008245" lon="11.646770797669888">
        <ele>1398.85546875</ele>
        <time>2013-02-16T12:03:08Z</time>
      </trkpt>
      <trkpt lat="47.659074291586876" lon="11.646861741319299">
        <ele>1400.297607421875</ele>
        <time>2013-02-16T12:03:18Z</time>
      </trkpt>
      <trkpt lat="47.659092312678695" lon="11.646941620856524">
        <ele>1402.219970703125</ele>
        <time>2013-02-16T12:03:30Z</time>
      </trkpt>
      <trkpt lat="47.659098096191883" lon="11.647023931145668">
        <ele>1404.62353515625</ele>
        <time>2013-02-16T12:03:42Z</time>
      </trkpt>
      <trkpt lat="47.659091390669346" lon="11.647092495113611">
        <ele>1407.507568359375</ele>
        <time>2013-02-16T12:03:57Z</time>
      </trkpt>
      <trkpt lat="47.659108238294721" lon="11.647122167050838">
        <ele>1408.949462890625</ele>
        <time>2013-02-16T12:04:10Z</time>
      </trkpt>
      <trkpt lat="47.659122655168176" lon="11.647193999961019">
        <ele>1409.91064453125</ele>
        <time>2013-02-16T12:04:22Z</time>
      </trkpt>
      <trkpt lat="47.659165486693382" lon="11.647299947217107">
        <ele>1412.31396484375</ele>
        <time>2013-02-16T12:04:34Z</time>
      </trkpt>
      <trkpt lat="47.65917076729238" lon="11.647449564188719">
        <ele>1413.755859375</ele>
        <time>2013-02-16T12:04:48Z</time>
      </trkpt>
      <trkpt lat="47.6591731980443" lon="11.647448558360338">
        <ele>1413.755859375</ele>
        <time>2013-02-16T12:05:25Z</time>
      </trkpt>
      <trkpt lat="47.659191638231277" lon="11.647445373237133">
        <ele>1412.794677734375</ele>
        <time>2013-02-16T12:06:40Z</time>
      </trkpt>
      <trkpt lat="47.659191470593214" lon="11.647446379065514">
        <ele>1413.275390625</ele>
        <time>2013-02-16T12:07:22Z</time>
      </trkpt>
      <trkpt lat="47.659188117831945" lon="11.6474540065974">
        <ele>1413.275390625</ele>
        <time>2013-02-16T12:07:41Z</time>
      </trkpt>
      <trkpt lat="47.659188620746136" lon="11.647499687969685">
        <ele>1413.275390625</ele>
        <time>2013-02-16T12:08:15Z</time>
      </trkpt>
      <trkpt lat="47.659148052334785" lon="11.647640084847808">
        <ele>1413.275390625</ele>
        <time>2013-02-16T12:08:31Z</time>
      </trkpt>
      <trkpt lat="47.65913799405098" lon="11.647647293284535">
        <ele>1412.794677734375</ele>
        <time>2013-02-16T12:09:55Z</time>
      </trkpt>
      <trkpt lat="47.659131707623601" lon="11.647670678794384">
        <ele>1413.275390625</ele>
        <time>2013-02-16T12:10:53Z</time>
      </trkpt>
      <trkpt lat="47.659122068434954" lon="11.647739661857486">
        <ele>1412.794677734375</ele>
        <time>2013-02-16T12:11:05Z</time>
      </trkpt>
      <trkpt lat="47.659122487530112" lon="11.647782409563661">
        <ele>1412.31396484375</ele>
        <time>2013-02-16T12:11:12Z</time>
      </trkpt>
      <trkpt lat="47.659113351255655" lon="11.647970583289862">
        <ele>1409.43017578125</ele>
        <time>2013-02-16T12:11:20Z</time>
      </trkpt>
      <trkpt lat="47.659133551642299" lon="11.64814836345613">
        <ele>1410.391357421875</ele>
        <time>2013-02-16T12:11:31Z</time>
      </trkpt>
      <trkpt lat="47.659156518056989" lon="11.648271242156625">
        <ele>1411.352783203125</ele>
        <time>2013-02-16T12:11:48Z</time>
      </trkpt>
      <trkpt lat="47.659166324883699" lon="11.648344248533249">
        <ele>1412.31396484375</ele>
        <time>2013-02-16T12:12:09Z</time>
      </trkpt>
      <trkpt lat="47.659166324883699" lon="11.648363610729575">
        <ele>1412.31396484375</ele>
        <time>2013-02-16T12:12:22Z</time>
      </trkpt>
      <trkpt lat="47.659197673201561" lon="11.648518927395344">
        <ele>1414.71728515625</ele>
        <time>2013-02-16T12:12:40Z</time>
      </trkpt>
      <trkpt lat="47.659231284633279" lon="11.648770971223712">
        <ele>1417.60107421875</ele>
        <time>2013-02-16T12:13:06Z</time>
      </trkpt>
      <trkpt lat="47.659286772832274" lon="11.649034162983298">
        <ele>1419.043212890625</ele>
        <time>2013-02-16T12:13:30Z</time>
      </trkpt>
      <trkpt lat="47.659317534416914" lon="11.649261312559247">
        <ele>1420.966064453125</ele>
        <time>2013-02-16T12:13:50Z</time>
      </trkpt>
      <trkpt lat="47.659239582717419" lon="11.64941587485373">
        <ele>1422.888671875</ele>
        <time>2013-02-16T12:14:09Z</time>
      </trkpt>
      <trkpt lat="47.659160625189543" lon="11.649560714140534">
        <ele>1425.291748046875</ele>
        <time>2013-02-16T12:14:30Z</time>
      </trkpt>
      <trkpt lat="47.659079572185874" lon="11.649622153490782">
        <ele>1428.656494140625</ele>
        <time>2013-02-16T12:14:46Z</time>
      </trkpt>
      <trkpt lat="47.658987119793892" lon="11.649661716073751">
        <ele>1430.5791015625</ele>
        <time>2013-02-16T12:15:02Z</time>
      </trkpt>
      <trkpt lat="47.658925512805581" lon="11.649706726893783">
        <ele>1433.462890625</ele>
        <time>2013-02-16T12:15:14Z</time>
      </trkpt>
      <trkpt lat="47.658826354891062" lon="11.649707984179258">
        <ele>1436.34716796875</ele>
        <time>2013-02-16T12:15:29Z</time>
      </trkpt>
      <trkpt lat="47.658748738467693" lon="11.649763891473413">
        <ele>1437.7890625</ele>
        <time>2013-02-16T12:15:46Z</time>
      </trkpt>
      <trkpt lat="47.658673385158181" lon="11.649876292794943">
        <ele>1441.153564453125</ele>
        <time>2013-02-16T12:16:04Z</time>
      </trkpt>
      <trkpt lat="47.658595684915781" lon="11.65002079680562">
        <ele>1444.03759765625</ele>
        <time>2013-02-16T12:16:24Z</time>
      </trkpt>
      <trkpt lat="47.658597696572542" lon="11.650039488449693">
        <ele>1443.556884765625</ele>
        <time>2013-02-16T12:16:38Z</time>
      </trkpt>
      <trkpt lat="47.658593840897083" lon="11.650111321359873">
        <ele>1445.960205078125</ele>
        <time>2013-02-16T12:16:57Z</time>
      </trkpt>
      <trkpt lat="47.658592751249671" lon="11.650180304422975">
        <ele>1446.92138671875</ele>
        <time>2013-02-16T12:17:09Z</time>
      </trkpt>
      <trkpt lat="47.658649077638984" lon="11.650340398773551">
        <ele>1449.32470703125</ele>
        <time>2013-02-16T12:17:32Z</time>
      </trkpt>
      <trkpt lat="47.658621249720454" lon="11.650430588051677">
        <ele>1450.7666015625</ele>
        <time>2013-02-16T12:17:50Z</time>
      </trkpt>
      <trkpt lat="47.658613119274378" lon="11.650504097342491">
        <ele>1452.689453125</ele>
        <time>2013-02-16T12:18:40Z</time>
      </trkpt>
      <trkpt lat="47.65857120975852" lon="11.650625048205256">
        <ele>1453.65087890625</ele>
        <time>2013-02-16T12:18:56Z</time>
      </trkpt>
      <trkpt lat="47.658527959138155" lon="11.650694701820612">
        <ele>1456.53466796875</ele>
        <time>2013-02-16T12:19:14Z</time>
      </trkpt>
      <trkpt lat="47.6584876421839" lon="11.650781203061342">
        <ele>1457.49609375</ele>
        <time>2013-02-16T12:19:27Z</time>
      </trkpt>
      <trkpt lat="47.65844414010644" lon="11.650864686816931">
        <ele>1460.3798828125</ele>
        <time>2013-02-16T12:19:40Z</time>
      </trkpt>
      <trkpt lat="47.658359482884407" lon="11.650974908843637">
        <ele>1463.744384765625</ele>
        <time>2013-02-16T12:20:00Z</time>
      </trkpt>
      <trkpt lat="47.658295361325145" lon="11.651064176112413">
        <ele>1465.1865234375</ele>
        <time>2013-02-16T12:20:15Z</time>
      </trkpt>
      <trkpt lat="47.658260324969888" lon="11.651133075356483">
        <ele>1467.589599609375</ele>
        <time>2013-02-16T12:20:33Z</time>
      </trkpt>
      <trkpt lat="47.658214559778571" lon="11.651179008185863">
        <ele>1469.031982421875</ele>
        <time>2013-02-16T12:20:45Z</time>
      </trkpt>
      <trkpt lat="47.658184552565217" lon="11.651206333190203">
        <ele>1469.031982421875</ele>
        <time>2013-02-16T12:21:00Z</time>
      </trkpt>
      <trkpt lat="47.658155467361212" lon="11.651250002905726">
        <ele>1470.473876953125</ele>
        <time>2013-02-16T12:21:10Z</time>
      </trkpt>
      <trkpt lat="47.658145409077406" lon="11.651260815560818">
        <ele>1471.43505859375</ele>
        <time>2013-02-16T12:21:23Z</time>
      </trkpt>
      <trkpt lat="47.658092519268394" lon="11.651269448921084">
        <ele>1472.396484375</ele>
        <time>2013-02-16T12:21:36Z</time>
      </trkpt>
      <trkpt lat="47.658093525096774" lon="11.651380006223917">
        <ele>1475.2802734375</ele>
        <time>2013-02-16T12:21:50Z</time>
      </trkpt>
      <trkpt lat="47.658091429620981" lon="11.651369361206889">
        <ele>1474.319091796875</ele>
        <time>2013-02-16T12:21:58Z</time>
      </trkpt>
      <trkpt lat="47.658082293346524" lon="11.651372127234936">
        <ele>1475.760986328125</ele>
        <time>2013-02-16T12:22:09Z</time>
      </trkpt>
      <trkpt lat="47.658069133758545" lon="11.651383358985186">
        <ele>1476.24169921875</ele>
        <time>2013-02-16T12:22:16Z</time>
      </trkpt>
      <trkpt lat="47.658044323325157" lon="11.651389310136437">
        <ele>1477.203125</ele>
        <time>2013-02-16T12:22:26Z</time>
      </trkpt>
      <trkpt lat="47.658030493184924" lon="11.651397440582514">
        <ele>1477.68359375</ele>
        <time>2013-02-16T12:22:38Z</time>
      </trkpt>
      <trkpt lat="47.657963605597615" lon="11.651372546330094">
        <ele>1478.64501953125</ele>
        <time>2013-02-16T12:22:51Z</time>
      </trkpt>
      <trkpt lat="47.657920690253377" lon="11.651377407833934">
        <ele>1480.0869140625</ele>
        <time>2013-02-16T12:23:06Z</time>
      </trkpt>
      <trkpt lat="47.65792085789144" lon="11.651393584907055">
        <ele>1481.04833984375</ele>
        <time>2013-02-16T12:23:17Z</time>
      </trkpt>
      <trkpt lat="47.657938711345196" lon="11.651445049792528">
        <ele>1481.52880859375</ele>
        <time>2013-02-16T12:23:27Z</time>
      </trkpt>
      <trkpt lat="47.657956648617983" lon="11.651478661224246">
        <ele>1481.04833984375</ele>
        <time>2013-02-16T12:23:35Z</time>
      </trkpt>
      <trkpt lat="47.657973747700453" lon="11.651485031470656">
        <ele>1481.52880859375</ele>
        <time>2013-02-16T12:23:55Z</time>
      </trkpt>
      <trkpt lat="47.657981542870402" lon="11.65149156935513">
        <ele>1480.567626953125</ele>
        <time>2013-02-16T12:24:23Z</time>
      </trkpt>
      <trkpt lat="47.657985398545861" lon="11.651490982621908">
        <ele>1481.04833984375</ele>
        <time>2013-02-16T12:24:32Z</time>
      </trkpt>
      <trkpt lat="47.657996127381921" lon="11.651537669822574">
        <ele>1482.009521484375</ele>
        <time>2013-02-16T12:24:50Z</time>
      </trkpt>
      <trkpt lat="47.657980034127831" lon="11.651611095294356">
        <ele>1483.93212890625</ele>
        <time>2013-02-16T12:25:03Z</time>
      </trkpt>
      <trkpt lat="47.657924126833677" lon="11.651603551581502">
        <ele>1484.893798828125</ele>
        <time>2013-02-16T12:25:14Z</time>
      </trkpt>
      <trkpt lat="47.657897556200624" lon="11.651600785553455">
        <ele>1485.85498046875</ele>
        <time>2013-02-16T12:25:25Z</time>
      </trkpt>
      <trkpt lat="47.657894203439355" lon="11.651657028123736">
        <ele>1487.777587890625</ele>
        <time>2013-02-16T12:25:34Z</time>
      </trkpt>
      <trkpt lat="47.657858580350876" lon="11.651726765558124">
        <ele>1489.7001953125</ele>
        <time>2013-02-16T12:25:49Z</time>
      </trkpt>
      <trkpt lat="47.657816503196955" lon="11.651762975379825">
        <ele>1492.103515625</ele>
        <time>2013-02-16T12:26:01Z</time>
      </trkpt>
      <trkpt lat="47.657779036089778" lon="11.651759035885334">
        <ele>1493.54541015625</ele>
        <time>2013-02-16T12:26:15Z</time>
      </trkpt>
      <trkpt lat="47.65777325257659" lon="11.651756102219224">
        <ele>1494.026123046875</ele>
        <time>2013-02-16T12:26:20Z</time>
      </trkpt>
      <trkpt lat="47.657709382474422" lon="11.651839837431908">
        <ele>1496.909912109375</ele>
        <time>2013-02-16T12:26:39Z</time>
      </trkpt>
      <trkpt lat="47.657663365826011" lon="11.651866156607866">
        <ele>1498.351806640625</ele>
        <time>2013-02-16T12:26:54Z</time>
      </trkpt>
      <trkpt lat="47.657583151012659" lon="11.651897002011538">
        <ele>1501.716796875</ele>
        <time>2013-02-16T12:27:07Z</time>
      </trkpt>
      <trkpt lat="47.657523304224014" lon="11.651998423039913">
        <ele>1504.6005859375</ele>
        <time>2013-02-16T12:27:26Z</time>
      </trkpt>
      <trkpt lat="47.657508971169591" lon="11.652044104412198">
        <ele>1506.04248046875</ele>
        <time>2013-02-16T12:27:45Z</time>
      </trkpt>
      <trkpt lat="47.657510731369257" lon="11.652074530720711">
        <ele>1506.523193359375</ele>
        <time>2013-02-16T12:27:52Z</time>
      </trkpt>
      <trkpt lat="47.657494554296136" lon="11.652129096910357">
        <ele>1507.484619140625</ele>
        <time>2013-02-16T12:28:05Z</time>
      </trkpt>
      <trkpt lat="47.657488770782948" lon="11.652153404429555">
        <ele>1508.44580078125</ele>
        <time>2013-02-16T12:28:16Z</time>
      </trkpt>
      <trkpt lat="47.657470582053065" lon="11.652194727212191">
        <ele>1509.8876953125</ele>
        <time>2013-02-16T12:28:41Z</time>
      </trkpt>
      <trkpt lat="47.65743562951684" lon="11.652255579829216">
        <ele>1510.368408203125</ele>
        <time>2013-02-16T12:28:54Z</time>
      </trkpt>
      <trkpt lat="47.657411238178611" lon="11.652320707216859">
        <ele>1513.25244140625</ele>
        <time>2013-02-16T12:29:09Z</time>
      </trkpt>
      <trkpt lat="47.657374860718846" lon="11.652363790199161">
        <ele>1514.6943359375</ele>
        <time>2013-02-16T12:29:21Z</time>
      </trkpt>
      <trkpt lat="47.657370418310165" lon="11.65239212103188">
        <ele>1514.6943359375</ele>
        <time>2013-02-16T12:29:31Z</time>
      </trkpt>
      <trkpt lat="47.65736966393888" lon="11.652442496269941">
        <ele>1516.136474609375</ele>
        <time>2013-02-16T12:29:53Z</time>
      </trkpt>
      <trkpt lat="47.657364131882787" lon="11.652484824880958">
        <ele>1517.097900390625</ele>
        <time>2013-02-16T12:30:08Z</time>
      </trkpt>
      <trkpt lat="47.657358767464757" lon="11.652470910921693">
        <ele>1517.097900390625</ele>
        <time>2013-02-16T12:30:19Z</time>
      </trkpt>
      <trkpt lat="47.657297998666763" lon="11.652436293661594">
        <ele>1520.46240234375</ele>
        <time>2013-02-16T12:30:35Z</time>
      </trkpt>
      <trkpt lat="47.65726899728179" lon="11.652439730241895">
        <ele>1521.423583984375</ele>
        <time>2013-02-16T12:30:42Z</time>
      </trkpt>
      <trkpt lat="47.657246449962258" lon="11.652427660301328">
        <ele>1521.904296875</ele>
        <time>2013-02-16T12:30:49Z</time>
      </trkpt>
      <trkpt lat="47.657243767753243" lon="11.652446519583464">
        <ele>1522.385009765625</ele>
        <time>2013-02-16T12:30:55Z</time>
      </trkpt>
      <trkpt lat="47.6572460308671" lon="11.652507623657584">
        <ele>1522.86572265625</ele>
        <time>2013-02-16T12:31:06Z</time>
      </trkpt>
      <trkpt lat="47.657243432477117" lon="11.652682973071933">
        <ele>1526.230224609375</ele>
        <time>2013-02-16T12:31:28Z</time>
      </trkpt>
      <trkpt lat="47.657243181020021" lon="11.652916241437197">
        <ele>1529.114013671875</ele>
        <time>2013-02-16T12:31:58Z</time>
      </trkpt>
      <trkpt lat="47.657235385850072" lon="11.652984637767076">
        <ele>1530.075439453125</ele>
        <time>2013-02-16T12:32:10Z</time>
      </trkpt>
      <trkpt lat="47.657212922349572" lon="11.65302730165422">
        <ele>1530.075439453125</ele>
        <time>2013-02-16T12:32:29Z</time>
      </trkpt>
      <trkpt lat="47.657210826873779" lon="11.653034258633852">
        <ele>1530.075439453125</ele>
        <time>2013-02-16T12:32:40Z</time>
      </trkpt>
      <trkpt lat="47.657210910692811" lon="11.653037024661899">
        <ele>1529.5947265625</ele>
        <time>2013-02-16T12:33:28Z</time>
      </trkpt>
      <trkpt lat="47.657207557931542" lon="11.653035096824169">
        <ele>1530.075439453125</ele>
        <time>2013-02-16T12:33:57Z</time>
      </trkpt>
      <trkpt lat="47.657207641750574" lon="11.653036354109645">
        <ele>1529.5947265625</ele>
        <time>2013-02-16T12:34:29Z</time>
      </trkpt>
      <trkpt lat="47.657208731397986" lon="11.653032498434186">
        <ele>1529.5947265625</ele>
        <time>2013-02-16T12:34:44Z</time>
      </trkpt>
      <trkpt lat="47.657213257625699" lon="11.653026044368744">
        <ele>1529.5947265625</ele>
        <time>2013-02-16T12:35:38Z</time>
      </trkpt>
      <trkpt lat="47.657213592901826" lon="11.653024116531014">
        <ele>1529.114013671875</ele>
        <time>2013-02-16T12:36:19Z</time>
      </trkpt>
      <trkpt lat="47.657203283160925" lon="11.653029648587108">
        <ele>1529.114013671875</ele>
        <time>2013-02-16T12:36:53Z</time>
      </trkpt>
      <trkpt lat="47.657193141058087" lon="11.653030319139361">
        <ele>1529.114013671875</ele>
        <time>2013-02-16T12:37:39Z</time>
      </trkpt>
      <trkpt lat="47.657189033925533" lon="11.653037946671247">
        <ele>1529.114013671875</ele>
        <time>2013-02-16T12:37:58Z</time>
      </trkpt>
      <trkpt lat="47.65718693844974" lon="11.653034845367074">
        <ele>1528.633544921875</ele>
        <time>2013-02-16T12:38:11Z</time>
      </trkpt>
      <trkpt lat="47.657189453020692" lon="11.653037024661899">
        <ele>1528.633544921875</ele>
        <time>2013-02-16T12:38:24Z</time>
      </trkpt>
      <trkpt lat="47.657186854630709" lon="11.653034593909979">
        <ele>1529.114013671875</ele>
        <time>2013-02-16T12:38:48Z</time>
      </trkpt>
      <trkpt lat="47.657181406393647" lon="11.653030822053552">
        <ele>1528.15283203125</ele>
        <time>2013-02-16T12:39:16Z</time>
      </trkpt>
      <trkpt lat="47.65718056820333" lon="11.653032246977091">
        <ele>1528.633544921875</ele>
        <time>2013-02-16T12:39:54Z</time>
      </trkpt>
      <trkpt lat="47.657181238755584" lon="11.653019255027175">
        <ele>1527.672119140625</ele>
        <time>2013-02-16T12:42:07Z</time>
      </trkpt>
      <trkpt lat="47.657183334231377" lon="11.653024535626173">
        <ele>1527.672119140625</ele>
        <time>2013-02-16T12:42:15Z</time>
      </trkpt>
      <trkpt lat="47.657182915136218" lon="11.653023110702634">
        <ele>1527.672119140625</ele>
        <time>2013-02-16T12:42:29Z</time>
      </trkpt>
      <trkpt lat="47.657178472727537" lon="11.653024200350046">
        <ele>1527.191650390625</ele>
        <time>2013-02-16T12:42:59Z</time>
      </trkpt>
      <trkpt lat="47.657186184078455" lon="11.653015147894621">
        <ele>1527.191650390625</ele>
        <time>2013-02-16T12:43:07Z</time>
      </trkpt>
      <trkpt lat="47.65721476636827" lon="11.653010118752718">
        <ele>1527.672119140625</ele>
        <time>2013-02-16T12:43:12Z</time>
      </trkpt>
      <trkpt lat="47.657226752489805" lon="11.652999306097627">
        <ele>1527.191650390625</ele>
        <time>2013-02-16T12:43:17Z</time>
      </trkpt>
      <trkpt lat="47.657220466062427" lon="11.652989331632853">
        <ele>1527.191650390625</ele>
        <time>2013-02-16T12:43:26Z</time>
      </trkpt>
      <trkpt lat="47.657214347273111" lon="11.652984470129013">
        <ele>1527.191650390625</ele>
        <time>2013-02-16T12:43:38Z</time>
      </trkpt>
      <trkpt lat="47.657215436920524" lon="11.65299067273736">
        <ele>1526.7109375</ele>
        <time>2013-02-16T12:43:47Z</time>
      </trkpt>
      <trkpt lat="47.65721526928246" lon="11.652987068518996">
        <ele>1527.191650390625</ele>
        <time>2013-02-16T12:44:00Z</time>
      </trkpt>
      <trkpt lat="47.657215436920524" lon="11.652992181479931">
        <ele>1526.230224609375</ele>
        <time>2013-02-16T12:44:30Z</time>
      </trkpt>
      <trkpt lat="47.657214598730206" lon="11.652993019670248">
        <ele>1526.230224609375</ele>
        <time>2013-02-16T12:44:55Z</time>
      </trkpt>
      <trkpt lat="47.657213509082794" lon="11.652993522584438">
        <ele>1526.7109375</ele>
        <time>2013-02-16T12:45:44Z</time>
      </trkpt>
      <trkpt lat="47.657212670892477" lon="11.652992265298963">
        <ele>1525.74951171875</ele>
        <time>2013-02-16T12:46:13Z</time>
      </trkpt>
      <trkpt lat="47.657212167978287" lon="11.652998384088278">
        <ele>1525.74951171875</ele>
        <time>2013-02-16T12:46:55Z</time>
      </trkpt>
      <trkpt lat="47.657211413607001" lon="11.653001653030515">
        <ele>1526.230224609375</ele>
        <time>2013-02-16T12:47:23Z</time>
      </trkpt>
      <trkpt lat="47.657211497426033" lon="11.652999222278595">
        <ele>1525.74951171875</ele>
        <time>2013-02-16T12:47:55Z</time>
      </trkpt>
      <trkpt lat="47.65720303170383" lon="11.653001736849546">
        <ele>1525.268798828125</ele>
        <time>2013-02-16T12:49:11Z</time>
      </trkpt>
      <trkpt lat="47.657202109694481" lon="11.653000647202134">
        <ele>1525.268798828125</ele>
        <time>2013-02-16T12:49:29Z</time>
      </trkpt>
      <trkpt lat="47.657158523797989" lon="11.653029816225171">
        <ele>1526.230224609375</ele>
        <time>2013-02-16T12:49:58Z</time>
      </trkpt>
      <trkpt lat="47.657153578475118" lon="11.653031576424837">
        <ele>1526.7109375</ele>
        <time>2013-02-16T12:50:05Z</time>
      </trkpt>
      <trkpt lat="47.657136814668775" lon="11.653038701042533">
        <ele>1527.672119140625</ele>
        <time>2013-02-16T12:50:15Z</time>
      </trkpt>
      <trkpt lat="47.657093647867441" lon="11.653085220605135">
        <ele>1529.114013671875</ele>
        <time>2013-02-16T12:50:25Z</time>
      </trkpt>
      <trkpt lat="47.657080991193652" lon="11.653120005503297">
        <ele>1531.036865234375</ele>
        <time>2013-02-16T12:50:35Z</time>
      </trkpt>
      <trkpt lat="47.657058192417026" lon="11.6531543713063">
        <ele>1531.998046875</ele>
        <time>2013-02-16T12:50:47Z</time>
      </trkpt>
      <trkpt lat="47.657035393640399" lon="11.653221426531672">
        <ele>1533.9208984375</ele>
        <time>2013-02-16T12:51:00Z</time>
      </trkpt>
      <trkpt lat="47.65700857155025" lon="11.653248751536012">
        <ele>1536.32421875</ele>
        <time>2013-02-16T12:51:08Z</time>
      </trkpt>
      <trkpt lat="47.656981414183974" lon="11.653254954144359">
        <ele>1537.285400390625</ele>
        <time>2013-02-16T12:51:15Z</time>
      </trkpt>
      <trkpt lat="47.656975463032722" lon="11.653246823698282">
        <ele>1538.246826171875</ele>
        <time>2013-02-16T12:51:26Z</time>
      </trkpt>
      <trkpt lat="47.656974205747247" lon="11.653248919174075">
        <ele>1538.246826171875</ele>
        <time>2013-02-16T12:51:37Z</time>
      </trkpt>
      <trkpt lat="47.656978312879801" lon="11.653243973851204">
        <ele>1538.246826171875</ele>
        <time>2013-02-16T12:51:49Z</time>
      </trkpt>
      <trkpt lat="47.656978229060769" lon="11.653242213651538">
        <ele>1538.246826171875</ele>
        <time>2013-02-16T12:52:36Z</time>
      </trkpt>
      <trkpt lat="47.656976133584976" lon="11.653237184509635">
        <ele>1538.246826171875</ele>
        <time>2013-02-16T12:52:47Z</time>
      </trkpt>
      <trkpt lat="47.656972110271454" lon="11.653202986344695">
        <ele>1539.2080078125</ele>
        <time>2013-02-16T12:53:01Z</time>
      </trkpt>
      <trkpt lat="47.656959872692823" lon="11.653125956654549">
        <ele>1541.130615234375</ele>
        <time>2013-02-16T12:53:10Z</time>
      </trkpt>
      <trkpt lat="47.65694797039032" lon="11.653062338009477">
        <ele>1542.092041015625</ele>
        <time>2013-02-16T12:53:22Z</time>
      </trkpt>
      <trkpt lat="47.65693430788815" lon="11.653027553111315">
        <ele>1543.533935546875</ele>
        <time>2013-02-16T12:53:31Z</time>
      </trkpt>
      <trkpt lat="47.656926093623042" lon="11.653029145672917">
        <ele>1543.533935546875</ele>
        <time>2013-02-16T12:53:39Z</time>
      </trkpt>
      <trkpt lat="47.65692500397563" lon="11.653028475120664">
        <ele>1544.0146484375</ele>
        <time>2013-02-16T12:53:58Z</time>
      </trkpt>
      <trkpt lat="47.656918466091156" lon="11.652998048812151">
        <ele>1544.0146484375</ele>
        <time>2013-02-16T12:54:06Z</time>
      </trkpt>
      <trkpt lat="47.656908826902509" lon="11.652984973043203">
        <ele>1543.533935546875</ele>
        <time>2013-02-16T12:54:16Z</time>
      </trkpt>
      <trkpt lat="47.65689617022872" lon="11.653009364381433">
        <ele>1544.4951171875</ele>
        <time>2013-02-16T12:54:24Z</time>
      </trkpt>
      <trkpt lat="47.656883597373962" lon="11.653064349666238">
        <ele>1545.45654296875</ele>
        <time>2013-02-16T12:54:31Z</time>
      </trkpt>
      <trkpt lat="47.656884351745248" lon="11.653071977198124">
        <ele>1545.45654296875</ele>
        <time>2013-02-16T12:54:52Z</time>
      </trkpt>
      <trkpt lat="47.656884016469121" lon="11.653059320524335">
        <ele>1545.45654296875</ele>
        <time>2013-02-16T12:55:14Z</time>
      </trkpt>
      <trkpt lat="47.656871778890491" lon="11.653023529797792">
        <ele>1546.41796875</ele>
        <time>2013-02-16T12:55:23Z</time>
      </trkpt>
      <trkpt lat="47.656849902123213" lon="11.652972903102636">
        <ele>1547.85986328125</ele>
        <time>2013-02-16T12:55:32Z</time>
      </trkpt>
      <trkpt lat="47.656808998435736" lon="11.653001066297293">
        <ele>1548.8212890625</ele>
        <time>2013-02-16T12:55:42Z</time>
      </trkpt>
      <trkpt lat="47.656803634017706" lon="11.653019338846207">
        <ele>1549.78271484375</ele>
        <time>2013-02-16T12:55:50Z</time>
      </trkpt>
      <trkpt lat="47.65679407864809" lon="11.653033504262567">
        <ele>1550.263427734375</ele>
        <time>2013-02-16T12:56:02Z</time>
      </trkpt>
      <trkpt lat="47.656783852726221" lon="11.653051776811481">
        <ele>1549.78271484375</ele>
        <time>2013-02-16T12:56:13Z</time>
      </trkpt>
      <trkpt lat="47.65673884190619" lon="11.653073402121663">
        <ele>1550.263427734375</ele>
        <time>2013-02-16T12:56:25Z</time>
      </trkpt>
      <trkpt lat="47.656735824421048" lon="11.653054710477591">
        <ele>1550.263427734375</ele>
        <time>2013-02-16T12:56:39Z</time>
      </trkpt>
      <trkpt lat="47.656730627641082" lon="11.653031911700964">
        <ele>1550.263427734375</ele>
        <time>2013-02-16T12:57:02Z</time>
      </trkpt>
      <trkpt lat="47.656712019816041" lon="11.652969215065241">
        <ele>1551.705322265625</ele>
        <time>2013-02-16T12:57:12Z</time>
      </trkpt>
      <trkpt lat="47.65664647333324" lon="11.652948763221502">
        <ele>1553.6279296875</ele>
        <time>2013-02-16T12:57:22Z</time>
      </trkpt>
      <trkpt lat="47.656615544110537" lon="11.65298136882484">
        <ele>1554.108642578125</ele>
        <time>2013-02-16T12:57:32Z</time>
      </trkpt>
      <trkpt lat="47.656617891043425" lon="11.652989331632853">
        <ele>1554.108642578125</ele>
        <time>2013-02-16T12:57:40Z</time>
      </trkpt>
      <trkpt lat="47.656611436977983" lon="11.652988912537694">
        <ele>1553.6279296875</ele>
        <time>2013-02-16T12:57:49Z</time>
      </trkpt>
      <trkpt lat="47.656609509140253" lon="11.65297944098711">
        <ele>1554.589111328125</ele>
        <time>2013-02-16T12:57:57Z</time>
      </trkpt>
      <trkpt lat="47.656610012054443" lon="11.652965443208814">
        <ele>1555.06982421875</ele>
        <time>2013-02-16T12:58:05Z</time>
      </trkpt>
      <trkpt lat="47.656610263511539" lon="11.652951277792454">
        <ele>1555.550537109375</ele>
        <time>2013-02-16T12:58:13Z</time>
      </trkpt>
      <trkpt lat="47.656596349552274" lon="11.652963766828179">
        <ele>1555.550537109375</ele>
        <time>2013-02-16T12:58:21Z</time>
      </trkpt>
      <trkpt lat="47.656565504148602" lon="11.653004586696625">
        <ele>1556.992431640625</ele>
        <time>2013-02-16T12:58:32Z</time>
      </trkpt>
      <trkpt lat="47.656516805291176" lon="11.652988912537694">
        <ele>1557.953857421875</ele>
        <time>2013-02-16T12:58:41Z</time>
      </trkpt>
      <trkpt lat="47.656516721472144" lon="11.652894616127014">
        <ele>1560.837646484375</ele>
        <time>2013-02-16T12:58:53Z</time>
      </trkpt>
      <trkpt lat="47.656490067020059" lon="11.652891095727682">
        <ele>1561.799072265625</ele>
        <time>2013-02-16T12:59:00Z</time>
      </trkpt>
      <trkpt lat="47.656430471688509" lon="11.652984637767076">
        <ele>1564.202392578125</ele>
        <time>2013-02-16T12:59:13Z</time>
      </trkpt>
      <trkpt lat="47.656426029279828" lon="11.652984051033854">
        <ele>1564.202392578125</ele>
        <time>2013-02-16T12:59:34Z</time>
      </trkpt>
      <trkpt lat="47.656426364555955" lon="11.652985643595457">
        <ele>1563.721435546875</ele>
        <time>2013-02-16T13:00:00Z</time>
      </trkpt>
      <trkpt lat="47.65642418526113" lon="11.652989080175757">
        <ele>1563.240966796875</ele>
        <time>2013-02-16T13:01:03Z</time>
      </trkpt>
      <trkpt lat="47.656423011794686" lon="11.652996372431517">
        <ele>1563.240966796875</ele>
        <time>2013-02-16T13:01:26Z</time>
      </trkpt>
      <trkpt lat="47.656429382041097" lon="11.652995450422168">
        <ele>1563.240966796875</ele>
        <time>2013-02-16T13:02:08Z</time>
      </trkpt>
      <trkpt lat="47.656431896612048" lon="11.652970807626843">
        <ele>1563.721435546875</ele>
        <time>2013-02-16T13:02:18Z</time>
      </trkpt>
      <trkpt lat="47.656417060643435" lon="11.65295111015439">
        <ele>1564.68310546875</ele>
        <time>2013-02-16T13:02:29Z</time>
      </trkpt>
      <trkpt lat="47.656406834721565" lon="11.65286167524755">
        <ele>1564.202392578125</ele>
        <time>2013-02-16T13:02:39Z</time>
      </trkpt>
      <trkpt lat="47.656408175826073" lon="11.65280157700181">
        <ele>1564.68310546875</ele>
        <time>2013-02-16T13:02:46Z</time>
      </trkpt>
      <trkpt lat="47.656377078965306" lon="11.652750615030527">
        <ele>1565.64453125</ele>
        <time>2013-02-16T13:02:55Z</time>
      </trkpt>
      <trkpt lat="47.65630004927516" lon="11.652726223692298">
        <ele>1567.08642578125</ele>
        <time>2013-02-16T13:03:06Z</time>
      </trkpt>
      <trkpt lat="47.656258642673492" lon="11.652696803212166">
        <ele>1567.08642578125</ele>
        <time>2013-02-16T13:03:12Z</time>
      </trkpt>
      <trkpt lat="47.656177505850792" lon="11.652557412162423">
        <ele>1569.48974609375</ele>
        <time>2013-02-16T13:03:26Z</time>
      </trkpt>
      <trkpt lat="47.656122017651796" lon="11.652472754940391">
        <ele>1569.97021484375</ele>
        <time>2013-02-16T13:03:38Z</time>
      </trkpt>
      <trkpt lat="47.656115479767323" lon="11.652460349723697">
        <ele>1570.931640625</ele>
        <time>2013-02-16T13:03:49Z</time>
      </trkpt>
      <trkpt lat="47.656117575243115" lon="11.652457835152745">
        <ele>1570.450927734375</ele>
        <time>2013-02-16T13:06:28Z</time>
      </trkpt>
      <trkpt lat="47.656117239966989" lon="11.652458254247904">
        <ele>1569.48974609375</ele>
        <time>2013-02-16T13:06:55Z</time>
      </trkpt>
      <trkpt lat="47.656114809215069" lon="11.652456074953079">
        <ele>1569.97021484375</ele>
        <time>2013-02-16T13:07:11Z</time>
      </trkpt>
      <trkpt lat="47.656115479767323" lon="11.652451967820525">
        <ele>1569.97021484375</ele>
        <time>2013-02-16T13:07:41Z</time>
      </trkpt>
      <trkpt lat="47.656115731224418" lon="11.652445932850242">
        <ele>1570.450927734375</ele>
        <time>2013-02-16T13:07:55Z</time>
      </trkpt>
      <trkpt lat="47.656115060672164" lon="11.652429588139057">
        <ele>1569.97021484375</ele>
        <time>2013-02-16T13:08:31Z</time>
      </trkpt>
      <trkpt lat="47.656114473938942" lon="11.652420200407505">
        <ele>1570.450927734375</ele>
        <time>2013-02-16T13:08:49Z</time>
      </trkpt>
      <trkpt lat="47.656110115349293" lon="11.652405951172113">
        <ele>1569.48974609375</ele>
        <time>2013-02-16T13:08:56Z</time>
      </trkpt>
      <trkpt lat="47.656100895255804" lon="11.652375860139728">
        <ele>1568.047607421875</ele>
        <time>2013-02-16T13:08:58Z</time>
      </trkpt>
      <trkpt lat="47.656060997396708" lon="11.652216855436563">
        <ele>1564.68310546875</ele>
        <time>2013-02-16T13:09:02Z</time>
      </trkpt>
      <trkpt lat="47.656023362651467" lon="11.652025496587157">
        <ele>1561.799072265625</ele>
        <time>2013-02-16T13:09:06Z</time>
      </trkpt>
      <trkpt lat="47.65599905513227" lon="11.651790970936418">
        <ele>1557.953857421875</ele>
        <time>2013-02-16T13:09:12Z</time>
      </trkpt>
      <trkpt lat="47.655986147001386" lon="11.65167823433876">
        <ele>1555.06982421875</ele>
        <time>2013-02-16T13:09:14Z</time>
      </trkpt>
      <trkpt lat="47.655968125909567" lon="11.651538843289018">
        <ele>1550.743896484375</ele>
        <time>2013-02-16T13:09:16Z</time>
      </trkpt>
      <trkpt lat="47.655936190858483" lon="11.651339689269662">
        <ele>1547.379150390625</ele>
        <time>2013-02-16T13:09:18Z</time>
      </trkpt>
      <trkpt lat="47.655903501436114" lon="11.651140954345465">
        <ele>1543.05322265625</ele>
        <time>2013-02-16T13:09:20Z</time>
      </trkpt>
      <trkpt lat="47.655880618840456" lon="11.650927048176527">
        <ele>1539.688720703125</ele>
        <time>2013-02-16T13:09:24Z</time>
      </trkpt>
      <trkpt lat="47.655871482565999" lon="11.650853622704744">
        <ele>1539.2080078125</ele>
        <time>2013-02-16T13:09:26Z</time>
      </trkpt>
      <trkpt lat="47.655867040157318" lon="11.650742730125785">
        <ele>1537.285400390625</ele>
        <time>2013-02-16T13:09:33Z</time>
      </trkpt>
      <trkpt lat="47.655863687396049" lon="11.650540307164192">
        <ele>1533.9208984375</ele>
        <time>2013-02-16T13:09:45Z</time>
      </trkpt>
      <trkpt lat="47.655863352119923" lon="11.6503413207829">
        <ele>1532.47900390625</ele>
        <time>2013-02-16T13:09:55Z</time>
      </trkpt>
      <trkpt lat="47.65586175955832" lon="11.65013026446104">
        <ele>1530.075439453125</ele>
        <time>2013-02-16T13:10:05Z</time>
      </trkpt>
      <trkpt lat="47.655855221673846" lon="11.649856762960553">
        <ele>1527.672119140625</ele>
        <time>2013-02-16T13:10:17Z</time>
      </trkpt>
      <trkpt lat="47.655853126198053" lon="11.649715276435018">
        <ele>1525.268798828125</ele>
        <time>2013-02-16T13:10:24Z</time>
      </trkpt>
      <trkpt lat="47.655851533636451" lon="11.649557193741202">
        <ele>1524.3076171875</ele>
        <time>2013-02-16T13:10:28Z</time>
      </trkpt>
      <trkpt lat="47.655805014073849" lon="11.64933230727911">
        <ele>1518.539794921875</ele>
        <time>2013-02-16T13:10:32Z</time>
      </trkpt>
      <trkpt lat="47.655790848657489" lon="11.64926047436893">
        <ele>1518.539794921875</ele>
        <time>2013-02-16T13:10:33Z</time>
      </trkpt>
      <trkpt lat="47.65575036406517" lon="11.649024020880461">
        <ele>1514.6943359375</ele>
        <time>2013-02-16T13:10:36Z</time>
      </trkpt>
      <trkpt lat="47.655731756240129" lon="11.648890329524875">
        <ele>1512.771728515625</ele>
        <time>2013-02-16T13:10:38Z</time>
      </trkpt>
      <trkpt lat="47.655713818967342" lon="11.648766109719872">
        <ele>1511.329833984375</ele>
        <time>2013-02-16T13:10:40Z</time>
      </trkpt>
      <trkpt lat="47.65570342540741" lon="11.64870148524642">
        <ele>1510.368408203125</ele>
        <time>2013-02-16T13:10:41Z</time>
      </trkpt>
      <trkpt lat="47.655642824247479" lon="11.648465618491173">
        <ele>1507.00390625</ele>
        <time>2013-02-16T13:10:45Z</time>
      </trkpt>
      <trkpt lat="47.655588844791055" lon="11.648265793919563">
        <ele>1504.1201171875</ele>
        <time>2013-02-16T13:10:51Z</time>
      </trkpt>
      <trkpt lat="47.655568895861506" lon="11.648198738694191">
        <ele>1504.1201171875</ele>
        <time>2013-02-16T13:11:03Z</time>
      </trkpt>
      <trkpt lat="47.655568309128284" lon="11.648195637390018">
        <ele>1503.15869140625</ele>
        <time>2013-02-16T13:11:21Z</time>
      </trkpt>
      <trkpt lat="47.655567387118936" lon="11.648186584934592">
        <ele>1504.1201171875</ele>
        <time>2013-02-16T13:11:33Z</time>
      </trkpt>
      <trkpt lat="47.655505863949656" lon="11.648004529997706">
        <ele>1503.639404296875</ele>
        <time>2013-02-16T13:11:44Z</time>
      </trkpt>
      <trkpt lat="47.655470408499241" lon="11.647875364869833">
        <ele>1502.677978515625</ele>
        <time>2013-02-16T13:11:50Z</time>
      </trkpt>
      <trkpt lat="47.655406203120947" lon="11.647716192528605">
        <ele>1502.677978515625</ele>
        <time>2013-02-16T13:12:01Z</time>
      </trkpt>
      <trkpt lat="47.655408214777708" lon="11.647710492834449">
        <ele>1502.197265625</ele>
        <time>2013-02-16T13:12:12Z</time>
      </trkpt>
      <trkpt lat="47.655359599739313" lon="11.647603707388043">
        <ele>1502.197265625</ele>
        <time>2013-02-16T13:12:21Z</time>
      </trkpt>
      <trkpt lat="47.655314421281219" lon="11.647559702396393">
        <ele>1502.197265625</ele>
        <time>2013-02-16T13:12:30Z</time>
      </trkpt>
      <trkpt lat="47.65525046736002" lon="11.647367337718606">
        <ele>1503.15869140625</ele>
        <time>2013-02-16T13:12:43Z</time>
      </trkpt>
      <trkpt lat="47.655166061595082" lon="11.647152174264193">
        <ele>1503.639404296875</ele>
        <time>2013-02-16T13:12:57Z</time>
      </trkpt>
      <trkpt lat="47.655110908672214" lon="11.64700641296804">
        <ele>1505.081298828125</ele>
        <time>2013-02-16T13:13:11Z</time>
      </trkpt>
      <trkpt lat="47.655077297240496" lon="11.646944470703602">
        <ele>1505.56201171875</ele>
        <time>2013-02-16T13:13:23Z</time>
      </trkpt>
      <trkpt lat="47.655055755749345" lon="11.646897615864873">
        <ele>1506.523193359375</ele>
        <time>2013-02-16T13:13:32Z</time>
      </trkpt>
      <trkpt lat="47.655004374682903" lon="11.646794183179736">
        <ele>1507.96533203125</ele>
        <time>2013-02-16T13:13:49Z</time>
      </trkpt>
      <trkpt lat="47.654966069385409" lon="11.646706340834498">
        <ele>1509.4072265625</ele>
        <time>2013-02-16T13:14:09Z</time>
      </trkpt>
      <trkpt lat="47.654932122677565" lon="11.646651355549693">
        <ele>1510.368408203125</ele>
        <time>2013-02-16T13:14:18Z</time>
      </trkpt>
      <trkpt lat="47.654853835701942" lon="11.646489500999451">
        <ele>1513.73291015625</ele>
        <time>2013-02-16T13:14:36Z</time>
      </trkpt>
      <trkpt lat="47.654760293662548" lon="11.646318593993783">
        <ele>1516.6171875</ele>
        <time>2013-02-16T13:14:58Z</time>
      </trkpt>
      <trkpt lat="47.654693238437176" lon="11.646188674494624">
        <ele>1519.501220703125</ele>
        <time>2013-02-16T13:15:15Z</time>
      </trkpt>
      <trkpt lat="47.654629871249199" lon="11.646039308980107">
        <ele>1521.904296875</ele>
        <time>2013-02-16T13:15:32Z</time>
      </trkpt>
      <trkpt lat="47.654543621465564" lon="11.645891536027193">
        <ele>1524.3076171875</ele>
        <time>2013-02-16T13:15:51Z</time>
      </trkpt>
      <trkpt lat="47.654520403593779" lon="11.645852895453572">
        <ele>1525.268798828125</ele>
        <time>2013-02-16T13:16:05Z</time>
      </trkpt>
      <trkpt lat="47.654482265934348" lon="11.64577946998179">
        <ele>1527.191650390625</ele>
        <time>2013-02-16T13:16:16Z</time>
      </trkpt>
      <trkpt lat="47.654413534328341" lon="11.645689951255918">
        <ele>1530.55615234375</ele>
        <time>2013-02-16T13:16:31Z</time>
      </trkpt>
      <trkpt lat="47.654331056401134" lon="11.645620549097657">
        <ele>1533.9208984375</ele>
        <time>2013-02-16T13:16:48Z</time>
      </trkpt>
      <trkpt lat="47.654276909306645" lon="11.645559780299664">
        <ele>1536.32421875</ele>
        <time>2013-02-16T13:17:04Z</time>
      </trkpt>
      <trkpt lat="47.654224522411823" lon="11.645491803064942">
        <ele>1539.688720703125</ele>
        <time>2013-02-16T13:17:19Z</time>
      </trkpt>
      <trkpt lat="47.654159143567085" lon="11.645355094224215">
        <ele>1542.57275390625</ele>
        <time>2013-02-16T13:17:39Z</time>
      </trkpt>
      <trkpt lat="47.654099799692631" lon="11.645205812528729">
        <ele>1546.41796875</ele>
        <time>2013-02-16T13:17:59Z</time>
      </trkpt>
      <trkpt lat="47.654037354514003" lon="11.645091651007533">
        <ele>1549.302001953125</ele>
        <time>2013-02-16T13:18:18Z</time>
      </trkpt>
      <trkpt lat="47.653985386714339" lon="11.644990313798189">
        <ele>1552.66650390625</ele>
        <time>2013-02-16T13:18:33Z</time>
      </trkpt>
      <trkpt lat="47.653916571289301" lon="11.644861400127411">
        <ele>1556.031005859375</ele>
        <time>2013-02-16T13:18:51Z</time>
      </trkpt>
      <trkpt lat="47.653860077261925" lon="11.644751848652959">
        <ele>1558.9150390625</ele>
        <time>2013-02-16T13:19:06Z</time>
      </trkpt>
      <trkpt lat="47.653797883540392" lon="11.644623940810561">
        <ele>1562.279541015625</ele>
        <time>2013-02-16T13:19:23Z</time>
      </trkpt>
      <trkpt lat="47.653738623484969" lon="11.644518999382854">
        <ele>1565.163818359375</ele>
        <time>2013-02-16T13:19:42Z</time>
      </trkpt>
      <trkpt lat="47.653689924627542" lon="11.644408777356148">
        <ele>1569.009033203125</ele>
        <time>2013-02-16T13:20:00Z</time>
      </trkpt>
      <trkpt lat="47.653643321245909" lon="11.644316157326102">
        <ele>1571.892822265625</ele>
        <time>2013-02-16T13:20:14Z</time>
      </trkpt>
      <trkpt lat="47.653590515255928" lon="11.644212305545807">
        <ele>1574.296142578125</ele>
        <time>2013-02-16T13:20:29Z</time>
      </trkpt>
      <trkpt lat="47.653537457808852" lon="11.644116332754493">
        <ele>1577.66064453125</ele>
        <time>2013-02-16T13:20:43Z</time>
      </trkpt>
      <trkpt lat="47.653418350964785" lon="11.643970739096403">
        <ele>1580.544921875</ele>
        <time>2013-02-16T13:21:05Z</time>
      </trkpt>
      <trkpt lat="47.653309134766459" lon="11.643883399665356">
        <ele>1583.909423828125</ele>
        <time>2013-02-16T13:21:23Z</time>
      </trkpt>
      <trkpt lat="47.653198912739754" lon="11.643745517358184">
        <ele>1586.793212890625</ele>
        <time>2013-02-16T13:21:44Z</time>
      </trkpt>
      <trkpt lat="47.653107130900025" lon="11.643617693334818">
        <ele>1589.67724609375</ele>
        <time>2013-02-16T13:22:04Z</time>
      </trkpt>
      <trkpt lat="47.653022641316056" lon="11.6435063816607">
        <ele>1593.041748046875</ele>
        <time>2013-02-16T13:22:21Z</time>
      </trkpt>
      <trkpt lat="47.652877802029252" lon="11.643378222361207">
        <ele>1594.96435546875</ele>
        <time>2013-02-16T13:22:42Z</time>
      </trkpt>
      <trkpt lat="47.65274285338819" lon="11.643296917900443">
        <ele>1595.92578125</ele>
        <time>2013-02-16T13:22:59Z</time>
      </trkpt>
      <trkpt lat="47.652592230588198" lon="11.643237741664052">
        <ele>1598.809814453125</ele>
        <time>2013-02-16T13:23:19Z</time>
      </trkpt>
      <trkpt lat="47.652392238378525" lon="11.643163729459047">
        <ele>1601.69384765625</ele>
        <time>2013-02-16T13:23:46Z</time>
      </trkpt>
      <trkpt lat="47.652250919491053" lon="11.643152078613639">
        <ele>1603.1357421875</ele>
        <time>2013-02-16T13:24:05Z</time>
      </trkpt>
      <trkpt lat="47.652205908671021" lon="11.643141014501452">
        <ele>1602.655029296875</ele>
        <time>2013-02-16T13:24:33Z</time>
      </trkpt>
      <trkpt lat="47.65219459310174" lon="11.643134728074074">
        <ele>1601.69384765625</ele>
        <time>2013-02-16T13:24:40Z</time>
      </trkpt>
      <trkpt lat="47.652184534817934" lon="11.643137410283089">
        <ele>1601.69384765625</ele>
        <time>2013-02-16T13:24:50Z</time>
      </trkpt>
      <trkpt lat="47.652188641950488" lon="11.643149899318814">
        <ele>1600.732421875</ele>
        <time>2013-02-16T13:24:58Z</time>
      </trkpt>
      <trkpt lat="47.652188474312425" lon="11.643149815499783">
        <ele>1602.17431640625</ele>
        <time>2013-02-16T13:25:56Z</time>
      </trkpt>
      <trkpt lat="47.65218922868371" lon="11.643150150775909">
        <ele>1601.69384765625</ele>
        <time>2013-02-16T13:26:20Z</time>
      </trkpt>
      <trkpt lat="47.652189312502742" lon="11.643150150775909">
        <ele>1600.732421875</ele>
        <time>2013-02-16T13:26:22Z</time>
      </trkpt>
      <trkpt lat="47.652185205370188" lon="11.643155179917812">
        <ele>1600.732421875</ele>
        <time>2013-02-16T13:27:22Z</time>
      </trkpt>
      <trkpt lat="47.652189647778869" lon="11.64315995760262">
        <ele>1597.8486328125</ele>
        <time>2013-02-16T13:35:42Z</time>
      </trkpt>
      <trkpt lat="47.652190737426281" lon="11.643158365041018">
        <ele>1599.29052734375</ele>
        <time>2013-02-16T13:38:05Z</time>
      </trkpt>
      <trkpt lat="47.652190905064344" lon="11.643158532679081">
        <ele>1597.367919921875</ele>
        <time>2013-02-16T13:38:08Z</time>
      </trkpt>
      <trkpt lat="47.652190905064344" lon="11.643149061128497">
        <ele>1597.8486328125</ele>
        <time>2013-02-16T13:39:47Z</time>
      </trkpt>
      <trkpt lat="47.652188893407583" lon="11.643150905147195">
        <ele>1598.809814453125</ele>
        <time>2013-02-16T13:40:02Z</time>
      </trkpt>
      <trkpt lat="47.652190569788218" lon="11.643154257908463">
        <ele>1598.3291015625</ele>
        <time>2013-02-16T13:41:08Z</time>
      </trkpt>
      <trkpt lat="47.652190318331122" lon="11.643159287050366">
        <ele>1599.29052734375</ele>
        <time>2013-02-16T13:41:53Z</time>
      </trkpt>
      <trkpt lat="47.652189312502742" lon="11.643160544335842">
        <ele>1598.3291015625</ele>
        <time>2013-02-16T13:42:26Z</time>
      </trkpt>
      <trkpt lat="47.65218822285533" lon="11.64315652102232">
        <ele>1598.3291015625</ele>
        <time>2013-02-16T13:42:37Z</time>
      </trkpt>
      <trkpt lat="47.652185205370188" lon="11.643154509365559">
        <ele>1598.3291015625</ele>
        <time>2013-02-16T13:42:54Z</time>
      </trkpt>
      <trkpt lat="47.652185624465346" lon="11.64315995760262">
        <ele>1598.3291015625</ele>
        <time>2013-02-16T13:43:13Z</time>
      </trkpt>
      <trkpt lat="47.652181936427951" lon="11.643152832984924">
        <ele>1598.3291015625</ele>
        <time>2013-02-16T13:43:18Z</time>
      </trkpt>
      <trkpt lat="47.652174811810255" lon="11.64317755959928">
        <ele>1598.809814453125</ele>
        <time>2013-02-16T13:43:27Z</time>
      </trkpt>
      <trkpt lat="47.652173722162843" lon="11.643179068341851">
        <ele>1598.3291015625</ele>
        <time>2013-02-16T13:43:51Z</time>
      </trkpt>
      <trkpt lat="47.65218093059957" lon="11.643179319798946">
        <ele>1598.3291015625</ele>
        <time>2013-02-16T13:44:10Z</time>
      </trkpt>
      <trkpt lat="47.652184283360839" lon="11.643178397789598">
        <ele>1597.8486328125</ele>
        <time>2013-02-16T13:44:38Z</time>
      </trkpt>
      <trkpt lat="47.652210853993893" lon="11.643180409446359">
        <ele>1598.3291015625</ele>
        <time>2013-02-16T13:44:54Z</time>
      </trkpt>
      <trkpt lat="47.652222001925111" lon="11.643176721408963">
        <ele>1598.3291015625</ele>
        <time>2013-02-16T13:45:42Z</time>
      </trkpt>
      <trkpt lat="47.652336247265339" lon="11.643171356990933">
        <ele>1597.367919921875</ele>
        <time>2013-02-16T13:45:50Z</time>
      </trkpt>
      <trkpt lat="47.652447056025267" lon="11.643177391961217">
        <ele>1595.445068359375</ele>
        <time>2013-02-16T13:45:55Z</time>
      </trkpt>
      <trkpt lat="47.652632715180516" lon="11.643183259293437">
        <ele>1592.561279296875</ele>
        <time>2013-02-16T13:45:59Z</time>
      </trkpt>
      <trkpt lat="47.652772106230259" lon="11.643171524628997">
        <ele>1592.08056640625</ele>
        <time>2013-02-16T13:46:00Z</time>
      </trkpt>
      <trkpt lat="47.652886351570487" lon="11.643209243193269">
        <ele>1587.754638671875</ele>
        <time>2013-02-16T13:46:03Z</time>
      </trkpt>
      <trkpt lat="47.652898924425244" lon="11.643225336447358">
        <ele>1587.754638671875</ele>
        <time>2013-02-16T13:46:09Z</time>
      </trkpt>
      <trkpt lat="47.652890710160136" lon="11.643218295648694">
        <ele>1587.754638671875</ele>
        <time>2013-02-16T13:46:41Z</time>
      </trkpt>
      <trkpt lat="47.652961285784841" lon="11.643070941790938">
        <ele>1584.39013671875</ele>
        <time>2013-02-16T13:46:46Z</time>
      </trkpt>
      <trkpt lat="47.653088020160794" lon="11.642836080864072">
        <ele>1580.544921875</ele>
        <time>2013-02-16T13:46:48Z</time>
      </trkpt>
      <trkpt lat="47.653179634362459" lon="11.642643716186285">
        <ele>1574.77685546875</ele>
        <time>2013-02-16T13:46:51Z</time>
      </trkpt>
      <trkpt lat="47.653239313513041" lon="11.642537601292133">
        <ele>1570.450927734375</ele>
        <time>2013-02-16T13:46:53Z</time>
      </trkpt>
      <trkpt lat="47.653272422030568" lon="11.642493093386292">
        <ele>1566.605712890625</ele>
        <time>2013-02-16T13:46:54Z</time>
      </trkpt>
      <trkpt lat="47.653350038453937" lon="11.642417823895812">
        <ele>1562.279541015625</ele>
        <time>2013-02-16T13:46:56Z</time>
      </trkpt>
      <trkpt lat="47.653429750353098" lon="11.642362838611007">
        <ele>1557.47314453125</ele>
        <time>2013-02-16T13:46:58Z</time>
      </trkpt>
      <trkpt lat="47.653467720374465" lon="11.642338195815682">
        <ele>1556.031005859375</ele>
        <time>2013-02-16T13:46:59Z</time>
      </trkpt>
      <trkpt lat="47.653554556891322" lon="11.642126636579633">
        <ele>1548.340576171875</ele>
        <time>2013-02-16T13:47:03Z</time>
      </trkpt>
      <trkpt lat="47.653564531356096" lon="11.641934271901846">
        <ele>1544.4951171875</ele>
        <time>2013-02-16T13:47:06Z</time>
      </trkpt>
      <trkpt lat="47.653617840260267" lon="11.64184701628983">
        <ele>1539.688720703125</ele>
        <time>2013-02-16T13:47:08Z</time>
      </trkpt>
      <trkpt lat="47.653685482218862" lon="11.641834694892168">
        <ele>1534.88232421875</ele>
        <time>2013-02-16T13:47:10Z</time>
      </trkpt>
      <trkpt lat="47.653758237138391" lon="11.641830587759614">
        <ele>1529.5947265625</ele>
        <time>2013-02-16T13:47:12Z</time>
      </trkpt>
      <trkpt lat="47.653827806934714" lon="11.64177275262773">
        <ele>1525.74951171875</ele>
        <time>2013-02-16T13:47:14Z</time>
      </trkpt>
      <trkpt lat="47.653867201879621" lon="11.641755988821387">
        <ele>1522.385009765625</ele>
        <time>2013-02-16T13:47:15Z</time>
      </trkpt>
      <trkpt lat="47.653944650664926" lon="11.641761437058449">
        <ele>1518.539794921875</ele>
        <time>2013-02-16T13:47:17Z</time>
      </trkpt>
      <trkpt lat="47.653975747525692" lon="11.641766466200352">
        <ele>1514.6943359375</ele>
        <time>2013-02-16T13:47:18Z</time>
      </trkpt>
      <trkpt lat="47.654068032279611" lon="11.64167501963675">
        <ele>1507.00390625</ele>
        <time>2013-02-16T13:47:22Z</time>
      </trkpt>
      <trkpt lat="47.654077922925353" lon="11.641662865877151">
        <ele>1506.04248046875</ele>
        <time>2013-02-16T13:47:24Z</time>
      </trkpt>
      <trkpt lat="47.654079180210829" lon="11.641674349084496">
        <ele>1505.56201171875</ele>
        <time>2013-02-16T13:47:34Z</time>
      </trkpt>
      <trkpt lat="47.654083371162415" lon="11.641671666875482">
        <ele>1505.56201171875</ele>
        <time>2013-02-16T13:49:18Z</time>
      </trkpt>
      <trkpt lat="47.654155371710658" lon="11.641643838956952">
        <ele>1500.27490234375</ele>
        <time>2013-02-16T13:49:21Z</time>
      </trkpt>
      <trkpt lat="47.65417942777276" lon="11.641630679368973">
        <ele>1500.27490234375</ele>
        <time>2013-02-16T13:49:22Z</time>
      </trkpt>
      <trkpt lat="47.654195437207818" lon="11.641628164798021">
        <ele>1500.27490234375</ele>
        <time>2013-02-16T13:49:23Z</time>
      </trkpt>
      <trkpt lat="47.654241789132357" lon="11.641639899462461">
        <ele>1496.429443359375</ele>
        <time>2013-02-16T13:49:26Z</time>
      </trkpt>
      <trkpt lat="47.65429032035172" lon="11.641576448455453">
        <ele>1493.54541015625</ele>
        <time>2013-02-16T13:49:28Z</time>
      </trkpt>
      <trkpt lat="47.654421580955386" lon="11.641418030485511">
        <ele>1485.85498046875</ele>
        <time>2013-02-16T13:49:32Z</time>
      </trkpt>
      <trkpt lat="47.654455024749041" lon="11.641374360769987">
        <ele>1481.52880859375</ele>
        <time>2013-02-16T13:49:33Z</time>
      </trkpt>
      <trkpt lat="47.654530964791775" lon="11.641302946954966">
        <ele>1477.203125</ele>
        <time>2013-02-16T13:49:35Z</time>
      </trkpt>
      <trkpt lat="47.654574383050203" lon="11.641286769881845">
        <ele>1473.83837890625</ele>
        <time>2013-02-16T13:49:36Z</time>
      </trkpt>
      <trkpt lat="47.654609251767397" lon="11.641283584758639">
        <ele>1470.473876953125</ele>
        <time>2013-02-16T13:49:37Z</time>
      </trkpt>
      <trkpt lat="47.65468024648726" lon="11.641306215897202">
        <ele>1465.667236328125</ele>
        <time>2013-02-16T13:49:39Z</time>
      </trkpt>
      <trkpt lat="47.654729364439845" lon="11.641272688284516">
        <ele>1462.302490234375</ele>
        <time>2013-02-16T13:49:41Z</time>
      </trkpt>
      <trkpt lat="47.654779152944684" lon="11.641226671636105">
        <ele>1456.53466796875</ele>
        <time>2013-02-16T13:49:43Z</time>
      </trkpt>
      <trkpt lat="47.654793905094266" lon="11.641231952235103">
        <ele>1455.573486328125</ele>
        <time>2013-02-16T13:49:48Z</time>
      </trkpt>
      <trkpt lat="47.654809663072228" lon="11.641218373551965">
        <ele>1455.0927734375</ele>
        <time>2013-02-16T13:49:59Z</time>
      </trkpt>
      <trkpt lat="47.65480144880712" lon="11.641216864809394">
        <ele>1455.0927734375</ele>
        <time>2013-02-16T13:50:40Z</time>
      </trkpt>
      <trkpt lat="47.654823577031493" lon="11.641205213963985">
        <ele>1455.0927734375</ele>
        <time>2013-02-16T13:50:55Z</time>
      </trkpt>
      <trkpt lat="47.654925249516964" lon="11.641168668866158">
        <ele>1448.843994140625</ele>
        <time>2013-02-16T13:50:58Z</time>
      </trkpt>
      <trkpt lat="47.654994316399097" lon="11.641140757128596">
        <ele>1445.4794921875</ele>
        <time>2013-02-16T13:51:00Z</time>
      </trkpt>
      <trkpt lat="47.65503597445786" lon="11.641120389103889">
        <ele>1442.114990234375</ele>
        <time>2013-02-16T13:51:01Z</time>
      </trkpt>
      <trkpt lat="47.655073441565037" lon="11.641102116554976">
        <ele>1438.269775390625</ele>
        <time>2013-02-16T13:51:02Z</time>
      </trkpt>
      <trkpt lat="47.655140329152346" lon="11.641100356355309">
        <ele>1433.943603515625</ele>
        <time>2013-02-16T13:51:04Z</time>
      </trkpt>
      <trkpt lat="47.655218783766031" lon="11.641093147918582">
        <ele>1429.136962890625</ele>
        <time>2013-02-16T13:51:07Z</time>
      </trkpt>
      <trkpt lat="47.655284414067864" lon="11.641039587557316">
        <ele>1425.291748046875</ele>
        <time>2013-02-16T13:51:09Z</time>
      </trkpt>
      <trkpt lat="47.65530763193965" lon="11.641023075208068">
        <ele>1420.966064453125</ele>
        <time>2013-02-16T13:51:10Z</time>
      </trkpt>
      <trkpt lat="47.655328251421452" lon="11.640999438241124">
        <ele>1421.92724609375</ele>
        <time>2013-02-16T13:51:11Z</time>
      </trkpt>
      <trkpt lat="47.655370328575373" lon="11.640951661393046">
        <ele>1417.12060546875</ele>
        <time>2013-02-16T13:51:14Z</time>
      </trkpt>
      <trkpt lat="47.655409555882215" lon="11.640931628644466">
        <ele>1413.755859375</ele>
        <time>2013-02-16T13:51:15Z</time>
      </trkpt>
      <trkpt lat="47.655484154820442" lon="11.640838673338294">
        <ele>1409.43017578125</ele>
        <time>2013-02-16T13:51:17Z</time>
      </trkpt>
      <trkpt lat="47.655496643856168" lon="11.640775389969349">
        <ele>1407.02685546875</ele>
        <time>2013-02-16T13:51:19Z</time>
      </trkpt>
      <trkpt lat="47.655504522845149" lon="11.640784693881869">
        <ele>1407.02685546875</ele>
        <time>2013-02-16T13:51:37Z</time>
      </trkpt>
      <trkpt lat="47.655502343550324" lon="11.640772707760334">
        <ele>1407.98828125</ele>
        <time>2013-02-16T13:51:46Z</time>
      </trkpt>
      <trkpt lat="47.655502175912261" lon="11.640775054693222">
        <ele>1407.507568359375</ele>
        <time>2013-02-16T13:52:22Z</time>
      </trkpt>
      <trkpt lat="47.655567890033126" lon="11.640719817951322">
        <ele>1401.739501953125</ele>
        <time>2013-02-16T13:52:25Z</time>
      </trkpt>
      <trkpt lat="47.655701581388712" lon="11.640677992254496">
        <ele>1397.894287109375</ele>
        <time>2013-02-16T13:52:27Z</time>
      </trkpt>
      <trkpt lat="47.655770983546972" lon="11.640664748847485">
        <ele>1394.529541015625</ele>
        <time>2013-02-16T13:52:28Z</time>
      </trkpt>
      <trkpt lat="47.655895538628101" lon="11.640626192092896">
        <ele>1386.8388671875</ele>
        <time>2013-02-16T13:52:31Z</time>
      </trkpt>
      <trkpt lat="47.655914230272174" lon="11.640622252598405">
        <ele>1386.3583984375</ele>
        <time>2013-02-16T13:52:35Z</time>
      </trkpt>
      <trkpt lat="47.655904423445463" lon="11.640624683350325">
        <ele>1386.3583984375</ele>
        <time>2013-02-16T13:52:45Z</time>
      </trkpt>
      <trkpt lat="47.655902747064829" lon="11.640624096617103">
        <ele>1386.3583984375</ele>
        <time>2013-02-16T13:52:57Z</time>
      </trkpt>
      <trkpt lat="47.655902914702892" lon="11.640617977827787">
        <ele>1386.8388671875</ele>
        <time>2013-02-16T13:53:10Z</time>
      </trkpt>
      <trkpt lat="47.655904423445463" lon="11.640620995312929">
        <ele>1386.3583984375</ele>
        <time>2013-02-16T13:53:23Z</time>
      </trkpt>
      <trkpt lat="47.655897215008736" lon="11.640628539025784">
        <ele>1386.3583984375</ele>
        <time>2013-02-16T13:53:33Z</time>
      </trkpt>
      <trkpt lat="47.655898472294211" lon="11.640623258426785">
        <ele>1387.319580078125</ele>
        <time>2013-02-16T13:53:47Z</time>
      </trkpt>
      <trkpt lat="47.655900232493877" lon="11.640629041939974">
        <ele>1387.319580078125</ele>
        <time>2013-02-16T13:54:04Z</time>
      </trkpt>
      <trkpt lat="47.65593602322042" lon="11.640493674203753">
        <ele>1383.474365234375</ele>
        <time>2013-02-16T13:54:08Z</time>
      </trkpt>
      <trkpt lat="47.655946165323257" lon="11.640438186004758">
        <ele>1382.99365234375</ele>
        <time>2013-02-16T13:54:09Z</time>
      </trkpt>
      <trkpt lat="47.655955301597714" lon="11.640392253175378">
        <ele>1382.032470703125</ele>
        <time>2013-02-16T13:54:12Z</time>
      </trkpt>
      <trkpt lat="47.65599955804646" lon="11.640430390834808">
        <ele>1377.70654296875</ele>
        <time>2013-02-16T13:54:15Z</time>
      </trkpt>
      <trkpt lat="47.656004754826427" lon="11.640439443290234">
        <ele>1375.783935546875</ele>
        <time>2013-02-16T13:54:18Z</time>
      </trkpt>
      <trkpt lat="47.655996037647128" lon="11.64043097756803">
        <ele>1370.977294921875</ele>
        <time>2013-02-16T13:54:19Z</time>
      </trkpt>
      <trkpt lat="47.65599075704813" lon="11.640425948426127">
        <ele>1380.10986328125</ele>
        <time>2013-02-16T13:54:20Z</time>
      </trkpt>
      <trkpt lat="47.655987069010735" lon="11.640424523502588">
        <ele>1377.22607421875</ele>
        <time>2013-02-16T13:54:21Z</time>
      </trkpt>
      <trkpt lat="47.655981285497546" lon="11.640426199883223">
        <ele>1371.9384765625</ele>
        <time>2013-02-16T13:54:23Z</time>
      </trkpt>
      <trkpt lat="47.655980112031102" lon="11.640426116064191">
        <ele>1378.66796875</ele>
        <time>2013-02-16T13:54:24Z</time>
      </trkpt>
      <trkpt lat="47.655980195850134" lon="11.640425780788064">
        <ele>1377.22607421875</ele>
        <time>2013-02-16T13:54:25Z</time>
      </trkpt>
      <trkpt lat="47.655980698764324" lon="11.640425277873874">
        <ele>1372.41943359375</ele>
        <time>2013-02-16T13:54:26Z</time>
      </trkpt>
      <trkpt lat="47.655981201678514" lon="11.640424691140652">
        <ele>1374.342041015625</ele>
        <time>2013-02-16T13:54:27Z</time>
      </trkpt>
      <trkpt lat="47.655981285497546" lon="11.640424691140652">
        <ele>1380.590576171875</ele>
        <time>2013-02-16T13:54:28Z</time>
      </trkpt>
      <trkpt lat="47.65598145313561" lon="11.640424691140652">
        <ele>1377.70654296875</ele>
        <time>2013-02-16T13:54:29Z</time>
      </trkpt>
      <trkpt lat="47.655981285497546" lon="11.640423852950335">
        <ele>1376.2646484375</ele>
        <time>2013-02-16T13:54:33Z</time>
      </trkpt>
      <trkpt lat="47.655981201678514" lon="11.640423517674208">
        <ele>1358.9609375</ele>
        <time>2013-02-16T13:54:37Z</time>
      </trkpt>
      <trkpt lat="47.655980866402388" lon="11.640419578179717">
        <ele>1377.70654296875</ele>
        <time>2013-02-16T13:54:38Z</time>
      </trkpt>
      <trkpt lat="47.655973071232438" lon="11.640406418591738">
        <ele>1376.745361328125</ele>
        <time>2013-02-16T13:54:42Z</time>
      </trkpt>
      <trkpt lat="47.655972819775343" lon="11.640404239296913">
        <ele>1375.783935546875</ele>
        <time>2013-02-16T13:54:53Z</time>
      </trkpt>
      <trkpt lat="47.65597265213728" lon="11.640404742211103">
        <ele>1381.5517578125</ele>
        <time>2013-02-16T13:55:00Z</time>
      </trkpt>
      <trkpt lat="47.655972735956311" lon="11.640404742211103">
        <ele>1377.22607421875</ele>
        <time>2013-02-16T13:55:01Z</time>
      </trkpt>
      <trkpt lat="47.655971981585026" lon="11.640405664220452">
        <ele>1366.170654296875</ele>
        <time>2013-02-16T13:55:02Z</time>
      </trkpt>
      <trkpt lat="47.655970891937613" lon="11.640405496582389">
        <ele>1373.861328125</ele>
        <time>2013-02-16T13:55:03Z</time>
      </trkpt>
      <trkpt lat="47.655970137566328" lon="11.640405328944325">
        <ele>1380.590576171875</ele>
        <time>2013-02-16T13:55:04Z</time>
      </trkpt>
      <trkpt lat="47.655969718471169" lon="11.640405245125294">
        <ele>1379.629150390625</ele>
        <time>2013-02-16T13:55:05Z</time>
      </trkpt>
      <trkpt lat="47.655969634652138" lon="11.64040507748723">
        <ele>1375.783935546875</ele>
        <time>2013-02-16T13:55:06Z</time>
      </trkpt>
      <trkpt lat="47.655970137566328" lon="11.64040507748723">
        <ele>1380.10986328125</ele>
        <time>2013-02-16T13:55:09Z</time>
      </trkpt>
      <trkpt lat="47.655970137566328" lon="11.64040507748723">
        <ele>1379.1484375</ele>
        <time>2013-02-16T13:55:10Z</time>
      </trkpt>
      <trkpt lat="47.655976423993707" lon="11.640397198498249">
        <ele>1377.70654296875</ele>
        <time>2013-02-16T13:55:30Z</time>
      </trkpt>
      <trkpt lat="47.655982542783022" lon="11.640392504632473">
        <ele>1377.70654296875</ele>
        <time>2013-02-16T13:55:55Z</time>
      </trkpt>
      <trkpt lat="47.656048340722919" lon="11.640337686985731">
        <ele>1374.342041015625</ele>
        <time>2013-02-16T13:55:59Z</time>
      </trkpt>
      <trkpt lat="47.656061500310898" lon="11.64032980799675">
        <ele>1374.342041015625</ele>
        <time>2013-02-16T13:56:00Z</time>
      </trkpt>
      <trkpt lat="47.656053705140948" lon="11.640334250405431">
        <ele>1373.380859375</ele>
        <time>2013-02-16T13:56:09Z</time>
      </trkpt>
      <trkpt lat="47.656123526394367" lon="11.640279432758689">
        <ele>1368.573974609375</ele>
        <time>2013-02-16T13:56:12Z</time>
      </trkpt>
      <trkpt lat="47.656191419810057" lon="11.640202151611447">
        <ele>1363.286865234375</ele>
        <time>2013-02-16T13:56:14Z</time>
      </trkpt>
      <trkpt lat="47.656290242448449" lon="11.640197625383735">
        <ele>1359.441650390625</ele>
        <time>2013-02-16T13:56:17Z</time>
      </trkpt>
      <trkpt lat="47.656350759789348" lon="11.640172060579062">
        <ele>1356.5576171875</ele>
        <time>2013-02-16T13:56:19Z</time>
      </trkpt>
      <trkpt lat="47.656411193311214" lon="11.640095114707947">
        <ele>1351.7509765625</ele>
        <time>2013-02-16T13:56:21Z</time>
      </trkpt>
      <trkpt lat="47.656537760049105" lon="11.640063179656863">
        <ele>1345.983154296875</ele>
        <time>2013-02-16T13:56:24Z</time>
      </trkpt>
      <trkpt lat="47.656568186357617" lon="11.640041721984744">
        <ele>1345.021728515625</ele>
        <time>2013-02-16T13:56:26Z</time>
      </trkpt>
      <trkpt lat="47.656549410894513" lon="11.640044152736664">
        <ele>1344.541015625</ele>
        <time>2013-02-16T13:56:40Z</time>
      </trkpt>
      <trkpt lat="47.656550165265799" lon="11.640046080574393">
        <ele>1345.021728515625</ele>
        <time>2013-02-16T13:57:03Z</time>
      </trkpt>
      <trkpt lat="47.656554020941257" lon="11.640047337859869">
        <ele>1345.50244140625</ele>
        <time>2013-02-16T13:57:40Z</time>
      </trkpt>
      <trkpt lat="47.656565587967634" lon="11.640050271525979">
        <ele>1345.021728515625</ele>
        <time>2013-02-16T13:57:45Z</time>
      </trkpt>
      <trkpt lat="47.656676061451435" lon="11.640098132193089">
        <ele>1343.09912109375</ele>
        <time>2013-02-16T13:57:50Z</time>
      </trkpt>
      <trkpt lat="47.656724005937576" lon="11.640063263475895">
        <ele>1339.253662109375</ele>
        <time>2013-02-16T13:57:52Z</time>
      </trkpt>
      <trkpt lat="47.656774716451764" lon="11.640003584325314">
        <ele>1333.005126953125</ele>
        <time>2013-02-16T13:57:54Z</time>
      </trkpt>
      <trkpt lat="47.656887285411358" lon="11.639989670366049">
        <ele>1328.679443359375</ele>
        <time>2013-02-16T13:57:57Z</time>
      </trkpt>
      <trkpt lat="47.656925758346915" lon="11.639977768063545">
        <ele>1325.79541015625</ele>
        <time>2013-02-16T13:57:59Z</time>
      </trkpt>
      <trkpt lat="47.656970769166946" lon="11.640014313161373">
        <ele>1323.39208984375</ele>
        <time>2013-02-16T13:58:02Z</time>
      </trkpt>
      <trkpt lat="47.656955765560269" lon="11.639998806640506">
        <ele>1321.949951171875</ele>
        <time>2013-02-16T13:58:06Z</time>
      </trkpt>
      <trkpt lat="47.656963644549251" lon="11.639988999813795">
        <ele>1322.4306640625</ele>
        <time>2013-02-16T13:58:07Z</time>
      </trkpt>
      <trkpt lat="47.657027514651418" lon="11.639981037005782">
        <ele>1319.546875</ele>
        <time>2013-02-16T13:58:10Z</time>
      </trkpt>
      <trkpt lat="47.657057857140899" lon="11.639968967065215">
        <ele>1315.220947265625</ele>
        <time>2013-02-16T13:58:12Z</time>
      </trkpt>
      <trkpt lat="47.65706087462604" lon="11.639876514673233">
        <ele>1311.375732421875</ele>
        <time>2013-02-16T13:58:16Z</time>
      </trkpt>
      <trkpt lat="47.657108986750245" lon="11.63991155102849">
        <ele>1309.453125</ele>
        <time>2013-02-16T13:58:18Z</time>
      </trkpt>
      <trkpt lat="47.657186686992645" lon="11.640008026733994">
        <ele>1303.68505859375</ele>
        <time>2013-02-16T13:58:23Z</time>
      </trkpt>
      <trkpt lat="47.657192386686802" lon="11.639977348968387">
        <ele>1304.165771484375</ele>
        <time>2013-02-16T13:58:31Z</time>
      </trkpt>
      <trkpt lat="47.657269751653075" lon="11.639884561300278">
        <ele>1298.87841796875</ele>
        <time>2013-02-16T13:58:36Z</time>
      </trkpt>
      <trkpt lat="47.657348457723856" lon="11.639959495514631">
        <ele>1295.99462890625</ele>
        <time>2013-02-16T13:58:38Z</time>
      </trkpt>
      <trkpt lat="47.657373351976275" lon="11.640056222677231">
        <ele>1294.552490234375</ele>
        <time>2013-02-16T13:58:40Z</time>
      </trkpt>
      <trkpt lat="47.657387852668762" lon="11.640089079737663">
        <ele>1293.59130859375</ele>
        <time>2013-02-16T13:58:45Z</time>
      </trkpt>
      <trkpt lat="47.657362790778279" lon="11.639992604032159">
        <ele>1293.110595703125</ele>
        <time>2013-02-16T13:58:54Z</time>
      </trkpt>
      <trkpt lat="47.657358348369598" lon="11.639972990378737">
        <ele>1293.110595703125</ele>
        <time>2013-02-16T13:59:05Z</time>
      </trkpt>
      <trkpt lat="47.657365053892136" lon="11.639987491071224">
        <ele>1293.59130859375</ele>
        <time>2013-02-16T13:59:55Z</time>
      </trkpt>
      <trkpt lat="47.657339824363589" lon="11.639933679252863">
        <ele>1294.072021484375</ele>
        <time>2013-02-16T14:00:02Z</time>
      </trkpt>
      <trkpt lat="47.657330352813005" lon="11.63980602286756">
        <ele>1293.59130859375</ele>
        <time>2013-02-16T14:00:13Z</time>
      </trkpt>
      <trkpt lat="47.657328005880117" lon="11.639766963198781">
        <ele>1293.59130859375</ele>
        <time>2013-02-16T14:00:19Z</time>
      </trkpt>
      <trkpt lat="47.657331693917513" lon="11.639771657064557">
        <ele>1294.072021484375</ele>
        <time>2013-02-16T14:00:26Z</time>
      </trkpt>
      <trkpt lat="47.65731543302536" lon="11.639761934056878">
        <ele>1294.072021484375</ele>
        <time>2013-02-16T14:00:36Z</time>
      </trkpt>
      <trkpt lat="47.657307973131537" lon="11.639830162748694">
        <ele>1294.072021484375</ele>
        <time>2013-02-16T14:00:43Z</time>
      </trkpt>
      <trkpt lat="47.657305374741554" lon="11.639906270429492">
        <ele>1293.59130859375</ele>
        <time>2013-02-16T14:00:49Z</time>
      </trkpt>
      <trkpt lat="47.657308895140886" lon="11.640029400587082">
        <ele>1294.072021484375</ele>
        <time>2013-02-16T14:00:55Z</time>
      </trkpt>
      <trkpt lat="47.657313672825694" lon="11.640121769160032">
        <ele>1294.552490234375</ele>
        <time>2013-02-16T14:01:03Z</time>
      </trkpt>
      <trkpt lat="47.65731493011117" lon="11.640171809121966">
        <ele>1294.552490234375</ele>
        <time>2013-02-16T14:01:11Z</time>
      </trkpt>
      <trkpt lat="47.657318115234375" lon="11.640227800235152">
        <ele>1294.552490234375</ele>
        <time>2013-02-16T14:01:19Z</time>
      </trkpt>
      <trkpt lat="47.657317528501153" lon="11.640310026705265">
        <ele>1295.513916015625</ele>
        <time>2013-02-16T14:01:30Z</time>
      </trkpt>
      <trkpt lat="47.657334292307496" lon="11.640370292589068">
        <ele>1295.99462890625</ele>
        <time>2013-02-16T14:01:38Z</time>
      </trkpt>
      <trkpt lat="47.657352397218347" lon="11.640418823808432">
        <ele>1296.475341796875</ele>
        <time>2013-02-16T14:01:46Z</time>
      </trkpt>
      <trkpt lat="47.657361617311835" lon="11.640479927882552">
        <ele>1296.955810546875</ele>
        <time>2013-02-16T14:01:54Z</time>
      </trkpt>
      <trkpt lat="47.657369747757912" lon="11.640545642003417">
        <ele>1297.4365234375</ele>
        <time>2013-02-16T14:02:02Z</time>
      </trkpt>
      <trkpt lat="47.657382823526859" lon="11.640602219849825">
        <ele>1297.4365234375</ele>
        <time>2013-02-16T14:02:09Z</time>
      </trkpt>
      <trkpt lat="47.657385254278779" lon="11.640667682513595">
        <ele>1298.397705078125</ele>
        <time>2013-02-16T14:02:17Z</time>
      </trkpt>
      <trkpt lat="47.65740092843771" lon="11.640707245096564">
        <ele>1298.397705078125</ele>
        <time>2013-02-16T14:02:23Z</time>
      </trkpt>
      <trkpt lat="47.657397575676441" lon="11.640776144340634">
        <ele>1298.87841796875</ele>
        <time>2013-02-16T14:02:30Z</time>
      </trkpt>
      <trkpt lat="47.657401850447059" lon="11.640909248962998">
        <ele>1298.397705078125</ele>
        <time>2013-02-16T14:02:42Z</time>
      </trkpt>
      <trkpt lat="47.657408472150564" lon="11.641007987782359">
        <ele>1299.359130859375</ele>
        <time>2013-02-16T14:02:49Z</time>
      </trkpt>
      <trkpt lat="47.657422721385956" lon="11.641064817085862">
        <ele>1298.397705078125</ele>
        <time>2013-02-16T14:02:53Z</time>
      </trkpt>
      <trkpt lat="47.657501008361578" lon="11.641154754906893">
        <ele>1298.87841796875</ele>
        <time>2013-02-16T14:03:01Z</time>
      </trkpt>
      <trkpt lat="47.657650373876095" lon="11.641142182052135">
        <ele>1298.397705078125</ele>
        <time>2013-02-16T14:03:14Z</time>
      </trkpt>
      <trkpt lat="47.657726816833019" lon="11.641151318326592">
        <ele>1298.87841796875</ele>
        <time>2013-02-16T14:03:22Z</time>
      </trkpt>
      <trkpt lat="47.657798733562231" lon="11.641251649707556">
        <ele>1298.87841796875</ele>
        <time>2013-02-16T14:03:32Z</time>
      </trkpt>
      <trkpt lat="47.657814156264067" lon="11.641318202018738">
        <ele>1298.87841796875</ele>
        <time>2013-02-16T14:03:37Z</time>
      </trkpt>
      <trkpt lat="47.657851371914148" lon="11.641409816220403">
        <ele>1298.87841796875</ele>
        <time>2013-02-16T14:03:42Z</time>
      </trkpt>
      <trkpt lat="47.657889174297452" lon="11.641511907801032">
        <ele>1298.87841796875</ele>
        <time>2013-02-16T14:03:47Z</time>
      </trkpt>
      <trkpt lat="47.657941477373242" lon="11.641629505902529">
        <ele>1299.359130859375</ele>
        <time>2013-02-16T14:03:58Z</time>
      </trkpt>
      <trkpt lat="47.65796871855855" lon="11.641726484522223">
        <ele>1299.359130859375</ele>
        <time>2013-02-16T14:04:08Z</time>
      </trkpt>
      <trkpt lat="47.657960336655378" lon="11.641813488677144">
        <ele>1299.83984375</ele>
        <time>2013-02-16T14:04:17Z</time>
      </trkpt>
      <trkpt lat="47.657951284199953" lon="11.641915328800678">
        <ele>1300.320556640625</ele>
        <time>2013-02-16T14:04:29Z</time>
      </trkpt>
      <trkpt lat="47.657950781285763" lon="11.641936954110861">
        <ele>1300.320556640625</ele>
        <time>2013-02-16T14:04:31Z</time>
      </trkpt>
      <trkpt lat="47.657934855669737" lon="11.642031585797668">
        <ele>1300.801025390625</ele>
        <time>2013-02-16T14:04:38Z</time>
      </trkpt>
      <trkpt lat="47.657911721616983" lon="11.642154715955257">
        <ele>1299.83984375</ele>
        <time>2013-02-16T14:04:46Z</time>
      </trkpt>
      <trkpt lat="47.657854640856385" lon="11.642312631011009">
        <ele>1299.359130859375</ele>
        <time>2013-02-16T14:04:55Z</time>
      </trkpt>
      <trkpt lat="47.657771743834019" lon="11.642484040930867">
        <ele>1298.87841796875</ele>
        <time>2013-02-16T14:05:02Z</time>
      </trkpt>
      <trkpt lat="47.657706867903471" lon="11.642600381746888">
        <ele>1299.83984375</ele>
        <time>2013-02-16T14:05:07Z</time>
      </trkpt>
      <trkpt lat="47.657709298655391" lon="11.642783442512155">
        <ele>1298.87841796875</ele>
        <time>2013-02-16T14:05:14Z</time>
      </trkpt>
      <trkpt lat="47.657738635316491" lon="11.642915876582265">
        <ele>1299.83984375</ele>
        <time>2013-02-16T14:05:26Z</time>
      </trkpt>
      <trkpt lat="47.657762356102467" lon="11.643018135800958">
        <ele>1299.83984375</ele>
        <time>2013-02-16T14:05:35Z</time>
      </trkpt>
      <trkpt lat="47.657806193456054" lon="11.643166914582253">
        <ele>1300.801025390625</ele>
        <time>2013-02-16T14:05:49Z</time>
      </trkpt>
      <trkpt lat="47.657798565924168" lon="11.643179655075073">
        <ele>1300.320556640625</ele>
        <time>2013-02-16T14:06:00Z</time>
      </trkpt>
      <trkpt lat="47.657816503196955" lon="11.643186192959547">
        <ele>1299.83984375</ele>
        <time>2013-02-16T14:06:08Z</time>
      </trkpt>
      <trkpt lat="47.657816000282764" lon="11.64318485185504">
        <ele>1300.320556640625</ele>
        <time>2013-02-16T14:07:24Z</time>
      </trkpt>
      <trkpt lat="47.657834021374583" lon="11.643203040584922">
        <ele>1301.28173828125</ele>
        <time>2013-02-16T14:07:55Z</time>
      </trkpt>
      <trkpt lat="47.657896382734179" lon="11.643335223197937">
        <ele>1301.762451171875</ele>
        <time>2013-02-16T14:08:08Z</time>
      </trkpt>
      <trkpt lat="47.657956648617983" lon="11.643424574285746">
        <ele>1301.762451171875</ele>
        <time>2013-02-16T14:08:19Z</time>
      </trkpt>
      <trkpt lat="47.658033510670066" lon="11.643563294783235">
        <ele>1302.242919921875</ele>
        <time>2013-02-16T14:08:30Z</time>
      </trkpt>
      <trkpt lat="47.65810651704669" lon="11.643683658912778">
        <ele>1302.242919921875</ele>
        <time>2013-02-16T14:08:43Z</time>
      </trkpt>
      <trkpt lat="47.65814607962966" lon="11.643734704703093">
        <ele>1302.242919921875</ele>
        <time>2013-02-16T14:08:49Z</time>
      </trkpt>
      <trkpt lat="47.658240543678403" lon="11.64387091062963">
        <ele>1302.7236328125</ele>
        <time>2013-02-16T14:09:03Z</time>
      </trkpt>
      <trkpt lat="47.6583166513592" lon="11.643972331658006">
        <ele>1303.204345703125</ele>
        <time>2013-02-16T14:09:15Z</time>
      </trkpt>
      <trkpt lat="47.658398458734155" lon="11.644094791263342">
        <ele>1303.68505859375</ele>
        <time>2013-02-16T14:09:32Z</time>
      </trkpt>
      <trkpt lat="47.658517900854349" lon="11.644170060753822">
        <ele>1305.126953125</ele>
        <time>2013-02-16T14:09:49Z</time>
      </trkpt>
      <trkpt lat="47.658596942201257" lon="11.644160505384207">
        <ele>1306.088134765625</ele>
        <time>2013-02-16T14:10:04Z</time>
      </trkpt>
      <trkpt lat="47.658701045438647" lon="11.644219094887376">
        <ele>1306.56884765625</ele>
        <time>2013-02-16T14:10:20Z</time>
      </trkpt>
      <trkpt lat="47.658728621900082" lon="11.644274415448308">
        <ele>1308.01123046875</ele>
        <time>2013-02-16T14:10:27Z</time>
      </trkpt>
      <trkpt lat="47.658768016844988" lon="11.644434174522758">
        <ele>1309.453125</ele>
        <time>2013-02-16T14:10:46Z</time>
      </trkpt>
      <trkpt lat="47.658834401518106" lon="11.644496116787195">
        <ele>1309.453125</ele>
        <time>2013-02-16T14:10:59Z</time>
      </trkpt>
      <trkpt lat="47.658915119245648" lon="11.644499637186527">
        <ele>1309.93359375</ele>
        <time>2013-02-16T14:11:14Z</time>
      </trkpt>
      <trkpt lat="47.658973289653659" lon="11.644446160644293">
        <ele>1311.375732421875</ele>
        <time>2013-02-16T14:11:26Z</time>
      </trkpt>
      <trkpt lat="47.659068927168846" lon="11.644434258341789">
        <ele>1312.3369140625</ele>
        <time>2013-02-16T14:11:39Z</time>
      </trkpt>
      <trkpt lat="47.659160625189543" lon="11.644441718235612">
        <ele>1312.817626953125</ele>
        <time>2013-02-16T14:11:51Z</time>
      </trkpt>
      <trkpt lat="47.659272020682693" lon="11.644406346604228">
        <ele>1314.259521484375</ele>
        <time>2013-02-16T14:12:10Z</time>
      </trkpt>
      <trkpt lat="47.659381320700049" lon="11.644338956102729">
        <ele>1314.740234375</ele>
        <time>2013-02-16T14:12:27Z</time>
      </trkpt>
      <trkpt lat="47.659433959051967" lon="11.644260250031948">
        <ele>1315.220947265625</ele>
        <time>2013-02-16T14:12:39Z</time>
      </trkpt>
      <trkpt lat="47.659515766426921" lon="11.644208449870348">
        <ele>1316.662841796875</ele>
        <time>2013-02-16T14:12:53Z</time>
      </trkpt>
      <trkpt lat="47.659622803330421" lon="11.644151117652655">
        <ele>1316.662841796875</ele>
        <time>2013-02-16T14:13:07Z</time>
      </trkpt>
      <trkpt lat="47.659728582948446" lon="11.644093953073025">
        <ele>1317.1435546875</ele>
        <time>2013-02-16T14:13:22Z</time>
      </trkpt>
      <trkpt lat="47.659772839397192" lon="11.644062269479036">
        <ele>1317.1435546875</ele>
        <time>2013-02-16T14:13:28Z</time>
      </trkpt>
      <trkpt lat="47.659908123314381" lon="11.643987167626619">
        <ele>1317.6240234375</ele>
        <time>2013-02-16T14:13:43Z</time>
      </trkpt>
      <trkpt lat="47.660022871568799" lon="11.643911981955171">
        <ele>1317.1435546875</ele>
        <time>2013-02-16T14:13:57Z</time>
      </trkpt>
      <trkpt lat="47.66014507971704" lon="11.643857751041651">
        <ele>1316.662841796875</ele>
        <time>2013-02-16T14:14:11Z</time>
      </trkpt>
      <trkpt lat="47.660144325345755" lon="11.643851296976209">
        <ele>1317.6240234375</ele>
        <time>2013-02-16T14:14:33Z</time>
      </trkpt>
      <trkpt lat="47.660144157707691" lon="11.643847776576877">
        <ele>1317.1435546875</ele>
        <time>2013-02-16T14:15:00Z</time>
      </trkpt>
      <trkpt lat="47.660140972584486" lon="11.643840400502086">
        <ele>1317.1435546875</ele>
        <time>2013-02-16T14:15:07Z</time>
      </trkpt>
      <trkpt lat="47.660138374194503" lon="11.643835790455341">
        <ele>1318.104736328125</ele>
        <time>2013-02-16T14:16:03Z</time>
      </trkpt>
      <trkpt lat="47.660139296203852" lon="11.643835036084056">
        <ele>1317.6240234375</ele>
        <time>2013-02-16T14:16:48Z</time>
      </trkpt>
      <trkpt lat="47.660142397508025" lon="11.643822463229299">
        <ele>1317.6240234375</ele>
        <time>2013-02-16T14:17:10Z</time>
      </trkpt>
      <trkpt lat="47.660191431641579" lon="11.643709978088737">
        <ele>1315.220947265625</ele>
        <time>2013-02-16T14:17:14Z</time>
      </trkpt>
      <trkpt lat="47.660345658659935" lon="11.643484504893422">
        <ele>1311.375732421875</ele>
        <time>2013-02-16T14:17:18Z</time>
      </trkpt>
      <trkpt lat="47.660415060818195" lon="11.643409989774227">
        <ele>1310.89501953125</ele>
        <time>2013-02-16T14:17:19Z</time>
      </trkpt>
      <trkpt lat="47.660475075244904" lon="11.643347460776567">
        <ele>1309.93359375</ele>
        <time>2013-02-16T14:17:20Z</time>
      </trkpt>
      <trkpt lat="47.660574819892645" lon="11.643164651468396">
        <ele>1305.126953125</ele>
        <time>2013-02-16T14:17:23Z</time>
      </trkpt>
      <trkpt lat="47.660610610619187" lon="11.643023500218987">
        <ele>1302.242919921875</ele>
        <time>2013-02-16T14:17:25Z</time>
      </trkpt>
      <trkpt lat="47.660754024982452" lon="11.642825100570917">
        <ele>1297.917236328125</ele>
        <time>2013-02-16T14:17:29Z</time>
      </trkpt>
      <trkpt lat="47.660795766860247" lon="11.642793752253056">
        <ele>1296.475341796875</ele>
        <time>2013-02-16T14:17:30Z</time>
      </trkpt>
      <trkpt lat="47.660906994715333" lon="11.642625611275434">
        <ele>1293.110595703125</ele>
        <time>2013-02-16T14:17:34Z</time>
      </trkpt>
      <trkpt lat="47.661035573109984" lon="11.642472390085459">
        <ele>1289.745849609375</ele>
        <time>2013-02-16T14:17:38Z</time>
      </trkpt>
      <trkpt lat="47.661164151504636" lon="11.642293352633715">
        <ele>1286.38134765625</ele>
        <time>2013-02-16T14:17:42Z</time>
      </trkpt>
      <trkpt lat="47.661270350217819" lon="11.642178939655423">
        <ele>1283.497314453125</ele>
        <time>2013-02-16T14:17:45Z</time>
      </trkpt>
      <trkpt lat="47.66134268604219" lon="11.641960674896836">
        <ele>1278.210205078125</ele>
        <time>2013-02-16T14:17:49Z</time>
      </trkpt>
      <trkpt lat="47.661466570571065" lon="11.641809968277812">
        <ele>1274.36474609375</ele>
        <time>2013-02-16T14:17:53Z</time>
      </trkpt>
      <trkpt lat="47.661491548642516" lon="11.641775099560618">
        <ele>1274.36474609375</ele>
        <time>2013-02-16T14:17:54Z</time>
      </trkpt>
      <trkpt lat="47.661543851718307" lon="11.6416896879673">
        <ele>1272.442138671875</ele>
        <time>2013-02-16T14:17:56Z</time>
      </trkpt>
      <trkpt lat="47.661601183936" lon="11.641599917784333">
        <ele>1271.000244140625</ele>
        <time>2013-02-16T14:17:58Z</time>
      </trkpt>
      <trkpt lat="47.661731103435159" lon="11.641426160931587">
        <ele>1267.635498046875</ele>
        <time>2013-02-16T14:18:02Z</time>
      </trkpt>
      <trkpt lat="47.66179271042347" lon="11.641322392970324">
        <ele>1265.713134765625</ele>
        <time>2013-02-16T14:18:04Z</time>
      </trkpt>
      <trkpt lat="47.66193050891161" lon="11.641101697459817">
        <ele>1261.38720703125</ele>
        <time>2013-02-16T14:18:08Z</time>
      </trkpt>
      <trkpt lat="47.662051459774375" lon="11.640926850959659">
        <ele>1256.580322265625</ele>
        <time>2013-02-16T14:18:11Z</time>
      </trkpt>
      <trkpt lat="47.662098985165358" lon="11.64088343270123">
        <ele>1256.099609375</ele>
        <time>2013-02-16T14:18:12Z</time>
      </trkpt>
      <trkpt lat="47.662192275747657" lon="11.640773294493556">
        <ele>1254.17724609375</ele>
        <time>2013-02-16T14:18:15Z</time>
      </trkpt>
      <trkpt lat="47.662226725369692" lon="11.640666089951992">
        <ele>1252.735107421875</ele>
        <time>2013-02-16T14:18:17Z</time>
      </trkpt>
      <trkpt lat="47.662328900769353" lon="11.640484286472201">
        <ele>1247.9287109375</ele>
        <time>2013-02-16T14:18:20Z</time>
      </trkpt>
      <trkpt lat="47.662370810285211" lon="11.640432234853506">
        <ele>1246.96728515625</ele>
        <time>2013-02-16T14:18:21Z</time>
      </trkpt>
      <trkpt lat="47.662562420591712" lon="11.640325449407101">
        <ele>1239.276611328125</ele>
        <time>2013-02-16T14:18:25Z</time>
      </trkpt>
      <trkpt lat="47.662717569619417" lon="11.640446987003088">
        <ele>1235.912109375</ele>
        <time>2013-02-16T14:18:29Z</time>
      </trkpt>
      <trkpt lat="47.662747157737613" lon="11.640450172126293">
        <ele>1234.47021484375</ele>
        <time>2013-02-16T14:18:30Z</time>
      </trkpt>
      <trkpt lat="47.662808848544955" lon="11.640402898192406">
        <ele>1233.5087890625</ele>
        <time>2013-02-16T14:18:34Z</time>
      </trkpt>
      <trkpt lat="47.662801472470164" lon="11.640386553481221">
        <ele>1233.028076171875</ele>
        <time>2013-02-16T14:18:50Z</time>
      </trkpt>
      <trkpt lat="47.662808848544955" lon="11.640381524339318">
        <ele>1233.028076171875</ele>
        <time>2013-02-16T14:19:06Z</time>
      </trkpt>
      <trkpt lat="47.66292342916131" lon="11.640334585681558">
        <ele>1228.702392578125</ele>
        <time>2013-02-16T14:19:10Z</time>
      </trkpt>
      <trkpt lat="47.663012025877833" lon="11.640283456072211">
        <ele>1226.298828125</ele>
        <time>2013-02-16T14:19:12Z</time>
      </trkpt>
      <trkpt lat="47.66303432174027" lon="11.64017784409225">
        <ele>1222.45361328125</ele>
        <time>2013-02-16T14:19:16Z</time>
      </trkpt>
      <trkpt lat="47.663123421370983" lon="11.640087822452188">
        <ele>1219.089111328125</ele>
        <time>2013-02-16T14:19:18Z</time>
      </trkpt>
      <trkpt lat="47.663210676982999" lon="11.639993106946349">
        <ele>1214.76318359375</ele>
        <time>2013-02-16T14:19:20Z</time>
      </trkpt>
      <trkpt lat="47.663285359740257" lon="11.639948347583413">
        <ele>1209.475830078125</ele>
        <time>2013-02-16T14:19:22Z</time>
      </trkpt>
      <trkpt lat="47.663374124094844" lon="11.63993795402348">
        <ele>1205.14990234375</ele>
        <time>2013-02-16T14:19:25Z</time>
      </trkpt>
      <trkpt lat="47.663407064974308" lon="11.639934936538339">
        <ele>1202.74658203125</ele>
        <time>2013-02-16T14:19:26Z</time>
      </trkpt>
      <trkpt lat="47.663525585085154" lon="11.639886740595102">
        <ele>1197.940185546875</ele>
        <time>2013-02-16T14:19:29Z</time>
      </trkpt>
      <trkpt lat="47.663556346669793" lon="11.639862433075905">
        <ele>1197.45947265625</ele>
        <time>2013-02-16T14:19:30Z</time>
      </trkpt>
      <trkpt lat="47.663633124902844" lon="11.639804765582085">
        <ele>1194.0947265625</ele>
        <time>2013-02-16T14:19:33Z</time>
      </trkpt>
      <trkpt lat="47.66363438218832" lon="11.639804681763053">
        <ele>1193.614013671875</ele>
        <time>2013-02-16T14:19:36Z</time>
      </trkpt>
      <trkpt lat="47.663686769083142" lon="11.639749696478248">
        <ele>1189.768798828125</ele>
        <time>2013-02-16T14:19:40Z</time>
      </trkpt>
      <trkpt lat="47.663730606436729" lon="11.639758832752705">
        <ele>1185.44287109375</ele>
        <time>2013-02-16T14:19:43Z</time>
      </trkpt>
      <trkpt lat="47.663724906742573" lon="11.639756318181753">
        <ele>1182.55908203125</ele>
        <time>2013-02-16T14:19:45Z</time>
      </trkpt>
      <trkpt lat="47.663720715790987" lon="11.639755982905626">
        <ele>1188.326904296875</ele>
        <time>2013-02-16T14:19:46Z</time>
      </trkpt>
      <trkpt lat="47.663718368858099" lon="11.639758329838514">
        <ele>1188.326904296875</ele>
        <time>2013-02-16T14:19:47Z</time>
      </trkpt>
      <trkpt lat="47.663712752982974" lon="11.639759419485927">
        <ele>1186.404296875</ele>
        <time>2013-02-16T14:19:49Z</time>
      </trkpt>
      <trkpt lat="47.663729013875127" lon="11.639758916571736">
        <ele>1185.923583984375</ele>
        <time>2013-02-16T14:20:04Z</time>
      </trkpt>
      <trkpt lat="47.663729768246412" lon="11.63974734954536">
        <ele>1185.923583984375</ele>
        <time>2013-02-16T14:20:14Z</time>
      </trkpt>
      <trkpt lat="47.663802271708846" lon="11.639694292098284">
        <ele>1182.078369140625</ele>
        <time>2013-02-16T14:20:18Z</time>
      </trkpt>
      <trkpt lat="47.663843845948577" lon="11.639662189409137">
        <ele>1178.713623046875</ele>
        <time>2013-02-16T14:20:20Z</time>
      </trkpt>
      <trkpt lat="47.663905620574951" lon="11.639596978202462">
        <ele>1174.868408203125</ele>
        <time>2013-02-16T14:20:23Z</time>
      </trkpt>
      <trkpt lat="47.663953481242061" lon="11.639533527195454">
        <ele>1171.984375</ele>
        <time>2013-02-16T14:20:26Z</time>
      </trkpt>
      <trkpt lat="47.663976363837719" lon="11.639539981260896">
        <ele>1171.984375</ele>
        <time>2013-02-16T14:20:27Z</time>
      </trkpt>
      <trkpt lat="47.664049454033375" lon="11.639533191919327">
        <ele>1166.697265625</ele>
        <time>2013-02-16T14:20:30Z</time>
      </trkpt>
      <trkpt lat="47.664110641926527" lon="11.639583315700293">
        <ele>1161.890625</ele>
        <time>2013-02-16T14:20:34Z</time>
      </trkpt>
      <trkpt lat="47.664122460409999" lon="11.639575269073248">
        <ele>1161.890625</ele>
        <time>2013-02-16T14:20:35Z</time>
      </trkpt>
      <trkpt lat="47.664157496765256" lon="11.639501424506307">
        <ele>1160.92919921875</ele>
        <time>2013-02-16T14:20:50Z</time>
      </trkpt>
      <trkpt lat="47.664213655516505" lon="11.639438224956393">
        <ele>1158.04541015625</ele>
        <time>2013-02-16T14:20:53Z</time>
      </trkpt>
      <trkpt lat="47.664275513961911" lon="11.63942338898778">
        <ele>1154.2001953125</ele>
        <time>2013-02-16T14:20:55Z</time>
      </trkpt>
      <trkpt lat="47.664309795945883" lon="11.639404445886612">
        <ele>1152.758056640625</ele>
        <time>2013-02-16T14:20:58Z</time>
      </trkpt>
      <trkpt lat="47.664294959977269" lon="11.639394471421838">
        <ele>1153.23876953125</ele>
        <time>2013-02-16T14:21:13Z</time>
      </trkpt>
      <trkpt lat="47.664307113736868" lon="11.639390029013157">
        <ele>1152.758056640625</ele>
        <time>2013-02-16T14:21:22Z</time>
      </trkpt>
      <trkpt lat="47.664360338822007" lon="11.639294978231192">
        <ele>1150.35498046875</ele>
        <time>2013-02-16T14:21:25Z</time>
      </trkpt>
      <trkpt lat="47.664428818970919" lon="11.639232533052564">
        <ele>1146.509521484375</ele>
        <time>2013-02-16T14:21:27Z</time>
      </trkpt>
      <trkpt lat="47.664503920823336" lon="11.6392064653337">
        <ele>1142.664306640625</ele>
        <time>2013-02-16T14:21:29Z</time>
      </trkpt>
      <trkpt lat="47.664518505334854" lon="11.639201268553734">
        <ele>1142.664306640625</ele>
        <time>2013-02-16T14:21:30Z</time>
      </trkpt>
      <trkpt lat="47.664519594982266" lon="11.639185762032866">
        <ele>1142.664306640625</ele>
        <time>2013-02-16T14:21:31Z</time>
      </trkpt>
      <trkpt lat="47.664542393758893" lon="11.639145109802485">
        <ele>1138.819091796875</ele>
        <time>2013-02-16T14:21:34Z</time>
      </trkpt>
      <trkpt lat="47.664621686562896" lon="11.639124322682619">
        <ele>1135.454345703125</ele>
        <time>2013-02-16T14:21:37Z</time>
      </trkpt>
      <trkpt lat="47.664659824222326" lon="11.639036983251572">
        <ele>1132.08984375</ele>
        <time>2013-02-16T14:21:41Z</time>
      </trkpt>
      <trkpt lat="47.664706762880087" lon="11.638936484232545">
        <ele>1126.32177734375</ele>
        <time>2013-02-16T14:21:44Z</time>
      </trkpt>
      <trkpt lat="47.664715144783258" lon="11.638900777325034">
        <ele>1126.32177734375</ele>
        <time>2013-02-16T14:21:45Z</time>
      </trkpt>
      <trkpt lat="47.664810866117477" lon="11.638748645782471">
        <ele>1118.63134765625</ele>
        <time>2013-02-16T14:21:49Z</time>
      </trkpt>
      <trkpt lat="47.664876747876406" lon="11.63871293887496">
        <ele>1113.343994140625</ele>
        <time>2013-02-16T14:21:51Z</time>
      </trkpt>
      <trkpt lat="47.664907928556204" lon="11.638696594163775">
        <ele>1111.902099609375</ele>
        <time>2013-02-16T14:21:52Z</time>
      </trkpt>
      <trkpt lat="47.664942042902112" lon="11.638691062107682">
        <ele>1107.576171875</ele>
        <time>2013-02-16T14:21:54Z</time>
      </trkpt>
      <trkpt lat="47.664945479482412" lon="11.638694079592824">
        <ele>1107.095458984375</ele>
        <time>2013-02-16T14:21:55Z</time>
      </trkpt>
      <trkpt lat="47.664933074265718" lon="11.63873054087162">
        <ele>1107.095458984375</ele>
        <time>2013-02-16T14:22:03Z</time>
      </trkpt>
      <trkpt lat="47.664934080094099" lon="11.638728361576796">
        <ele>1107.095458984375</ele>
        <time>2013-02-16T14:22:09Z</time>
      </trkpt>
      <trkpt lat="47.664949838072062" lon="11.638708747923374">
        <ele>1101.808349609375</ele>
        <time>2013-02-16T14:22:14Z</time>
      </trkpt>
      <trkpt lat="47.664967691525817" lon="11.638693828135729">
        <ele>1101.808349609375</ele>
        <time>2013-02-16T14:22:23Z</time>
      </trkpt>
      <trkpt lat="47.664967020973563" lon="11.638684943318367">
        <ele>1101.808349609375</ele>
        <time>2013-02-16T14:22:31Z</time>
      </trkpt>
      <trkpt lat="47.664962494745851" lon="11.638693157583475">
        <ele>1102.76953125</ele>
        <time>2013-02-16T14:22:43Z</time>
      </trkpt>
      <trkpt lat="47.664957633242011" lon="11.638708999380469">
        <ele>1103.250244140625</ele>
        <time>2013-02-16T14:22:59Z</time>
      </trkpt>
      <trkpt lat="47.664970960468054" lon="11.638716291636229">
        <ele>1103.73095703125</ele>
        <time>2013-02-16T14:23:15Z</time>
      </trkpt>
      <trkpt lat="47.664982276037335" lon="11.638739677146077">
        <ele>1103.73095703125</ele>
        <time>2013-02-16T14:23:31Z</time>
      </trkpt>
      <trkpt lat="47.664983700960875" lon="11.638736072927713">
        <ele>1104.692138671875</ele>
        <time>2013-02-16T14:24:40Z</time>
      </trkpt>
      <trkpt lat="47.665019826963544" lon="11.638687709346414">
        <ele>1101.808349609375</ele>
        <time>2013-02-16T14:25:03Z</time>
      </trkpt>
      <trkpt lat="47.665047738701105" lon="11.638631382957101">
        <ele>1100.366455078125</ele>
        <time>2013-02-16T14:25:06Z</time>
      </trkpt>
      <trkpt lat="47.66506458632648" lon="11.638609590008855">
        <ele>1100.366455078125</ele>
        <time>2013-02-16T14:25:25Z</time>
      </trkpt>
      <trkpt lat="47.665093503892422" lon="11.638578912243247">
        <ele>1100.846923828125</ele>
        <time>2013-02-16T14:25:33Z</time>
      </trkpt>
      <trkpt lat="47.665094844996929" lon="11.638580337166786">
        <ele>1100.366455078125</ele>
        <time>2013-02-16T14:25:34Z</time>
      </trkpt>
      <trkpt lat="47.665113788098097" lon="11.638547144830227">
        <ele>1098.924072265625</ele>
        <time>2013-02-16T14:25:37Z</time>
      </trkpt>
      <trkpt lat="47.665116218850017" lon="11.638526692986488">
        <ele>1098.924072265625</ele>
        <time>2013-02-16T14:25:42Z</time>
      </trkpt>
      <trkpt lat="47.665145555511117" lon="11.638373723253608">
        <ele>1094.59814453125</ele>
        <time>2013-02-16T14:25:46Z</time>
      </trkpt>
      <trkpt lat="47.665210934355855" lon="11.638291329145432">
        <ele>1091.233642578125</ele>
        <time>2013-02-16T14:25:48Z</time>
      </trkpt>
      <trkpt lat="47.665279665961862" lon="11.638270290568471">
        <ele>1087.388427734375</ele>
        <time>2013-02-16T14:25:50Z</time>
      </trkpt>
      <trkpt lat="47.665344290435314" lon="11.638195523992181">
        <ele>1084.02392578125</ele>
        <time>2013-02-16T14:25:53Z</time>
      </trkpt>
      <trkpt lat="47.665380835533142" lon="11.638172222301364">
        <ele>1081.620361328125</ele>
        <time>2013-02-16T14:25:56Z</time>
      </trkpt>
      <trkpt lat="47.665379075333476" lon="11.638171216472983">
        <ele>1081.620361328125</ele>
        <time>2013-02-16T14:26:06Z</time>
      </trkpt>
      <trkpt lat="47.665386870503426" lon="11.638146489858627">
        <ele>1081.139892578125</ele>
        <time>2013-02-16T14:26:13Z</time>
      </trkpt>
      <trkpt lat="47.665385361760855" lon="11.638018665835261">
        <ele>1077.294677734375</ele>
        <time>2013-02-16T14:26:16Z</time>
      </trkpt>
      <trkpt lat="47.665441436693072" lon="11.637864941731095">
        <ele>1071.526611328125</ele>
        <time>2013-02-16T14:26:19Z</time>
      </trkpt>
      <trkpt lat="47.665511928498745" lon="11.637749942019582">
        <ele>1067.68115234375</ele>
        <time>2013-02-16T14:26:23Z</time>
      </trkpt>
      <trkpt lat="47.665557442232966" lon="11.637685736641288">
        <ele>1065.7587890625</ele>
        <time>2013-02-16T14:26:26Z</time>
      </trkpt>
      <trkpt lat="47.665559034794569" lon="11.637659585103393">
        <ele>1063.8359375</ele>
        <time>2013-02-16T14:26:33Z</time>
      </trkpt>
      <trkpt lat="47.665567165240645" lon="11.637670733034611">
        <ele>1064.79736328125</ele>
        <time>2013-02-16T14:26:43Z</time>
      </trkpt>
      <trkpt lat="47.665567332878709" lon="11.637649023905396">
        <ele>1064.316650390625</ele>
        <time>2013-02-16T14:26:49Z</time>
      </trkpt>
      <trkpt lat="47.665572194382548" lon="11.637599905952811">
        <ele>1063.8359375</ele>
        <time>2013-02-16T14:26:52Z</time>
      </trkpt>
      <trkpt lat="47.665557442232966" lon="11.637524049729109">
        <ele>1063.35546875</ele>
        <time>2013-02-16T14:26:57Z</time>
      </trkpt>
      <trkpt lat="47.6655263453722" lon="11.63740779273212">
        <ele>1062.874755859375</ele>
        <time>2013-02-16T14:27:03Z</time>
      </trkpt>
      <trkpt lat="47.66550974920392" lon="11.637290362268686">
        <ele>1061.91357421875</ele>
        <time>2013-02-16T14:27:10Z</time>
      </trkpt>
      <trkpt lat="47.665451662614942" lon="11.637128591537476">
        <ele>1060.471435546875</ele>
        <time>2013-02-16T14:27:18Z</time>
      </trkpt>
      <trkpt lat="47.665411094203591" lon="11.637040162459016">
        <ele>1059.99072265625</ele>
        <time>2013-02-16T14:27:23Z</time>
      </trkpt>
      <trkpt lat="47.665401538833976" lon="11.636958103626966">
        <ele>1059.51025390625</ele>
        <time>2013-02-16T14:27:27Z</time>
      </trkpt>
      <trkpt lat="47.665416626259685" lon="11.636708825826645">
        <ele>1055.6650390625</ele>
        <time>2013-02-16T14:27:32Z</time>
      </trkpt>
      <trkpt lat="47.665416961535811" lon="11.636663731187582">
        <ele>1055.6650390625</ele>
        <time>2013-02-16T14:27:33Z</time>
      </trkpt>
      <trkpt lat="47.66542567871511" lon="11.636671191081405">
        <ele>1053.742431640625</ele>
        <time>2013-02-16T14:27:39Z</time>
      </trkpt>
      <trkpt lat="47.665431126952171" lon="11.636643027886748">
        <ele>1053.742431640625</ele>
        <time>2013-02-16T14:28:09Z</time>
      </trkpt>
      <trkpt lat="47.665439508855343" lon="11.636625928804278">
        <ele>1051.819580078125</ele>
        <time>2013-02-16T14:28:56Z</time>
      </trkpt>
      <trkpt lat="47.665446884930134" lon="11.636616876348853">
        <ele>1050.858154296875</ele>
        <time>2013-02-16T14:28:57Z</time>
      </trkpt>
      <trkpt lat="47.665469096973538" lon="11.636514030396938">
        <ele>1049.89697265625</ele>
        <time>2013-02-16T14:29:01Z</time>
      </trkpt>
      <trkpt lat="47.665485274046659" lon="11.636404478922486">
        <ele>1047.49365234375</ele>
        <time>2013-02-16T14:29:04Z</time>
      </trkpt>
      <trkpt lat="47.665530033409595" lon="11.636285036802292">
        <ele>1045.571044921875</ele>
        <time>2013-02-16T14:29:07Z</time>
      </trkpt>
      <trkpt lat="47.665520394220948" lon="11.636202642694116">
        <ele>1044.129150390625</ele>
        <time>2013-02-16T14:29:09Z</time>
      </trkpt>
      <trkpt lat="47.665505222976208" lon="11.636069538071752">
        <ele>1041.725830078125</ele>
        <time>2013-02-16T14:29:12Z</time>
      </trkpt>
      <trkpt lat="47.665517292916775" lon="11.636028299108148">
        <ele>1038.842041015625</ele>
        <time>2013-02-16T14:29:17Z</time>
      </trkpt>
      <trkpt lat="47.665513772517443" lon="11.636002734303474">
        <ele>1038.842041015625</ele>
        <time>2013-02-16T14:29:28Z</time>
      </trkpt>
      <trkpt lat="47.665503043681383" lon="11.635815482586622">
        <ele>1034.515869140625</ele>
        <time>2013-02-16T14:29:32Z</time>
      </trkpt>
      <trkpt lat="47.665574289858341" lon="11.63572839461267">
        <ele>1033.07373046875</ele>
        <time>2013-02-16T14:29:35Z</time>
      </trkpt>
      <trkpt lat="47.665656097233295" lon="11.63566779345274">
        <ele>1028.748046875</ele>
        <time>2013-02-16T14:29:38Z</time>
      </trkpt>
      <trkpt lat="47.665665652602911" lon="11.635635020211339">
        <ele>1028.267333984375</ele>
        <time>2013-02-16T14:29:39Z</time>
      </trkpt>
      <trkpt lat="47.665692809969187" lon="11.635665949434042">
        <ele>1027.30615234375</ele>
        <time>2013-02-16T14:29:44Z</time>
      </trkpt>
      <trkpt lat="47.665696665644646" lon="11.635666284710169">
        <ele>1026.825439453125</ele>
        <time>2013-02-16T14:29:46Z</time>
      </trkpt>
      <trkpt lat="47.665763217955828" lon="11.635632840916514">
        <ele>1022.49951171875</ele>
        <time>2013-02-16T14:29:50Z</time>
      </trkpt>
      <trkpt lat="47.665801858529449" lon="11.635652370750904">
        <ele>1022.018798828125</ele>
        <time>2013-02-16T14:29:55Z</time>
      </trkpt>
      <trkpt lat="47.665795739740133" lon="11.635604677721858">
        <ele>1021.0576171875</ele>
        <time>2013-02-16T14:30:03Z</time>
      </trkpt>
      <trkpt lat="47.665794985368848" lon="11.635606940835714">
        <ele>1021.5380859375</ele>
        <time>2013-02-16T14:30:09Z</time>
      </trkpt>
      <trkpt lat="47.665716949850321" lon="11.635526306927204">
        <ele>1020.09619140625</ele>
        <time>2013-02-16T14:30:15Z</time>
      </trkpt>
      <trkpt lat="47.665550233796239" lon="11.635482972487807">
        <ele>1017.212158203125</ele>
        <time>2013-02-16T14:30:20Z</time>
      </trkpt>
      <trkpt lat="47.665486363694072" lon="11.635423460975289">
        <ele>1016.7314453125</ele>
        <time>2013-02-16T14:30:25Z</time>
      </trkpt>
      <trkpt lat="47.665498685091734" lon="11.63540099747479">
        <ele>1016.7314453125</ele>
        <time>2013-02-16T14:30:39Z</time>
      </trkpt>
      <trkpt lat="47.665499690920115" lon="11.635388592258096">
        <ele>1016.7314453125</ele>
        <time>2013-02-16T14:30:55Z</time>
      </trkpt>
      <trkpt lat="47.665488794445992" lon="11.635363111272454">
        <ele>1016.7314453125</ele>
        <time>2013-02-16T14:31:07Z</time>
      </trkpt>
      <trkpt lat="47.665480999276042" lon="11.635190779343247">
        <ele>1015.28955078125</ele>
        <time>2013-02-16T14:31:14Z</time>
      </trkpt>
      <trkpt lat="47.665519304573536" lon="11.635047532618046">
        <ele>1013.847412109375</ele>
        <time>2013-02-16T14:31:17Z</time>
      </trkpt>
      <trkpt lat="47.665572110563517" lon="11.634857263416052">
        <ele>1012.88623046875</ele>
        <time>2013-02-16T14:31:20Z</time>
      </trkpt>
      <trkpt lat="47.665650648996234" lon="11.634598011150956">
        <ele>1010.002197265625</ele>
        <time>2013-02-16T14:31:23Z</time>
      </trkpt>
      <trkpt lat="47.665680237114429" lon="11.63437245413661">
        <ele>1008.560302734375</ele>
        <time>2013-02-16T14:31:25Z</time>
      </trkpt>
      <trkpt lat="47.665602117776871" lon="11.633901055902243">
        <ele>1004.234619140625</ele>
        <time>2013-02-16T14:31:30Z</time>
      </trkpt>
      <trkpt lat="47.665585521608591" lon="11.633806843310595">
        <ele>1004.234619140625</ele>
        <time>2013-02-16T14:31:31Z</time>
      </trkpt>
      <trkpt lat="47.665551407262683" lon="11.633527474477887">
        <ele>1000.38916015625</ele>
        <time>2013-02-16T14:31:34Z</time>
      </trkpt>
      <trkpt lat="47.665542522445321" lon="11.633337624371052">
        <ele>999.427734375</ele>
        <time>2013-02-16T14:31:36Z</time>
      </trkpt>
      <trkpt lat="47.665528105571866" lon="11.632865220308304">
        <ele>994.140625</ele>
        <time>2013-02-16T14:31:41Z</time>
      </trkpt>
      <trkpt lat="47.665497846901417" lon="11.632665311917663">
        <ele>992.69873046875</ele>
        <time>2013-02-16T14:31:43Z</time>
      </trkpt>
      <trkpt lat="47.665389385074377" lon="11.632156949490309">
        <ele>986.930419921875</ele>
        <time>2013-02-16T14:31:48Z</time>
      </trkpt>
      <trkpt lat="47.665277402848005" lon="11.631736848503351">
        <ele>982.1240234375</ele>
        <time>2013-02-16T14:31:52Z</time>
      </trkpt>
      <trkpt lat="47.665241444483399" lon="11.631627632305026">
        <ele>981.162841796875</ele>
        <time>2013-02-16T14:31:53Z</time>
      </trkpt>
      <trkpt lat="47.665088810026646" lon="11.631224881857634">
        <ele>976.356201171875</ele>
        <time>2013-02-16T14:31:57Z</time>
      </trkpt>
      <trkpt lat="47.664964254945517" lon="11.631015669554472">
        <ele>972.510986328125</ele>
        <time>2013-02-16T14:32:00Z</time>
      </trkpt>
      <trkpt lat="47.664926201105118" lon="11.63095154799521">
        <ele>972.0302734375</ele>
        <time>2013-02-16T14:32:01Z</time>
      </trkpt>
      <trkpt lat="47.664888398721814" lon="11.630889186635613">
        <ele>971.06884765625</ele>
        <time>2013-02-16T14:32:02Z</time>
      </trkpt>
      <trkpt lat="47.664726795628667" lon="11.630647871643305">
        <ele>968.184814453125</ele>
        <time>2013-02-16T14:32:06Z</time>
      </trkpt>
      <trkpt lat="47.664580279961228" lon="11.630445867776871">
        <ele>964.339599609375</ele>
        <time>2013-02-16T14:32:09Z</time>
      </trkpt>
      <trkpt lat="47.66452219337225" lon="11.630381662398577">
        <ele>963.85888671875</ele>
        <time>2013-02-16T14:32:10Z</time>
      </trkpt>
      <trkpt lat="47.664445247501135" lon="11.630211928859353">
        <ele>960.013671875</ele>
        <time>2013-02-16T14:32:12Z</time>
      </trkpt>
      <trkpt lat="47.664275681599975" lon="11.63009399548173">
        <ele>956.649169921875</ele>
        <time>2013-02-16T14:32:16Z</time>
      </trkpt>
      <trkpt lat="47.664214828982949" lon="11.630171947181225">
        <ele>956.16845703125</ele>
        <time>2013-02-16T14:32:17Z</time>
      </trkpt>
      <trkpt lat="47.664101757109165" lon="11.630337405949831">
        <ele>954.245849609375</ele>
        <time>2013-02-16T14:32:19Z</time>
      </trkpt>
      <trkpt lat="47.663848707452416" lon="11.630342435091734">
        <ele>950.400634765625</ele>
        <time>2013-02-16T14:32:23Z</time>
      </trkpt>
      <trkpt lat="47.663805456832051" lon="11.630284432321787">
        <ele>949.919921875</ele>
        <time>2013-02-16T14:32:24Z</time>
      </trkpt>
      <trkpt lat="47.663681823760271" lon="11.629954185336828">
        <ele>947.5166015625</ele>
        <time>2013-02-16T14:32:29Z</time>
      </trkpt>
      <trkpt lat="47.663487866520882" lon="11.629961645230651">
        <ele>945.11328125</ele>
        <time>2013-02-16T14:32:33Z</time>
      </trkpt>
      <trkpt lat="47.663319306448102" lon="11.630070190876722">
        <ele>941.748779296875</ele>
        <time>2013-02-16T14:32:36Z</time>
      </trkpt>
      <trkpt lat="47.663111938163638" lon="11.630059713497758">
        <ele>937.422607421875</ele>
        <time>2013-02-16T14:32:40Z</time>
      </trkpt>
      <trkpt lat="47.663169605657458" lon="11.629814123734832">
        <ele>933.577392578125</ele>
        <time>2013-02-16T14:32:43Z</time>
      </trkpt>
      <trkpt lat="47.663360629230738" lon="11.629556715488434">
        <ele>928.290283203125</ele>
        <time>2013-02-16T14:32:46Z</time>
      </trkpt>
      <trkpt lat="47.663592388853431" lon="11.629253709688783">
        <ele>923.483642578125</ele>
        <time>2013-02-16T14:32:50Z</time>
      </trkpt>
      <trkpt lat="47.663708897307515" lon="11.62911968305707">
        <ele>921.080322265625</ele>
        <time>2013-02-16T14:32:52Z</time>
      </trkpt>
      <trkpt lat="47.663878044113517" lon="11.628900496289134">
        <ele>917.235107421875</ele>
        <time>2013-02-16T14:32:55Z</time>
      </trkpt>
      <trkpt lat="47.664131093770266" lon="11.628606459125876">
        <ele>911.947998046875</ele>
        <time>2013-02-16T14:32:59Z</time>
      </trkpt>
      <trkpt lat="47.664334690198302" lon="11.628264812752604">
        <ele>907.14111328125</ele>
        <time>2013-02-16T14:33:03Z</time>
      </trkpt>
      <trkpt lat="47.664478775113821" lon="11.628037411719561">
        <ele>903.2958984375</ele>
        <time>2013-02-16T14:33:06Z</time>
      </trkpt>
      <trkpt lat="47.664627134799957" lon="11.627743626013398">
        <ele>898.969970703125</ele>
        <time>2013-02-16T14:33:09Z</time>
      </trkpt>
      <trkpt lat="47.66468346118927" lon="11.627641450613737">
        <ele>895.60546875</ele>
        <time>2013-02-16T14:33:10Z</time>
      </trkpt>
      <trkpt lat="47.664746912196279" lon="11.627554781734943">
        <ele>895.124755859375</ele>
        <time>2013-02-16T14:33:11Z</time>
      </trkpt>
      <trkpt lat="47.664940450340509" lon="11.627323105931282">
        <ele>890.318115234375</ele>
        <time>2013-02-16T14:33:14Z</time>
      </trkpt>
      <trkpt lat="47.66505385749042" lon="11.627001911401749">
        <ele>886.472900390625</ele>
        <time>2013-02-16T14:33:17Z</time>
      </trkpt>
      <trkpt lat="47.665102640166879" lon="11.626806193962693">
        <ele>885.031005859375</ele>
        <time>2013-02-16T14:33:19Z</time>
      </trkpt>
      <trkpt lat="47.665106747299433" lon="11.626472175121307">
        <ele>881.666259765625</ele>
        <time>2013-02-16T14:33:22Z</time>
      </trkpt>
      <trkpt lat="47.66508168540895" lon="11.626166570931673">
        <ele>877.821044921875</ele>
        <time>2013-02-16T14:33:25Z</time>
      </trkpt>
      <trkpt lat="47.665048995986581" lon="11.626103455200791">
        <ele>877.340576171875</ele>
        <time>2013-02-16T14:33:26Z</time>
      </trkpt>
      <trkpt lat="47.664893344044685" lon="11.625911258161068">
        <ele>873.9755859375</ele>
        <time>2013-02-16T14:33:29Z</time>
      </trkpt>
      <trkpt lat="47.664753785356879" lon="11.625626189634204">
        <ele>872.052978515625</ele>
        <time>2013-02-16T14:33:32Z</time>
      </trkpt>
      <trkpt lat="47.664714977145195" lon="11.625185888260603">
        <ele>866.28515625</ele>
        <time>2013-02-16T14:33:36Z</time>
      </trkpt>
      <trkpt lat="47.664740793406963" lon="11.62484030239284">
        <ele>863.8818359375</ele>
        <time>2013-02-16T14:33:39Z</time>
      </trkpt>
      <trkpt lat="47.664720928296447" lon="11.624626312404871">
        <ele>862.43994140625</ele>
        <time>2013-02-16T14:33:41Z</time>
      </trkpt>
      <trkpt lat="47.664638534188271" lon="11.624385332688689">
        <ele>859.555908203125</ele>
        <time>2013-02-16T14:33:44Z</time>
      </trkpt>
      <trkpt lat="47.664635684341192" lon="11.623979900032282">
        <ele>855.710693359375</ele>
        <time>2013-02-16T14:33:48Z</time>
      </trkpt>
      <trkpt lat="47.664679689332843" lon="11.623655520379543">
        <ele>852.82666015625</ele>
        <time>2013-02-16T14:33:51Z</time>
      </trkpt>
      <trkpt lat="47.664724783971906" lon="11.623358717188239">
        <ele>850.423583984375</ele>
        <time>2013-02-16T14:33:54Z</time>
      </trkpt>
      <trkpt lat="47.664833245798945" lon="11.622948674485087">
        <ele>845.616943359375</ele>
        <time>2013-02-16T14:33:58Z</time>
      </trkpt>
      <trkpt lat="47.664854871109128" lon="11.622838284820318">
        <ele>845.13623046875</ele>
        <time>2013-02-16T14:33:59Z</time>
      </trkpt>
      <trkpt lat="47.664857050403953" lon="11.622378537431359">
        <ele>841.771484375</ele>
        <time>2013-02-16T14:34:03Z</time>
      </trkpt>
      <trkpt lat="47.664711875841022" lon="11.621907725930214">
        <ele>837.92626953125</ele>
        <time>2013-02-16T14:34:08Z</time>
      </trkpt>
      <trkpt lat="47.66465999186039" lon="11.621567588299513">
        <ele>834.0810546875</ele>
        <time>2013-02-16T14:34:12Z</time>
      </trkpt>
      <trkpt lat="47.664840370416641" lon="11.621297104284167">
        <ele>830.716552734375</ele>
        <time>2013-02-16T14:34:15Z</time>
      </trkpt>
      <trkpt lat="47.665068609640002" lon="11.621096106246114">
        <ele>827.832275390625</ele>
        <time>2013-02-16T14:34:18Z</time>
      </trkpt>
      <trkpt lat="47.665382595732808" lon="11.620967946946621">
        <ele>822.545166015625</ele>
        <time>2013-02-16T14:34:22Z</time>
      </trkpt>
      <trkpt lat="47.665459960699081" lon="11.620945231989026">
        <ele>821.583740234375</ele>
        <time>2013-02-16T14:34:23Z</time>
      </trkpt>
      <trkpt lat="47.665599519386888" lon="11.620855126529932">
        <ele>820.62255859375</ele>
        <time>2013-02-16T14:34:25Z</time>
      </trkpt>
      <trkpt lat="47.665828429162502" lon="11.620583636686206">
        <ele>818.699951171875</ele>
        <time>2013-02-16T14:34:29Z</time>
      </trkpt>
      <trkpt lat="47.665935885161161" lon="11.620467212051153">
        <ele>817.258056640625</ele>
        <time>2013-02-16T14:34:31Z</time>
      </trkpt>
      <trkpt lat="47.665988523513079" lon="11.620410047471523">
        <ele>816.296630859375</ele>
        <time>2013-02-16T14:34:32Z</time>
      </trkpt>
      <trkpt lat="47.666083993390203" lon="11.620270824059844">
        <ele>815.33544921875</ele>
        <time>2013-02-16T14:34:34Z</time>
      </trkpt>
      <trkpt lat="47.666123807430267" lon="11.620189435780048">
        <ele>814.3740234375</ele>
        <time>2013-02-16T14:34:35Z</time>
      </trkpt>
      <trkpt lat="47.666176278144121" lon="11.619973182678223">
        <ele>813.412841796875</ele>
        <time>2013-02-16T14:34:37Z</time>
      </trkpt>
      <trkpt lat="47.666245764121413" lon="11.619600271806121">
        <ele>811.970703125</ele>
        <time>2013-02-16T14:34:41Z</time>
      </trkpt>
      <trkpt lat="47.666295049712062" lon="11.619306737557054">
        <ele>810.0478515625</ele>
        <time>2013-02-16T14:34:45Z</time>
      </trkpt>
      <trkpt lat="47.666400410234928" lon="11.618903232738376">
        <ele>809.086669921875</ele>
        <time>2013-02-16T14:34:52Z</time>
      </trkpt>
      <trkpt lat="47.666538208723068" lon="11.618455136194825">
        <ele>807.1640625</ele>
        <time>2013-02-16T14:35:01Z</time>
      </trkpt>
      <trkpt lat="47.666564024984837" lon="11.618187837302685">
        <ele>805.241455078125</ele>
        <time>2013-02-16T14:35:07Z</time>
      </trkpt>
      <trkpt lat="47.66656905412674" lon="11.61813436076045">
        <ele>805.241455078125</ele>
        <time>2013-02-16T14:35:08Z</time>
      </trkpt>
      <trkpt lat="47.666573328897357" lon="11.617907043546438">
        <ele>803.31884765625</ele>
        <time>2013-02-16T14:35:13Z</time>
      </trkpt>
      <trkpt lat="47.666609538719058" lon="11.617627926170826">
        <ele>801.396240234375</ele>
        <time>2013-02-16T14:35:17Z</time>
      </trkpt>
      <trkpt lat="47.666664021089673" lon="11.61740873940289">
        <ele>799.954345703125</ele>
        <time>2013-02-16T14:35:20Z</time>
      </trkpt>
      <trkpt lat="47.666594451293349" lon="11.617208076640964">
        <ele>798.51220703125</ele>
        <time>2013-02-16T14:35:23Z</time>
      </trkpt>
      <trkpt lat="47.666569221764803" lon="11.617134483531117">
        <ele>798.51220703125</ele>
        <time>2013-02-16T14:35:24Z</time>
      </trkpt>
      <trkpt lat="47.666527479887009" lon="11.616993835195899">
        <ele>798.03173828125</ele>
        <time>2013-02-16T14:35:26Z</time>
      </trkpt>
      <trkpt lat="47.666511051356792" lon="11.616406263783574">
        <ele>796.58984375</ele>
        <time>2013-02-16T14:35:32Z</time>
      </trkpt>
      <trkpt lat="47.666479283943772" lon="11.615904271602631">
        <ele>795.628173828125</ele>
        <time>2013-02-16T14:35:39Z</time>
      </trkpt>
      <trkpt lat="47.666439050808549" lon="11.615693047642708">
        <ele>794.666748046875</ele>
        <time>2013-02-16T14:35:43Z</time>
      </trkpt>
      <trkpt lat="47.666323883458972" lon="11.615357100963593">
        <ele>794.666748046875</ele>
        <time>2013-02-16T14:35:51Z</time>
      </trkpt>
      <trkpt lat="47.666239980608225" lon="11.61509214900434">
        <ele>793.70556640625</ele>
        <time>2013-02-16T14:35:57Z</time>
      </trkpt>
      <trkpt lat="47.666229670867324" lon="11.614856868982315">
        <ele>792.744384765625</ele>
        <time>2013-02-16T14:36:02Z</time>
      </trkpt>
      <trkpt lat="47.666227575391531" lon="11.614393768832088">
        <ele>790.341064453125</ele>
        <time>2013-02-16T14:36:08Z</time>
      </trkpt>
      <trkpt lat="47.666212990880013" lon="11.614078776910901">
        <ele>787.937744140625</ele>
        <time>2013-02-16T14:36:12Z</time>
      </trkpt>
      <trkpt lat="47.666265796869993" lon="11.613396489992738">
        <ele>785.053955078125</ele>
        <time>2013-02-16T14:36:20Z</time>
      </trkpt>
      <trkpt lat="47.666281890124083" lon="11.613302193582058">
        <ele>784.5732421875</ele>
        <time>2013-02-16T14:36:21Z</time>
      </trkpt>
      <trkpt lat="47.666316507384181" lon="11.613111086189747">
        <ele>783.131103515625</ele>
        <time>2013-02-16T14:36:23Z</time>
      </trkpt>
      <trkpt lat="47.666370067745447" lon="11.612475402653217">
        <ele>779.28564453125</ele>
        <time>2013-02-16T14:36:30Z</time>
      </trkpt>
      <trkpt lat="47.66639512963593" lon="11.611998556181788">
        <ele>777.84375</ele>
        <time>2013-02-16T14:36:36Z</time>
      </trkpt>
      <trkpt lat="47.666386496275663" lon="11.611696975305676">
        <ele>776.40185546875</ele>
        <time>2013-02-16T14:36:40Z</time>
      </trkpt>
      <trkpt lat="47.666413569822907" lon="11.611227421090007">
        <ele>774.479248046875</ele>
        <time>2013-02-16T14:36:48Z</time>
      </trkpt>
      <trkpt lat="47.666500741615891" lon="11.610928103327751">
        <ele>773.99853515625</ele>
        <time>2013-02-16T14:36:54Z</time>
      </trkpt>
      <trkpt lat="47.6665900927037" lon="11.610673628747463">
        <ele>773.51806640625</ele>
        <time>2013-02-16T14:37:00Z</time>
      </trkpt>
      <trkpt lat="47.666747840121388" lon="11.610438348725438">
        <ele>772.075927734375</ele>
        <time>2013-02-16T14:37:07Z</time>
      </trkpt>
      <trkpt lat="47.666795616969466" lon="11.610359642654657">
        <ele>771.59521484375</ele>
        <time>2013-02-16T14:37:09Z</time>
      </trkpt>
      <trkpt lat="47.667036764323711" lon="11.609812304377556">
        <ele>768.230712890625</ele>
        <time>2013-02-16T14:37:18Z</time>
      </trkpt>
      <trkpt lat="47.667075907811522" lon="11.609675427898765">
        <ele>767.75</ele>
        <time>2013-02-16T14:37:20Z</time>
      </trkpt>
      <trkpt lat="47.667173054069281" lon="11.609246945008636">
        <ele>765.82763671875</ele>
        <time>2013-02-16T14:37:27Z</time>
      </trkpt>
      <trkpt lat="47.667229883372784" lon="11.609026500955224">
        <ele>766.30810546875</ele>
        <time>2013-02-16T14:37:32Z</time>
      </trkpt>
      <trkpt lat="47.667292831465602" lon="11.608883673325181">
        <ele>765.346923828125</ele>
        <time>2013-02-16T14:37:38Z</time>
      </trkpt>
      <trkpt lat="47.667410178110003" lon="11.608585026115179">
        <ele>763.424072265625</ele>
        <time>2013-02-16T14:37:48Z</time>
      </trkpt>
      <trkpt lat="47.667428869754076" lon="11.608534147962928">
        <ele>762.943359375</ele>
        <time>2013-02-16T14:37:49Z</time>
      </trkpt>
      <trkpt lat="47.667601704597473" lon="11.607850603759289">
        <ele>760.059326171875</ele>
        <time>2013-02-16T14:37:59Z</time>
      </trkpt>
      <trkpt lat="47.667828602716327" lon="11.607324639335275">
        <ele>756.69482421875</ele>
        <time>2013-02-16T14:38:07Z</time>
      </trkpt>
      <trkpt lat="47.668071510270238" lon="11.606917111203074">
        <ele>753.81103515625</ele>
        <time>2013-02-16T14:38:14Z</time>
      </trkpt>
      <trkpt lat="47.668382143601775" lon="11.606359211727977">
        <ele>750.446533203125</ele>
        <time>2013-02-16T14:38:23Z</time>
      </trkpt>
      <trkpt lat="47.668692860752344" lon="11.605752194300294">
        <ele>747.08154296875</ele>
        <time>2013-02-16T14:38:33Z</time>
      </trkpt>
      <trkpt lat="47.668905928730965" lon="11.605207538232207">
        <ele>744.67822265625</ele>
        <time>2013-02-16T14:38:43Z</time>
      </trkpt>
      <trkpt lat="47.669124947860837" lon="11.604552073404193">
        <ele>742.275146484375</ele>
        <time>2013-02-16T14:38:55Z</time>
      </trkpt>
      <trkpt lat="47.66923114657402" lon="11.604362055659294">
        <ele>741.313720703125</ele>
        <time>2013-02-16T14:39:00Z</time>
      </trkpt>
      <trkpt lat="47.669401466846466" lon="11.603964753448963">
        <ele>739.871826171875</ele>
        <time>2013-02-16T14:39:11Z</time>
      </trkpt>
      <trkpt lat="47.669535661116242" lon="11.603549430146813">
        <ele>738.91064453125</ele>
        <time>2013-02-16T14:39:26Z</time>
      </trkpt>
      <trkpt lat="47.669665915891528" lon="11.603170987218618">
        <ele>737.468505859375</ele>
        <time>2013-02-16T14:39:41Z</time>
      </trkpt>
      <trkpt lat="47.669830620288849" lon="11.602723393589258">
        <ele>736.026611328125</ele>
        <time>2013-02-16T14:39:52Z</time>
      </trkpt>
      <trkpt lat="47.66996992751956" lon="11.602185778319836">
        <ele>733.142578125</ele>
        <time>2013-02-16T14:40:04Z</time>
      </trkpt>
      <trkpt lat="47.67018592916429" lon="11.601415146142244">
        <ele>730.258544921875</ele>
        <time>2013-02-16T14:40:21Z</time>
      </trkpt>
      <trkpt lat="47.670409642159939" lon="11.600830759853125">
        <ele>727.855224609375</ele>
        <time>2013-02-16T14:40:33Z</time>
      </trkpt>
      <trkpt lat="47.670672498643398" lon="11.600355003029108">
        <ele>726.89404296875</ele>
        <time>2013-02-16T14:40:45Z</time>
      </trkpt>
      <trkpt lat="47.670722873881459" lon="11.600036071613431">
        <ele>725.451904296875</ele>
        <time>2013-02-16T14:40:52Z</time>
      </trkpt>
      <trkpt lat="47.670780038461089" lon="11.599568445235491">
        <ele>724.49072265625</ele>
        <time>2013-02-16T14:41:02Z</time>
      </trkpt>
      <trkpt lat="47.670840471982956" lon="11.599119594320655">
        <ele>722.568115234375</ele>
        <time>2013-02-16T14:41:12Z</time>
      </trkpt>
      <trkpt lat="47.670925799757242" lon="11.598545769229531">
        <ele>721.126220703125</ele>
        <time>2013-02-16T14:41:25Z</time>
      </trkpt>
      <trkpt lat="47.670989753678441" lon="11.598101947456598">
        <ele>720.164794921875</ele>
        <time>2013-02-16T14:41:35Z</time>
      </trkpt>
      <trkpt lat="47.671038117259741" lon="11.597776561975479">
        <ele>719.20361328125</ele>
        <time>2013-02-16T14:41:43Z</time>
      </trkpt>
      <trkpt lat="47.671082792803645" lon="11.597498869523406">
        <ele>718.722900390625</ele>
        <time>2013-02-16T14:41:49Z</time>
      </trkpt>
      <trkpt lat="47.671093689277768" lon="11.597293512895703">
        <ele>718.722900390625</ele>
        <time>2013-02-16T14:41:53Z</time>
      </trkpt>
      <trkpt lat="47.671124031767249" lon="11.597108356654644">
        <ele>717.761474609375</ele>
        <time>2013-02-16T14:41:58Z</time>
      </trkpt>
      <trkpt lat="47.671153200790286" lon="11.596811888739467">
        <ele>717.281005859375</ele>
        <time>2013-02-16T14:42:06Z</time>
      </trkpt>
      <trkpt lat="47.671158984303474" lon="11.596551798284054">
        <ele>715.8388671875</ele>
        <time>2013-02-16T14:42:12Z</time>
      </trkpt>
      <trkpt lat="47.671189242973924" lon="11.596259688958526">
        <ele>714.87744140625</ele>
        <time>2013-02-16T14:42:18Z</time>
      </trkpt>
      <trkpt lat="47.671232996508479" lon="11.595922065898776">
        <ele>713.435546875</ele>
        <time>2013-02-16T14:42:25Z</time>
      </trkpt>
      <trkpt lat="47.671271469444036" lon="11.595405908301473">
        <ele>711.512939453125</ele>
        <time>2013-02-16T14:42:34Z</time>
      </trkpt>
      <trkpt lat="47.671329975128174" lon="11.594823952764273">
        <ele>709.109619140625</ele>
        <time>2013-02-16T14:42:44Z</time>
      </trkpt>
      <trkpt lat="47.671292005106807" lon="11.594348195940256">
        <ele>707.667724609375</ele>
        <time>2013-02-16T14:42:55Z</time>
      </trkpt>
      <trkpt lat="47.671231487765908" lon="11.593818543478847">
        <ele>705.7451171875</ele>
        <time>2013-02-16T14:43:05Z</time>
      </trkpt>
      <trkpt lat="47.671314552426338" lon="11.593307163566351">
        <ele>703.341796875</ele>
        <time>2013-02-16T14:43:14Z</time>
      </trkpt>
      <trkpt lat="47.671392755582929" lon="11.59287222661078">
        <ele>702.861083984375</ele>
        <time>2013-02-16T14:43:22Z</time>
      </trkpt>
      <trkpt lat="47.671453775838017" lon="11.592470398172736">
        <ele>701.89990234375</ele>
        <time>2013-02-16T14:43:31Z</time>
      </trkpt>
      <trkpt lat="47.671455703675747" lon="11.592395128682256">
        <ele>701.89990234375</ele>
        <time>2013-02-16T14:43:36Z</time>
      </trkpt>
      <trkpt lat="47.671459391713142" lon="11.592419100925326">
        <ele>701.419189453125</ele>
        <time>2013-02-16T14:43:44Z</time>
      </trkpt>
      <trkpt lat="47.671462073922157" lon="11.592411641031504">
        <ele>701.89990234375</ele>
        <time>2013-02-16T14:43:54Z</time>
      </trkpt>
      <trkpt lat="47.671462912112474" lon="11.592413987964392">
        <ele>701.419189453125</ele>
        <time>2013-02-16T14:44:07Z</time>
      </trkpt>
      <trkpt lat="47.67145729623735" lon="11.592420944944024">
        <ele>702.38037109375</ele>
        <time>2013-02-16T14:44:45Z</time>
      </trkpt>
      <trkpt lat="47.671453775838017" lon="11.592414826154709">
        <ele>702.38037109375</ele>
        <time>2013-02-16T14:44:59Z</time>
      </trkpt>
      <trkpt lat="47.671470539644361" lon="11.592369647696614">
        <ele>701.89990234375</ele>
        <time>2013-02-16T14:45:08Z</time>
      </trkpt>
      <trkpt lat="47.671347074210644" lon="11.592284487560391">
        <ele>701.419189453125</ele>
        <time>2013-02-16T14:45:19Z</time>
      </trkpt>
      <trkpt lat="47.671208437532187" lon="11.592294126749039">
        <ele>701.89990234375</ele>
        <time>2013-02-16T14:45:30Z</time>
      </trkpt>
      <trkpt lat="47.670971900224686" lon="11.592131266370416">
        <ele>701.419189453125</ele>
        <time>2013-02-16T14:45:51Z</time>
      </trkpt>
      <trkpt lat="47.670840974897146" lon="11.592045770958066">
        <ele>701.89990234375</ele>
        <time>2013-02-16T14:46:03Z</time>
      </trkpt>
      <trkpt lat="47.670828904956579" lon="11.592042753472924">
        <ele>701.89990234375</ele>
        <time>2013-02-16T14:46:04Z</time>
      </trkpt>
      <trkpt lat="47.670651627704501" lon="11.591947115957737">
        <ele>701.89990234375</ele>
        <time>2013-02-16T14:46:18Z</time>
      </trkpt>
      <trkpt lat="47.670557918027043" lon="11.592009393498302">
        <ele>701.419189453125</ele>
        <time>2013-02-16T14:46:27Z</time>
      </trkpt>
      <trkpt lat="47.670562025159597" lon="11.592059517279267">
        <ele>701.89990234375</ele>
        <time>2013-02-16T14:46:36Z</time>
      </trkpt>
      <trkpt lat="47.670562444254756" lon="11.592045770958066">
        <ele>702.38037109375</ele>
        <time>2013-02-16T14:46:44Z</time>
      </trkpt>
      <trkpt lat="47.670561606064439" lon="11.592045519500971">
        <ele>701.419189453125</ele>
        <time>2013-02-16T14:47:25Z</time>
      </trkpt>
      <trkpt lat="47.670568143948913" lon="11.592085165902972">
        <ele>703.341796875</ele>
        <time>2013-02-16T14:52:59Z</time>
      </trkpt>
      <trkpt lat="47.670566635206342" lon="11.59208407625556">
        <ele>703.341796875</ele>
        <time>2013-02-16T14:54:57Z</time>
      </trkpt>
    </trkseg>
  </trk>

</gpx>
